<?xml version="1.0" encoding="UTF-8" standalone="no" ?>
<gpx xmlns="http://www.topografix.com/GPX/1/1" xmlns:xsi="http://www.w3.org/2001/XMLSchema-instance" xsi:schemaLocation="http://www.topografix.com/GPX/1/1 http://www.topografix.com/GPX/1/1/gpx.xsd" version="1.1" creator="VisuGPX - https://www.visugpx.com">
  <metadata>
    <name>Barbazan Refuge St Martin 28 janv 2014 </name>
    <desc><![CDATA[Arbres abbatus par tempête]]></desc>
  </metadata>
  <trk>
    <name><![CDATA[Barbazan Rge St Martin2014-01-28 08:50]]></name>
    <desc><![CDATA[<h1>OruxMaps</h1><br /><hr align="center" width="480" style="height: 2px; width: 517px"/><h2>Nom: Barbazan Rge St Martin2014-01-28 08:50</h2><br /><p>Temps de départ: 01/28/2014 08:50</p><p>Temps d'arrivée: 01/28/2014 14:44</p><p>Distance: 11,4 km (05:54)</p><p>Temps déplacement: 02:51</p><p>Vitesse moyenne: 1,9 km/h</p><p>Vitesse moyenne: 4 km/h</p><p>Vitess Max.: 15,2 km/h</p><p>Altitude minimale: 540 m</p><p>Altitude maximale: 957 m</p><p>Vitesse d'élévation: 149,8 m/h</p><p>Vitesse de descente: -234,2 m/h</p><p>Gain Altitude: 501 m</p><p>Perte Altitude: -507 m</p><p>Temps d'élévation: 03:20</p><p>Temps de descente: 02:09</p><hr align="center" width="480" style="height: 2px; width: 517px"/>]]></desc>
    <trkseg>
      <trkpt lat="43.03279" lon="0.62879">
        <ele>551.67</ele>
        <time>2014-01-28T07:50:06Z</time>
      </trkpt>
      <trkpt lat="43.0328" lon="0.62885">
        <ele>555.98</ele>
        <time>2014-01-28T07:51:52Z</time>
      </trkpt>
      <trkpt lat="43.03278" lon="0.62892">
        <ele>554.89</ele>
        <time>2014-01-28T07:51:58Z</time>
      </trkpt>
      <trkpt lat="43.03275" lon="0.62896">
        <ele>553.68</ele>
        <time>2014-01-28T07:52:06Z</time>
      </trkpt>
      <trkpt lat="43.03274" lon="0.62903">
        <ele>551.62</ele>
        <time>2014-01-28T07:52:13Z</time>
      </trkpt>
      <trkpt lat="43.03273" lon="0.62908">
        <ele>549.92</ele>
        <time>2014-01-28T07:52:18Z</time>
      </trkpt>
      <trkpt lat="43.03271" lon="0.62915">
        <ele>550.32</ele>
        <time>2014-01-28T07:52:24Z</time>
      </trkpt>
      <trkpt lat="43.03268" lon="0.62923">
        <ele>551.24</ele>
        <time>2014-01-28T07:52:33Z</time>
      </trkpt>
      <trkpt lat="43.03266" lon="0.62929">
        <ele>551.22</ele>
        <time>2014-01-28T07:52:37Z</time>
      </trkpt>
      <trkpt lat="43.03264" lon="0.62936">
        <ele>551.1</ele>
        <time>2014-01-28T07:52:41Z</time>
      </trkpt>
      <trkpt lat="43.03262" lon="0.62942">
        <ele>551.98</ele>
        <time>2014-01-28T07:52:45Z</time>
      </trkpt>
      <trkpt lat="43.03259" lon="0.62949">
        <ele>553.83</ele>
        <time>2014-01-28T07:52:50Z</time>
      </trkpt>
      <trkpt lat="43.03259" lon="0.62956">
        <ele>550.91</ele>
        <time>2014-01-28T07:52:55Z</time>
      </trkpt>
      <trkpt lat="43.03257" lon="0.62962">
        <ele>553.53</ele>
        <time>2014-01-28T07:53:00Z</time>
      </trkpt>
      <trkpt lat="43.03254" lon="0.62967">
        <ele>555.37</ele>
        <time>2014-01-28T07:53:05Z</time>
      </trkpt>
      <trkpt lat="43.03251" lon="0.62974">
        <ele>556.46</ele>
        <time>2014-01-28T07:53:11Z</time>
      </trkpt>
      <trkpt lat="43.03249" lon="0.62979">
        <ele>557.8</ele>
        <time>2014-01-28T07:53:16Z</time>
      </trkpt>
      <trkpt lat="43.03249" lon="0.62986">
        <ele>557.1</ele>
        <time>2014-01-28T07:53:21Z</time>
      </trkpt>
      <trkpt lat="43.03249" lon="0.62992">
        <ele>555.69</ele>
        <time>2014-01-28T07:53:25Z</time>
      </trkpt>
      <trkpt lat="43.03248" lon="0.62999">
        <ele>554.62</ele>
        <time>2014-01-28T07:53:29Z</time>
      </trkpt>
      <trkpt lat="43.03246" lon="0.63005">
        <ele>553.02</ele>
        <time>2014-01-28T07:53:33Z</time>
      </trkpt>
      <trkpt lat="43.03245" lon="0.63011">
        <ele>553.17</ele>
        <time>2014-01-28T07:53:38Z</time>
      </trkpt>
      <trkpt lat="43.03244" lon="0.63018">
        <ele>554.3</ele>
        <time>2014-01-28T07:53:44Z</time>
      </trkpt>
      <trkpt lat="43.03242" lon="0.63024">
        <ele>557</ele>
        <time>2014-01-28T07:53:50Z</time>
      </trkpt>
      <trkpt lat="43.03238" lon="0.63028">
        <ele>558.44</ele>
        <time>2014-01-28T07:53:54Z</time>
      </trkpt>
      <trkpt lat="43.03235" lon="0.63032">
        <ele>559.43</ele>
        <time>2014-01-28T07:53:58Z</time>
      </trkpt>
      <trkpt lat="43.03231" lon="0.63038">
        <ele>560.91</ele>
        <time>2014-01-28T07:54:03Z</time>
      </trkpt>
      <trkpt lat="43.03228" lon="0.63043">
        <ele>560.86</ele>
        <time>2014-01-28T07:54:09Z</time>
      </trkpt>
      <trkpt lat="43.03226" lon="0.63049">
        <ele>558.2</ele>
        <time>2014-01-28T07:54:16Z</time>
      </trkpt>
      <trkpt lat="43.03225" lon="0.63056">
        <ele>556.97</ele>
        <time>2014-01-28T07:54:28Z</time>
      </trkpt>
      <trkpt lat="43.03224" lon="0.63063">
        <ele>556.5</ele>
        <time>2014-01-28T07:54:34Z</time>
      </trkpt>
      <trkpt lat="43.03221" lon="0.63069">
        <ele>558.15</ele>
        <time>2014-01-28T07:54:41Z</time>
      </trkpt>
      <trkpt lat="43.03218" lon="0.63074">
        <ele>558.83</ele>
        <time>2014-01-28T07:54:47Z</time>
      </trkpt>
      <trkpt lat="43.03215" lon="0.63078">
        <ele>561.18</ele>
        <time>2014-01-28T07:54:54Z</time>
      </trkpt>
      <trkpt lat="43.03212" lon="0.63084">
        <ele>560.77</ele>
        <time>2014-01-28T07:55:12Z</time>
      </trkpt>
      <trkpt lat="43.03211" lon="0.6309">
        <ele>561.38</ele>
        <time>2014-01-28T07:55:19Z</time>
      </trkpt>
      <trkpt lat="43.03208" lon="0.63096">
        <ele>562.66</ele>
        <time>2014-01-28T07:55:26Z</time>
      </trkpt>
      <trkpt lat="43.03206" lon="0.63102">
        <ele>561.96</ele>
        <time>2014-01-28T07:55:31Z</time>
      </trkpt>
      <trkpt lat="43.03204" lon="0.63108">
        <ele>562.01</ele>
        <time>2014-01-28T07:55:37Z</time>
      </trkpt>
      <trkpt lat="43.03205" lon="0.63115">
        <ele>560.6</ele>
        <time>2014-01-28T07:55:44Z</time>
      </trkpt>
      <trkpt lat="43.03207" lon="0.63122">
        <ele>559.5</ele>
        <time>2014-01-28T07:55:51Z</time>
      </trkpt>
      <trkpt lat="43.0321" lon="0.63127">
        <ele>560.74</ele>
        <time>2014-01-28T07:55:57Z</time>
      </trkpt>
      <trkpt lat="43.03213" lon="0.63132">
        <ele>559.65</ele>
        <time>2014-01-28T07:56:01Z</time>
      </trkpt>
      <trkpt lat="43.03216" lon="0.63138">
        <ele>561.41</ele>
        <time>2014-01-28T07:56:06Z</time>
      </trkpt>
      <trkpt lat="43.03218" lon="0.63144">
        <ele>563</ele>
        <time>2014-01-28T07:56:11Z</time>
      </trkpt>
      <trkpt lat="43.03221" lon="0.63149">
        <ele>563.74</ele>
        <time>2014-01-28T07:56:16Z</time>
      </trkpt>
      <trkpt lat="43.03222" lon="0.63156">
        <ele>566.04</ele>
        <time>2014-01-28T07:56:23Z</time>
      </trkpt>
      <trkpt lat="43.03223" lon="0.63163">
        <ele>564.38</ele>
        <time>2014-01-28T07:56:30Z</time>
      </trkpt>
      <trkpt lat="43.03225" lon="0.63168">
        <ele>566</ele>
        <time>2014-01-28T07:56:36Z</time>
      </trkpt>
      <trkpt lat="43.03228" lon="0.63174">
        <ele>565.16</ele>
        <time>2014-01-28T07:56:42Z</time>
      </trkpt>
      <trkpt lat="43.0323" lon="0.63179">
        <ele>563.91</ele>
        <time>2014-01-28T07:56:47Z</time>
      </trkpt>
      <trkpt lat="43.03231" lon="0.63185">
        <ele>563.76</ele>
        <time>2014-01-28T07:56:53Z</time>
      </trkpt>
      <trkpt lat="43.03235" lon="0.63189">
        <ele>565.1</ele>
        <time>2014-01-28T07:56:59Z</time>
      </trkpt>
      <trkpt lat="43.03237" lon="0.63195">
        <ele>565.56</ele>
        <time>2014-01-28T07:57:09Z</time>
      </trkpt>
      <trkpt lat="43.0324" lon="0.632">
        <ele>564.93</ele>
        <time>2014-01-28T07:57:14Z</time>
      </trkpt>
      <trkpt lat="43.03243" lon="0.63204">
        <ele>565.21</ele>
        <time>2014-01-28T07:57:19Z</time>
      </trkpt>
      <trkpt lat="43.03245" lon="0.6321">
        <ele>565.5</ele>
        <time>2014-01-28T07:57:24Z</time>
      </trkpt>
      <trkpt lat="43.03248" lon="0.63216">
        <ele>566.21</ele>
        <time>2014-01-28T07:57:29Z</time>
      </trkpt>
      <trkpt lat="43.03249" lon="0.63222">
        <ele>565.31</ele>
        <time>2014-01-28T07:57:35Z</time>
      </trkpt>
      <trkpt lat="43.03251" lon="0.63228">
        <ele>566.5</ele>
        <time>2014-01-28T07:57:42Z</time>
      </trkpt>
      <trkpt lat="43.03252" lon="0.63235">
        <ele>568.32</ele>
        <time>2014-01-28T07:57:48Z</time>
      </trkpt>
      <trkpt lat="43.03254" lon="0.63241">
        <ele>568.64</ele>
        <time>2014-01-28T07:57:55Z</time>
      </trkpt>
      <trkpt lat="43.03255" lon="0.63247">
        <ele>569.41</ele>
        <time>2014-01-28T07:58:01Z</time>
      </trkpt>
      <trkpt lat="43.03253" lon="0.63254">
        <ele>568.53</ele>
        <time>2014-01-28T07:58:07Z</time>
      </trkpt>
      <trkpt lat="43.03254" lon="0.6326">
        <ele>569.89</ele>
        <time>2014-01-28T07:58:14Z</time>
      </trkpt>
      <trkpt lat="43.03254" lon="0.63266">
        <ele>572.3</ele>
        <time>2014-01-28T07:58:22Z</time>
      </trkpt>
      <trkpt lat="43.03256" lon="0.63273">
        <ele>572.44</ele>
        <time>2014-01-28T07:58:30Z</time>
      </trkpt>
      <trkpt lat="43.03258" lon="0.63278">
        <ele>575.92</ele>
        <time>2014-01-28T08:00:01Z</time>
      </trkpt>
      <trkpt lat="43.0326" lon="0.63284">
        <ele>577.36</ele>
        <time>2014-01-28T08:00:18Z</time>
      </trkpt>
      <trkpt lat="43.03262" lon="0.6329">
        <ele>578.08</ele>
        <time>2014-01-28T08:00:25Z</time>
      </trkpt>
      <trkpt lat="43.03263" lon="0.63297">
        <ele>575.06</ele>
        <time>2014-01-28T08:00:29Z</time>
      </trkpt>
      <trkpt lat="43.03265" lon="0.63303">
        <ele>575.53</ele>
        <time>2014-01-28T08:00:32Z</time>
      </trkpt>
      <trkpt lat="43.03266" lon="0.63311">
        <ele>573.09</ele>
        <time>2014-01-28T08:00:38Z</time>
      </trkpt>
      <trkpt lat="43.03266" lon="0.63318">
        <ele>569.4</ele>
        <time>2014-01-28T08:00:42Z</time>
      </trkpt>
      <trkpt lat="43.03267" lon="0.63325">
        <ele>570.67</ele>
        <time>2014-01-28T08:00:46Z</time>
      </trkpt>
      <trkpt lat="43.03268" lon="0.63332">
        <ele>571.9</ele>
        <time>2014-01-28T08:00:53Z</time>
      </trkpt>
      <trkpt lat="43.03269" lon="0.63338">
        <ele>575.49</ele>
        <time>2014-01-28T08:00:58Z</time>
      </trkpt>
      <trkpt lat="43.03271" lon="0.63344">
        <ele>576.49</ele>
        <time>2014-01-28T08:01:03Z</time>
      </trkpt>
      <trkpt lat="43.03271" lon="0.63351">
        <ele>575.52</ele>
        <time>2014-01-28T08:01:08Z</time>
      </trkpt>
      <trkpt lat="43.03273" lon="0.63358">
        <ele>576.13</ele>
        <time>2014-01-28T08:01:14Z</time>
      </trkpt>
      <trkpt lat="43.03274" lon="0.63365">
        <ele>576.64</ele>
        <time>2014-01-28T08:01:20Z</time>
      </trkpt>
      <trkpt lat="43.03276" lon="0.63371">
        <ele>577.05</ele>
        <time>2014-01-28T08:01:25Z</time>
      </trkpt>
      <trkpt lat="43.03278" lon="0.63378">
        <ele>575.87</ele>
        <time>2014-01-28T08:01:30Z</time>
      </trkpt>
      <trkpt lat="43.0328" lon="0.63385">
        <ele>576.67</ele>
        <time>2014-01-28T08:01:35Z</time>
      </trkpt>
      <trkpt lat="43.03281" lon="0.63391">
        <ele>577.42</ele>
        <time>2014-01-28T08:01:40Z</time>
      </trkpt>
      <trkpt lat="43.03284" lon="0.63397">
        <ele>579.52</ele>
        <time>2014-01-28T08:01:45Z</time>
      </trkpt>
      <trkpt lat="43.03286" lon="0.63403">
        <ele>581.15</ele>
        <time>2014-01-28T08:01:50Z</time>
      </trkpt>
      <trkpt lat="43.03289" lon="0.63409">
        <ele>580.91</ele>
        <time>2014-01-28T08:01:56Z</time>
      </trkpt>
      <trkpt lat="43.03291" lon="0.63415">
        <ele>580.37</ele>
        <time>2014-01-28T08:02:01Z</time>
      </trkpt>
      <trkpt lat="43.03294" lon="0.6342">
        <ele>580.85</ele>
        <time>2014-01-28T08:02:06Z</time>
      </trkpt>
      <trkpt lat="43.03297" lon="0.63426">
        <ele>583.09</ele>
        <time>2014-01-28T08:02:11Z</time>
      </trkpt>
      <trkpt lat="43.03299" lon="0.63432">
        <ele>585.6</ele>
        <time>2014-01-28T08:02:16Z</time>
      </trkpt>
      <trkpt lat="43.033" lon="0.63439">
        <ele>584.84</ele>
        <time>2014-01-28T08:02:22Z</time>
      </trkpt>
      <trkpt lat="43.03301" lon="0.63446">
        <ele>584.96</ele>
        <time>2014-01-28T08:02:27Z</time>
      </trkpt>
      <trkpt lat="43.03302" lon="0.63453">
        <ele>586.37</ele>
        <time>2014-01-28T08:02:32Z</time>
      </trkpt>
      <trkpt lat="43.03304" lon="0.6346">
        <ele>588.09</ele>
        <time>2014-01-28T08:02:37Z</time>
      </trkpt>
      <trkpt lat="43.03306" lon="0.63465">
        <ele>589.05</ele>
        <time>2014-01-28T08:02:42Z</time>
      </trkpt>
      <trkpt lat="43.03309" lon="0.6347">
        <ele>588.44</ele>
        <time>2014-01-28T08:02:47Z</time>
      </trkpt>
      <trkpt lat="43.03308" lon="0.63477">
        <ele>586.58</ele>
        <time>2014-01-28T08:02:52Z</time>
      </trkpt>
      <trkpt lat="43.0331" lon="0.63484">
        <ele>588.63</ele>
        <time>2014-01-28T08:02:57Z</time>
      </trkpt>
      <trkpt lat="43.03311" lon="0.6349">
        <ele>588.81</ele>
        <time>2014-01-28T08:03:05Z</time>
      </trkpt>
      <trkpt lat="43.03313" lon="0.63496">
        <ele>587.5</ele>
        <time>2014-01-28T08:03:10Z</time>
      </trkpt>
      <trkpt lat="43.03316" lon="0.63501">
        <ele>588.59</ele>
        <time>2014-01-28T08:03:14Z</time>
      </trkpt>
      <trkpt lat="43.03316" lon="0.63509">
        <ele>586.72</ele>
        <time>2014-01-28T08:03:19Z</time>
      </trkpt>
      <trkpt lat="43.03315" lon="0.63515">
        <ele>586.84</ele>
        <time>2014-01-28T08:03:24Z</time>
      </trkpt>
      <trkpt lat="43.03315" lon="0.63521">
        <ele>591.85</ele>
        <time>2014-01-28T08:03:47Z</time>
      </trkpt>
      <trkpt lat="43.0331" lon="0.63521">
        <ele>595.4</ele>
        <time>2014-01-28T08:04:14Z</time>
      </trkpt>
      <trkpt lat="43.03307" lon="0.63525">
        <ele>594.59</ele>
        <time>2014-01-28T08:04:44Z</time>
      </trkpt>
      <trkpt lat="43.03307" lon="0.63532">
        <ele>593.21</ele>
        <time>2014-01-28T08:04:55Z</time>
      </trkpt>
      <trkpt lat="43.03308" lon="0.63539">
        <ele>594.17</ele>
        <time>2014-01-28T08:05:10Z</time>
      </trkpt>
      <trkpt lat="43.03309" lon="0.63546">
        <ele>593.55</ele>
        <time>2014-01-28T08:05:13Z</time>
      </trkpt>
      <trkpt lat="43.0331" lon="0.63553">
        <ele>592.35</ele>
        <time>2014-01-28T08:05:16Z</time>
      </trkpt>
      <trkpt lat="43.03311" lon="0.6356">
        <ele>592.33</ele>
        <time>2014-01-28T08:05:20Z</time>
      </trkpt>
      <trkpt lat="43.03313" lon="0.63566">
        <ele>594.46</ele>
        <time>2014-01-28T08:05:24Z</time>
      </trkpt>
      <trkpt lat="43.03313" lon="0.63573">
        <ele>594.11</ele>
        <time>2014-01-28T08:05:29Z</time>
      </trkpt>
      <trkpt lat="43.03313" lon="0.6358">
        <ele>595.45</ele>
        <time>2014-01-28T08:05:35Z</time>
      </trkpt>
      <trkpt lat="43.03314" lon="0.63586">
        <ele>597.4</ele>
        <time>2014-01-28T08:05:40Z</time>
      </trkpt>
      <trkpt lat="43.03315" lon="0.63593">
        <ele>598.23</ele>
        <time>2014-01-28T08:05:46Z</time>
      </trkpt>
      <trkpt lat="43.03314" lon="0.63599">
        <ele>601</ele>
        <time>2014-01-28T08:05:52Z</time>
      </trkpt>
      <trkpt lat="43.03315" lon="0.63606">
        <ele>601.29</ele>
        <time>2014-01-28T08:05:58Z</time>
      </trkpt>
      <trkpt lat="43.03318" lon="0.63612">
        <ele>598.12</ele>
        <time>2014-01-28T08:06:13Z</time>
      </trkpt>
      <trkpt lat="43.0332" lon="0.63619">
        <ele>596.03</ele>
        <time>2014-01-28T08:06:17Z</time>
      </trkpt>
      <trkpt lat="43.03323" lon="0.63625">
        <ele>595.1</ele>
        <time>2014-01-28T08:06:20Z</time>
      </trkpt>
      <trkpt lat="43.03325" lon="0.6363">
        <ele>595.98</ele>
        <time>2014-01-28T08:06:30Z</time>
      </trkpt>
      <trkpt lat="43.03328" lon="0.63636">
        <ele>598.15</ele>
        <time>2014-01-28T08:06:38Z</time>
      </trkpt>
      <trkpt lat="43.0333" lon="0.63641">
        <ele>601.99</ele>
        <time>2014-01-28T08:06:55Z</time>
      </trkpt>
      <trkpt lat="43.03333" lon="0.63646">
        <ele>599.52</ele>
        <time>2014-01-28T08:10:45Z</time>
      </trkpt>
      <trkpt lat="43.03337" lon="0.6365">
        <ele>596.47</ele>
        <time>2014-01-28T08:12:11Z</time>
      </trkpt>
      <trkpt lat="43.0334" lon="0.63655">
        <ele>599.58</ele>
        <time>2014-01-28T08:15:11Z</time>
      </trkpt>
      <trkpt lat="43.0334" lon="0.63661">
        <ele>602.87</ele>
        <time>2014-01-28T08:15:38Z</time>
      </trkpt>
      <trkpt lat="43.03339" lon="0.63668">
        <ele>605.2</ele>
        <time>2014-01-28T08:15:45Z</time>
      </trkpt>
      <trkpt lat="43.03339" lon="0.63674">
        <ele>604.22</ele>
        <time>2014-01-28T08:16:35Z</time>
      </trkpt>
      <trkpt lat="43.03344" lon="0.63673">
        <ele>603.08</ele>
        <time>2014-01-28T08:17:52Z</time>
      </trkpt>
      <trkpt lat="43.03345" lon="0.63666">
        <ele>600.49</ele>
        <time>2014-01-28T08:17:56Z</time>
      </trkpt>
      <trkpt lat="43.03346" lon="0.63659">
        <ele>601.77</ele>
        <time>2014-01-28T08:18:00Z</time>
      </trkpt>
      <trkpt lat="43.03343" lon="0.63655">
        <ele>601.85</ele>
        <time>2014-01-28T08:18:04Z</time>
      </trkpt>
      <trkpt lat="43.03341" lon="0.63648">
        <ele>601.79</ele>
        <time>2014-01-28T08:18:09Z</time>
      </trkpt>
      <trkpt lat="43.03339" lon="0.63642">
        <ele>602.17</ele>
        <time>2014-01-28T08:18:20Z</time>
      </trkpt>
      <trkpt lat="43.03337" lon="0.63637">
        <ele>603.5</ele>
        <time>2014-01-28T08:18:31Z</time>
      </trkpt>
      <trkpt lat="43.03334" lon="0.6363">
        <ele>603.97</ele>
        <time>2014-01-28T08:18:38Z</time>
      </trkpt>
      <trkpt lat="43.03332" lon="0.63625">
        <ele>605.41</ele>
        <time>2014-01-28T08:18:43Z</time>
      </trkpt>
      <trkpt lat="43.03331" lon="0.63618">
        <ele>606.64</ele>
        <time>2014-01-28T08:18:49Z</time>
      </trkpt>
      <trkpt lat="43.0333" lon="0.63612">
        <ele>607.53</ele>
        <time>2014-01-28T08:19:14Z</time>
      </trkpt>
      <trkpt lat="43.0333" lon="0.63605">
        <ele>608.1</ele>
        <time>2014-01-28T08:19:19Z</time>
      </trkpt>
      <trkpt lat="43.03328" lon="0.63598">
        <ele>607.83</ele>
        <time>2014-01-28T08:19:23Z</time>
      </trkpt>
      <trkpt lat="43.03327" lon="0.6359">
        <ele>607.45</ele>
        <time>2014-01-28T08:19:27Z</time>
      </trkpt>
      <trkpt lat="43.03325" lon="0.63585">
        <ele>607.22</ele>
        <time>2014-01-28T08:19:36Z</time>
      </trkpt>
      <trkpt lat="43.03324" lon="0.63579">
        <ele>606.33</ele>
        <time>2014-01-28T08:19:46Z</time>
      </trkpt>
      <trkpt lat="43.03321" lon="0.63572">
        <ele>604.48</ele>
        <time>2014-01-28T08:19:50Z</time>
      </trkpt>
      <trkpt lat="43.03319" lon="0.63565">
        <ele>603.68</ele>
        <time>2014-01-28T08:19:54Z</time>
      </trkpt>
      <trkpt lat="43.03317" lon="0.63559">
        <ele>603.99</ele>
        <time>2014-01-28T08:19:57Z</time>
      </trkpt>
      <trkpt lat="43.03315" lon="0.63553">
        <ele>605.23</ele>
        <time>2014-01-28T08:20:00Z</time>
      </trkpt>
      <trkpt lat="43.03314" lon="0.63546">
        <ele>605.28</ele>
        <time>2014-01-28T08:20:04Z</time>
      </trkpt>
      <trkpt lat="43.03314" lon="0.63539">
        <ele>605.98</ele>
        <time>2014-01-28T08:20:07Z</time>
      </trkpt>
      <trkpt lat="43.03311" lon="0.63533">
        <ele>606.29</ele>
        <time>2014-01-28T08:20:11Z</time>
      </trkpt>
      <trkpt lat="43.0331" lon="0.63526">
        <ele>607.49</ele>
        <time>2014-01-28T08:20:15Z</time>
      </trkpt>
      <trkpt lat="43.03309" lon="0.6352">
        <ele>608.91</ele>
        <time>2014-01-28T08:20:19Z</time>
      </trkpt>
      <trkpt lat="43.03306" lon="0.63514">
        <ele>608.25</ele>
        <time>2014-01-28T08:20:25Z</time>
      </trkpt>
      <trkpt lat="43.03307" lon="0.63507">
        <ele>609.1</ele>
        <time>2014-01-28T08:20:33Z</time>
      </trkpt>
      <trkpt lat="43.03307" lon="0.635">
        <ele>609.28</ele>
        <time>2014-01-28T08:20:42Z</time>
      </trkpt>
      <trkpt lat="43.03305" lon="0.63493">
        <ele>607.58</ele>
        <time>2014-01-28T08:20:47Z</time>
      </trkpt>
      <trkpt lat="43.03303" lon="0.63487">
        <ele>605.64</ele>
        <time>2014-01-28T08:20:52Z</time>
      </trkpt>
      <trkpt lat="43.033" lon="0.63483">
        <ele>607</ele>
        <time>2014-01-28T08:20:56Z</time>
      </trkpt>
      <trkpt lat="43.03297" lon="0.63477">
        <ele>609.39</ele>
        <time>2014-01-28T08:21:01Z</time>
      </trkpt>
      <trkpt lat="43.03295" lon="0.63472">
        <ele>610.99</ele>
        <time>2014-01-28T08:21:05Z</time>
      </trkpt>
      <trkpt lat="43.03291" lon="0.63466">
        <ele>610.74</ele>
        <time>2014-01-28T08:21:09Z</time>
      </trkpt>
      <trkpt lat="43.03288" lon="0.63461">
        <ele>607.88</ele>
        <time>2014-01-28T08:21:25Z</time>
      </trkpt>
      <trkpt lat="43.03284" lon="0.63458">
        <ele>610.16</ele>
        <time>2014-01-28T08:21:55Z</time>
      </trkpt>
      <trkpt lat="43.0328" lon="0.63464">
        <ele>611.83</ele>
        <time>2014-01-28T08:22:30Z</time>
      </trkpt>
      <trkpt lat="43.03277" lon="0.63468">
        <ele>612.25</ele>
        <time>2014-01-28T08:22:37Z</time>
      </trkpt>
      <trkpt lat="43.03272" lon="0.63472">
        <ele>612.42</ele>
        <time>2014-01-28T08:22:44Z</time>
      </trkpt>
      <trkpt lat="43.03269" lon="0.63477">
        <ele>614.31</ele>
        <time>2014-01-28T08:23:00Z</time>
      </trkpt>
      <trkpt lat="43.03266" lon="0.63482">
        <ele>617.84</ele>
        <time>2014-01-28T08:23:09Z</time>
      </trkpt>
      <trkpt lat="43.03263" lon="0.63487">
        <ele>618.47</ele>
        <time>2014-01-28T08:23:14Z</time>
      </trkpt>
      <trkpt lat="43.03262" lon="0.63493">
        <ele>618.31</ele>
        <time>2014-01-28T08:23:29Z</time>
      </trkpt>
      <trkpt lat="43.0326" lon="0.63499">
        <ele>620.3</ele>
        <time>2014-01-28T08:23:42Z</time>
      </trkpt>
      <trkpt lat="43.0326" lon="0.63506">
        <ele>622.02</ele>
        <time>2014-01-28T08:23:49Z</time>
      </trkpt>
      <trkpt lat="43.03259" lon="0.63512">
        <ele>623.54</ele>
        <time>2014-01-28T08:23:57Z</time>
      </trkpt>
      <trkpt lat="43.03257" lon="0.63518">
        <ele>623.4</ele>
        <time>2014-01-28T08:24:04Z</time>
      </trkpt>
      <trkpt lat="43.03256" lon="0.63524">
        <ele>625.99</ele>
        <time>2014-01-28T08:24:24Z</time>
      </trkpt>
      <trkpt lat="43.03254" lon="0.63531">
        <ele>627.59</ele>
        <time>2014-01-28T08:24:35Z</time>
      </trkpt>
      <trkpt lat="43.03252" lon="0.63537">
        <ele>626.26</ele>
        <time>2014-01-28T08:24:40Z</time>
      </trkpt>
      <trkpt lat="43.03252" lon="0.63543">
        <ele>623.18</ele>
        <time>2014-01-28T08:24:53Z</time>
      </trkpt>
      <trkpt lat="43.03252" lon="0.63549">
        <ele>625.4</ele>
        <time>2014-01-28T08:25:13Z</time>
      </trkpt>
      <trkpt lat="43.03252" lon="0.63556">
        <ele>627.49</ele>
        <time>2014-01-28T08:25:20Z</time>
      </trkpt>
      <trkpt lat="43.0325" lon="0.63562">
        <ele>630.83</ele>
        <time>2014-01-28T08:25:35Z</time>
      </trkpt>
      <trkpt lat="43.0325" lon="0.63568">
        <ele>630.21</ele>
        <time>2014-01-28T08:26:00Z</time>
      </trkpt>
      <trkpt lat="43.03249" lon="0.63574">
        <ele>630.61</ele>
        <time>2014-01-28T08:26:32Z</time>
      </trkpt>
      <trkpt lat="43.03249" lon="0.6358">
        <ele>630.64</ele>
        <time>2014-01-28T08:26:40Z</time>
      </trkpt>
      <trkpt lat="43.03249" lon="0.63588">
        <ele>632.18</ele>
        <time>2014-01-28T08:26:50Z</time>
      </trkpt>
      <trkpt lat="43.0325" lon="0.63594">
        <ele>633.71</ele>
        <time>2014-01-28T08:26:55Z</time>
      </trkpt>
      <trkpt lat="43.0325" lon="0.63602">
        <ele>633.04</ele>
        <time>2014-01-28T08:27:06Z</time>
      </trkpt>
      <trkpt lat="43.03249" lon="0.63609">
        <ele>637.34</ele>
        <time>2014-01-28T08:27:11Z</time>
      </trkpt>
      <trkpt lat="43.03249" lon="0.63616">
        <ele>639.36</ele>
        <time>2014-01-28T08:27:18Z</time>
      </trkpt>
      <trkpt lat="43.03248" lon="0.63623">
        <ele>638.52</ele>
        <time>2014-01-28T08:27:30Z</time>
      </trkpt>
      <trkpt lat="43.03248" lon="0.63629">
        <ele>638.65</ele>
        <time>2014-01-28T08:27:33Z</time>
      </trkpt>
      <trkpt lat="43.03248" lon="0.63636">
        <ele>639.05</ele>
        <time>2014-01-28T08:27:36Z</time>
      </trkpt>
      <trkpt lat="43.03248" lon="0.63643">
        <ele>638.89</ele>
        <time>2014-01-28T08:27:39Z</time>
      </trkpt>
      <trkpt lat="43.0325" lon="0.6365">
        <ele>641.66</ele>
        <time>2014-01-28T08:27:43Z</time>
      </trkpt>
      <trkpt lat="43.0325" lon="0.63657">
        <ele>643.47</ele>
        <time>2014-01-28T08:27:47Z</time>
      </trkpt>
      <trkpt lat="43.03249" lon="0.63663">
        <ele>643.4</ele>
        <time>2014-01-28T08:27:51Z</time>
      </trkpt>
      <trkpt lat="43.03249" lon="0.63669">
        <ele>643.57</ele>
        <time>2014-01-28T08:27:55Z</time>
      </trkpt>
      <trkpt lat="43.03249" lon="0.63676">
        <ele>644.03</ele>
        <time>2014-01-28T08:28:00Z</time>
      </trkpt>
      <trkpt lat="43.03249" lon="0.63683">
        <ele>646.66</ele>
        <time>2014-01-28T08:28:07Z</time>
      </trkpt>
      <trkpt lat="43.0325" lon="0.6369">
        <ele>647.06</ele>
        <time>2014-01-28T08:28:13Z</time>
      </trkpt>
      <trkpt lat="43.03248" lon="0.63696">
        <ele>648.02</ele>
        <time>2014-01-28T08:28:19Z</time>
      </trkpt>
      <trkpt lat="43.03246" lon="0.63701">
        <ele>646.54</ele>
        <time>2014-01-28T08:28:24Z</time>
      </trkpt>
      <trkpt lat="43.03246" lon="0.63708">
        <ele>646.72</ele>
        <time>2014-01-28T08:28:30Z</time>
      </trkpt>
      <trkpt lat="43.03245" lon="0.63714">
        <ele>649.28</ele>
        <time>2014-01-28T08:28:55Z</time>
      </trkpt>
      <trkpt lat="43.03244" lon="0.63721">
        <ele>649.29</ele>
        <time>2014-01-28T08:28:59Z</time>
      </trkpt>
      <trkpt lat="43.03243" lon="0.63729">
        <ele>649.04</ele>
        <time>2014-01-28T08:29:03Z</time>
      </trkpt>
      <trkpt lat="43.03242" lon="0.63736">
        <ele>649.57</ele>
        <time>2014-01-28T08:29:07Z</time>
      </trkpt>
      <trkpt lat="43.03242" lon="0.63743">
        <ele>651.27</ele>
        <time>2014-01-28T08:29:12Z</time>
      </trkpt>
      <trkpt lat="43.03241" lon="0.63749">
        <ele>652.23</ele>
        <time>2014-01-28T08:29:24Z</time>
      </trkpt>
      <trkpt lat="43.03241" lon="0.63756">
        <ele>651.26</ele>
        <time>2014-01-28T08:29:37Z</time>
      </trkpt>
      <trkpt lat="43.03241" lon="0.63763">
        <ele>651.36</ele>
        <time>2014-01-28T08:29:42Z</time>
      </trkpt>
      <trkpt lat="43.03241" lon="0.63769">
        <ele>652.16</ele>
        <time>2014-01-28T08:29:47Z</time>
      </trkpt>
      <trkpt lat="43.03239" lon="0.63777">
        <ele>654.21</ele>
        <time>2014-01-28T08:29:56Z</time>
      </trkpt>
      <trkpt lat="43.03239" lon="0.63783">
        <ele>655.66</ele>
        <time>2014-01-28T08:30:01Z</time>
      </trkpt>
      <trkpt lat="43.03239" lon="0.6379">
        <ele>656.16</ele>
        <time>2014-01-28T08:30:10Z</time>
      </trkpt>
      <trkpt lat="43.03239" lon="0.63796">
        <ele>656.65</ele>
        <time>2014-01-28T08:30:31Z</time>
      </trkpt>
      <trkpt lat="43.03238" lon="0.63804">
        <ele>656.06</ele>
        <time>2014-01-28T08:30:35Z</time>
      </trkpt>
      <trkpt lat="43.03239" lon="0.63811">
        <ele>656.92</ele>
        <time>2014-01-28T08:30:39Z</time>
      </trkpt>
      <trkpt lat="43.0324" lon="0.63819">
        <ele>656.73</ele>
        <time>2014-01-28T08:30:43Z</time>
      </trkpt>
      <trkpt lat="43.03238" lon="0.63824">
        <ele>657.31</ele>
        <time>2014-01-28T08:30:47Z</time>
      </trkpt>
      <trkpt lat="43.03238" lon="0.6383">
        <ele>656.66</ele>
        <time>2014-01-28T08:30:51Z</time>
      </trkpt>
      <trkpt lat="43.03238" lon="0.63836">
        <ele>655.36</ele>
        <time>2014-01-28T08:30:55Z</time>
      </trkpt>
      <trkpt lat="43.03239" lon="0.63843">
        <ele>654.59</ele>
        <time>2014-01-28T08:30:59Z</time>
      </trkpt>
      <trkpt lat="43.03239" lon="0.6385">
        <ele>655.75</ele>
        <time>2014-01-28T08:31:04Z</time>
      </trkpt>
      <trkpt lat="43.03241" lon="0.63857">
        <ele>656.29</ele>
        <time>2014-01-28T08:31:10Z</time>
      </trkpt>
      <trkpt lat="43.0324" lon="0.63863">
        <ele>656.47</ele>
        <time>2014-01-28T08:31:15Z</time>
      </trkpt>
      <trkpt lat="43.03242" lon="0.6387">
        <ele>660.22</ele>
        <time>2014-01-28T08:31:21Z</time>
      </trkpt>
      <trkpt lat="43.0324" lon="0.63876">
        <ele>662.59</ele>
        <time>2014-01-28T08:31:27Z</time>
      </trkpt>
      <trkpt lat="43.0324" lon="0.63883">
        <ele>668.4</ele>
        <time>2014-01-28T08:31:35Z</time>
      </trkpt>
      <trkpt lat="43.03238" lon="0.63889">
        <ele>667.55</ele>
        <time>2014-01-28T08:31:41Z</time>
      </trkpt>
      <trkpt lat="43.03236" lon="0.63895">
        <ele>668.18</ele>
        <time>2014-01-28T08:31:47Z</time>
      </trkpt>
      <trkpt lat="43.03236" lon="0.63902">
        <ele>668.14</ele>
        <time>2014-01-28T08:31:54Z</time>
      </trkpt>
      <trkpt lat="43.03236" lon="0.63908">
        <ele>667.53</ele>
        <time>2014-01-28T08:32:05Z</time>
      </trkpt>
      <trkpt lat="43.03236" lon="0.63915">
        <ele>666.85</ele>
        <time>2014-01-28T08:32:23Z</time>
      </trkpt>
      <trkpt lat="43.03239" lon="0.63921">
        <ele>668</ele>
        <time>2014-01-28T08:32:28Z</time>
      </trkpt>
      <trkpt lat="43.03238" lon="0.63928">
        <ele>671.4</ele>
        <time>2014-01-28T08:32:33Z</time>
      </trkpt>
      <trkpt lat="43.03236" lon="0.63934">
        <ele>671.64</ele>
        <time>2014-01-28T08:32:37Z</time>
      </trkpt>
      <trkpt lat="43.03238" lon="0.6394">
        <ele>673.91</ele>
        <time>2014-01-28T08:32:44Z</time>
      </trkpt>
      <trkpt lat="43.03237" lon="0.63947">
        <ele>674.46</ele>
        <time>2014-01-28T08:32:50Z</time>
      </trkpt>
      <trkpt lat="43.03235" lon="0.63953">
        <ele>674.39</ele>
        <time>2014-01-28T08:32:54Z</time>
      </trkpt>
      <trkpt lat="43.03234" lon="0.6396">
        <ele>673.62</ele>
        <time>2014-01-28T08:32:59Z</time>
      </trkpt>
      <trkpt lat="43.03234" lon="0.63966">
        <ele>675.64</ele>
        <time>2014-01-28T08:33:04Z</time>
      </trkpt>
      <trkpt lat="43.03231" lon="0.63972">
        <ele>675.79</ele>
        <time>2014-01-28T08:33:10Z</time>
      </trkpt>
      <trkpt lat="43.03229" lon="0.63979">
        <ele>675.76</ele>
        <time>2014-01-28T08:33:16Z</time>
      </trkpt>
      <trkpt lat="43.03226" lon="0.63983">
        <ele>675.13</ele>
        <time>2014-01-28T08:33:21Z</time>
      </trkpt>
      <trkpt lat="43.03226" lon="0.6399">
        <ele>676.25</ele>
        <time>2014-01-28T08:33:28Z</time>
      </trkpt>
      <trkpt lat="43.03226" lon="0.63997">
        <ele>677.55</ele>
        <time>2014-01-28T08:33:48Z</time>
      </trkpt>
      <trkpt lat="43.03226" lon="0.64003">
        <ele>677.7</ele>
        <time>2014-01-28T08:33:57Z</time>
      </trkpt>
      <trkpt lat="43.03224" lon="0.6401">
        <ele>678.94</ele>
        <time>2014-01-28T08:34:08Z</time>
      </trkpt>
      <trkpt lat="43.03226" lon="0.64016">
        <ele>682.77</ele>
        <time>2014-01-28T08:34:12Z</time>
      </trkpt>
      <trkpt lat="43.03226" lon="0.64023">
        <ele>685.14</ele>
        <time>2014-01-28T08:34:17Z</time>
      </trkpt>
      <trkpt lat="43.03226" lon="0.64029">
        <ele>686.15</ele>
        <time>2014-01-28T08:34:26Z</time>
      </trkpt>
      <trkpt lat="43.03225" lon="0.64037">
        <ele>683.02</ele>
        <time>2014-01-28T08:34:31Z</time>
      </trkpt>
      <trkpt lat="43.03225" lon="0.64044">
        <ele>682.16</ele>
        <time>2014-01-28T08:34:35Z</time>
      </trkpt>
      <trkpt lat="43.03225" lon="0.6405">
        <ele>683.54</ele>
        <time>2014-01-28T08:34:39Z</time>
      </trkpt>
      <trkpt lat="43.03225" lon="0.64057">
        <ele>684.77</ele>
        <time>2014-01-28T08:34:49Z</time>
      </trkpt>
      <trkpt lat="43.03222" lon="0.64062">
        <ele>682.42</ele>
        <time>2014-01-28T08:34:54Z</time>
      </trkpt>
      <trkpt lat="43.03221" lon="0.64068">
        <ele>681.32</ele>
        <time>2014-01-28T08:35:00Z</time>
      </trkpt>
      <trkpt lat="43.0322" lon="0.64075">
        <ele>683.33</ele>
        <time>2014-01-28T08:35:19Z</time>
      </trkpt>
      <trkpt lat="43.0322" lon="0.64082">
        <ele>685.55</ele>
        <time>2014-01-28T08:35:23Z</time>
      </trkpt>
      <trkpt lat="43.0322" lon="0.64089">
        <ele>685.53</ele>
        <time>2014-01-28T08:35:27Z</time>
      </trkpt>
      <trkpt lat="43.0322" lon="0.64095">
        <ele>685.15</ele>
        <time>2014-01-28T08:35:32Z</time>
      </trkpt>
      <trkpt lat="43.03221" lon="0.64101">
        <ele>683.48</ele>
        <time>2014-01-28T08:35:40Z</time>
      </trkpt>
      <trkpt lat="43.03222" lon="0.64108">
        <ele>682.88</ele>
        <time>2014-01-28T08:35:46Z</time>
      </trkpt>
      <trkpt lat="43.03221" lon="0.64114">
        <ele>683.67</ele>
        <time>2014-01-28T08:35:50Z</time>
      </trkpt>
      <trkpt lat="43.03218" lon="0.6412">
        <ele>684.76</ele>
        <time>2014-01-28T08:35:55Z</time>
      </trkpt>
      <trkpt lat="43.03216" lon="0.64126">
        <ele>684.61</ele>
        <time>2014-01-28T08:36:00Z</time>
      </trkpt>
      <trkpt lat="43.03216" lon="0.64133">
        <ele>684.53</ele>
        <time>2014-01-28T08:36:05Z</time>
      </trkpt>
      <trkpt lat="43.03215" lon="0.64139">
        <ele>686.1</ele>
        <time>2014-01-28T08:36:10Z</time>
      </trkpt>
      <trkpt lat="43.03212" lon="0.64144">
        <ele>683.12</ele>
        <time>2014-01-28T08:36:15Z</time>
      </trkpt>
      <trkpt lat="43.03209" lon="0.64149">
        <ele>681.47</ele>
        <time>2014-01-28T08:36:20Z</time>
      </trkpt>
      <trkpt lat="43.03209" lon="0.64156">
        <ele>681.82</ele>
        <time>2014-01-28T08:36:25Z</time>
      </trkpt>
      <trkpt lat="43.03209" lon="0.64164">
        <ele>682.95</ele>
        <time>2014-01-28T08:36:30Z</time>
      </trkpt>
      <trkpt lat="43.03209" lon="0.64171">
        <ele>682.49</ele>
        <time>2014-01-28T08:36:36Z</time>
      </trkpt>
      <trkpt lat="43.03212" lon="0.64176">
        <ele>686.99</ele>
        <time>2014-01-28T08:36:42Z</time>
      </trkpt>
      <trkpt lat="43.03216" lon="0.6418">
        <ele>688.73</ele>
        <time>2014-01-28T08:36:48Z</time>
      </trkpt>
      <trkpt lat="43.03216" lon="0.64186">
        <ele>689.64</ele>
        <time>2014-01-28T08:36:53Z</time>
      </trkpt>
      <trkpt lat="43.03216" lon="0.64193">
        <ele>690.89</ele>
        <time>2014-01-28T08:37:00Z</time>
      </trkpt>
      <trkpt lat="43.03214" lon="0.64199">
        <ele>689.22</ele>
        <time>2014-01-28T08:37:05Z</time>
      </trkpt>
      <trkpt lat="43.03217" lon="0.64204">
        <ele>688.41</ele>
        <time>2014-01-28T08:37:11Z</time>
      </trkpt>
      <trkpt lat="43.03218" lon="0.6421">
        <ele>687.56</ele>
        <time>2014-01-28T08:37:17Z</time>
      </trkpt>
      <trkpt lat="43.03218" lon="0.64217">
        <ele>686.57</ele>
        <time>2014-01-28T08:37:22Z</time>
      </trkpt>
      <trkpt lat="43.03219" lon="0.64224">
        <ele>685.07</ele>
        <time>2014-01-28T08:37:28Z</time>
      </trkpt>
      <trkpt lat="43.03221" lon="0.64231">
        <ele>685.42</ele>
        <time>2014-01-28T08:37:33Z</time>
      </trkpt>
      <trkpt lat="43.03222" lon="0.64237">
        <ele>684.57</ele>
        <time>2014-01-28T08:37:38Z</time>
      </trkpt>
      <trkpt lat="43.03223" lon="0.64244">
        <ele>684</ele>
        <time>2014-01-28T08:37:43Z</time>
      </trkpt>
      <trkpt lat="43.03222" lon="0.64251">
        <ele>685.65</ele>
        <time>2014-01-28T08:37:47Z</time>
      </trkpt>
      <trkpt lat="43.03221" lon="0.64257">
        <ele>686.08</ele>
        <time>2014-01-28T08:37:51Z</time>
      </trkpt>
      <trkpt lat="43.0322" lon="0.64263">
        <ele>684.78</ele>
        <time>2014-01-28T08:37:56Z</time>
      </trkpt>
      <trkpt lat="43.03217" lon="0.6427">
        <ele>682.7</ele>
        <time>2014-01-28T08:38:01Z</time>
      </trkpt>
      <trkpt lat="43.03219" lon="0.64276">
        <ele>684.21</ele>
        <time>2014-01-28T08:38:06Z</time>
      </trkpt>
      <trkpt lat="43.03219" lon="0.64282">
        <ele>685.08</ele>
        <time>2014-01-28T08:38:23Z</time>
      </trkpt>
      <trkpt lat="43.03219" lon="0.64289">
        <ele>685.06</ele>
        <time>2014-01-28T08:38:27Z</time>
      </trkpt>
      <trkpt lat="43.03219" lon="0.64296">
        <ele>684.85</ele>
        <time>2014-01-28T08:38:31Z</time>
      </trkpt>
      <trkpt lat="43.03222" lon="0.64303">
        <ele>687.08</ele>
        <time>2014-01-28T08:38:36Z</time>
      </trkpt>
      <trkpt lat="43.03223" lon="0.6431">
        <ele>686.95</ele>
        <time>2014-01-28T08:38:41Z</time>
      </trkpt>
      <trkpt lat="43.03222" lon="0.64318">
        <ele>686.45</ele>
        <time>2014-01-28T08:38:45Z</time>
      </trkpt>
      <trkpt lat="43.03222" lon="0.64324">
        <ele>687.38</ele>
        <time>2014-01-28T08:38:49Z</time>
      </trkpt>
      <trkpt lat="43.03221" lon="0.64331">
        <ele>687.73</ele>
        <time>2014-01-28T08:39:08Z</time>
      </trkpt>
      <trkpt lat="43.03221" lon="0.64337">
        <ele>689.81</ele>
        <time>2014-01-28T08:39:13Z</time>
      </trkpt>
      <trkpt lat="43.03219" lon="0.64343">
        <ele>689.54</ele>
        <time>2014-01-28T08:39:17Z</time>
      </trkpt>
      <trkpt lat="43.03218" lon="0.64349">
        <ele>690</ele>
        <time>2014-01-28T08:39:21Z</time>
      </trkpt>
      <trkpt lat="43.03218" lon="0.64356">
        <ele>690.17</ele>
        <time>2014-01-28T08:39:26Z</time>
      </trkpt>
      <trkpt lat="43.03215" lon="0.64363">
        <ele>689.03</ele>
        <time>2014-01-28T08:39:31Z</time>
      </trkpt>
      <trkpt lat="43.03215" lon="0.6437">
        <ele>687.68</ele>
        <time>2014-01-28T08:39:35Z</time>
      </trkpt>
      <trkpt lat="43.03219" lon="0.64375">
        <ele>689.09</ele>
        <time>2014-01-28T08:39:40Z</time>
      </trkpt>
      <trkpt lat="43.0322" lon="0.64382">
        <ele>689.8</ele>
        <time>2014-01-28T08:39:46Z</time>
      </trkpt>
      <trkpt lat="43.03222" lon="0.64388">
        <ele>692.74</ele>
        <time>2014-01-28T08:39:53Z</time>
      </trkpt>
      <trkpt lat="43.0322" lon="0.64394">
        <ele>695.11</ele>
        <time>2014-01-28T08:40:01Z</time>
      </trkpt>
      <trkpt lat="43.03217" lon="0.644">
        <ele>694.42</ele>
        <time>2014-01-28T08:40:07Z</time>
      </trkpt>
      <trkpt lat="43.03217" lon="0.64407">
        <ele>694.71</ele>
        <time>2014-01-28T08:40:14Z</time>
      </trkpt>
      <trkpt lat="43.03216" lon="0.64413">
        <ele>694.57</ele>
        <time>2014-01-28T08:40:21Z</time>
      </trkpt>
      <trkpt lat="43.03213" lon="0.64419">
        <ele>691.61</ele>
        <time>2014-01-28T08:40:26Z</time>
      </trkpt>
      <trkpt lat="43.0321" lon="0.64424">
        <ele>691.86</ele>
        <time>2014-01-28T08:40:31Z</time>
      </trkpt>
      <trkpt lat="43.03209" lon="0.64431">
        <ele>692.7</ele>
        <time>2014-01-28T08:40:37Z</time>
      </trkpt>
      <trkpt lat="43.0321" lon="0.64437">
        <ele>694.33</ele>
        <time>2014-01-28T08:40:50Z</time>
      </trkpt>
      <trkpt lat="43.0321" lon="0.64444">
        <ele>695.27</ele>
        <time>2014-01-28T08:41:09Z</time>
      </trkpt>
      <trkpt lat="43.0321" lon="0.64452">
        <ele>694.79</ele>
        <time>2014-01-28T08:41:14Z</time>
      </trkpt>
      <trkpt lat="43.0321" lon="0.64459">
        <ele>694.48</ele>
        <time>2014-01-28T08:41:19Z</time>
      </trkpt>
      <trkpt lat="43.0321" lon="0.64465">
        <ele>693.89</ele>
        <time>2014-01-28T08:41:23Z</time>
      </trkpt>
      <trkpt lat="43.0321" lon="0.64472">
        <ele>693.26</ele>
        <time>2014-01-28T08:41:27Z</time>
      </trkpt>
      <trkpt lat="43.0321" lon="0.64479">
        <ele>695.44</ele>
        <time>2014-01-28T08:41:32Z</time>
      </trkpt>
      <trkpt lat="43.03211" lon="0.64485">
        <ele>694.3</ele>
        <time>2014-01-28T08:41:38Z</time>
      </trkpt>
      <trkpt lat="43.03212" lon="0.64492">
        <ele>694.96</ele>
        <time>2014-01-28T08:41:43Z</time>
      </trkpt>
      <trkpt lat="43.03213" lon="0.64498">
        <ele>695.98</ele>
        <time>2014-01-28T08:41:48Z</time>
      </trkpt>
      <trkpt lat="43.03216" lon="0.64503">
        <ele>698.27</ele>
        <time>2014-01-28T08:41:53Z</time>
      </trkpt>
      <trkpt lat="43.03218" lon="0.64509">
        <ele>699.57</ele>
        <time>2014-01-28T08:41:59Z</time>
      </trkpt>
      <trkpt lat="43.03219" lon="0.64516">
        <ele>699.49</ele>
        <time>2014-01-28T08:42:07Z</time>
      </trkpt>
      <trkpt lat="43.03219" lon="0.64522">
        <ele>699.47</ele>
        <time>2014-01-28T08:42:13Z</time>
      </trkpt>
      <trkpt lat="43.03218" lon="0.64528">
        <ele>699.59</ele>
        <time>2014-01-28T08:42:31Z</time>
      </trkpt>
      <trkpt lat="43.03217" lon="0.64535">
        <ele>700.82</ele>
        <time>2014-01-28T08:42:49Z</time>
      </trkpt>
      <trkpt lat="43.03219" lon="0.64541">
        <ele>699.93</ele>
        <time>2014-01-28T08:42:55Z</time>
      </trkpt>
      <trkpt lat="43.0322" lon="0.64548">
        <ele>700.59</ele>
        <time>2014-01-28T08:43:10Z</time>
      </trkpt>
      <trkpt lat="43.03221" lon="0.64554">
        <ele>698.25</ele>
        <time>2014-01-28T08:43:15Z</time>
      </trkpt>
      <trkpt lat="43.03221" lon="0.64561">
        <ele>697.98</ele>
        <time>2014-01-28T08:43:19Z</time>
      </trkpt>
      <trkpt lat="43.0322" lon="0.64568">
        <ele>698.11</ele>
        <time>2014-01-28T08:43:23Z</time>
      </trkpt>
      <trkpt lat="43.0322" lon="0.64575">
        <ele>698.91</ele>
        <time>2014-01-28T08:43:27Z</time>
      </trkpt>
      <trkpt lat="43.03221" lon="0.64582">
        <ele>699.93</ele>
        <time>2014-01-28T08:43:31Z</time>
      </trkpt>
      <trkpt lat="43.03222" lon="0.64588">
        <ele>701.31</ele>
        <time>2014-01-28T08:43:37Z</time>
      </trkpt>
      <trkpt lat="43.03223" lon="0.64595">
        <ele>703.13</ele>
        <time>2014-01-28T08:43:53Z</time>
      </trkpt>
      <trkpt lat="43.03223" lon="0.64602">
        <ele>702.03</ele>
        <time>2014-01-28T08:43:58Z</time>
      </trkpt>
      <trkpt lat="43.03222" lon="0.64609">
        <ele>701.39</ele>
        <time>2014-01-28T08:44:02Z</time>
      </trkpt>
      <trkpt lat="43.03222" lon="0.64616">
        <ele>700.78</ele>
        <time>2014-01-28T08:44:06Z</time>
      </trkpt>
      <trkpt lat="43.03223" lon="0.64623">
        <ele>703.68</ele>
        <time>2014-01-28T08:44:11Z</time>
      </trkpt>
      <trkpt lat="43.03224" lon="0.64631">
        <ele>704.01</ele>
        <time>2014-01-28T08:44:16Z</time>
      </trkpt>
      <trkpt lat="43.03225" lon="0.64638">
        <ele>705.26</ele>
        <time>2014-01-28T08:44:21Z</time>
      </trkpt>
      <trkpt lat="43.03225" lon="0.64645">
        <ele>708.12</ele>
        <time>2014-01-28T08:44:26Z</time>
      </trkpt>
      <trkpt lat="43.03226" lon="0.64652">
        <ele>708.03</ele>
        <time>2014-01-28T08:44:31Z</time>
      </trkpt>
      <trkpt lat="43.03226" lon="0.64659">
        <ele>707.45</ele>
        <time>2014-01-28T08:44:36Z</time>
      </trkpt>
      <trkpt lat="43.03227" lon="0.64666">
        <ele>707.61</ele>
        <time>2014-01-28T08:44:41Z</time>
      </trkpt>
      <trkpt lat="43.03225" lon="0.64672">
        <ele>707.73</ele>
        <time>2014-01-28T08:44:47Z</time>
      </trkpt>
      <trkpt lat="43.03226" lon="0.64679">
        <ele>709.34</ele>
        <time>2014-01-28T08:44:54Z</time>
      </trkpt>
      <trkpt lat="43.03225" lon="0.64686">
        <ele>709.16</ele>
        <time>2014-01-28T08:45:00Z</time>
      </trkpt>
      <trkpt lat="43.03226" lon="0.64693">
        <ele>708.45</ele>
        <time>2014-01-28T08:45:06Z</time>
      </trkpt>
      <trkpt lat="43.03225" lon="0.647">
        <ele>706.27</ele>
        <time>2014-01-28T08:45:12Z</time>
      </trkpt>
      <trkpt lat="43.03225" lon="0.64706">
        <ele>706.02</ele>
        <time>2014-01-28T08:45:17Z</time>
      </trkpt>
      <trkpt lat="43.03226" lon="0.64713">
        <ele>706.24</ele>
        <time>2014-01-28T08:45:22Z</time>
      </trkpt>
      <trkpt lat="43.03226" lon="0.6472">
        <ele>705.39</ele>
        <time>2014-01-28T08:45:27Z</time>
      </trkpt>
      <trkpt lat="43.03226" lon="0.64726">
        <ele>706.32</ele>
        <time>2014-01-28T08:45:32Z</time>
      </trkpt>
      <trkpt lat="43.03228" lon="0.64732">
        <ele>707.75</ele>
        <time>2014-01-28T08:45:38Z</time>
      </trkpt>
      <trkpt lat="43.03228" lon="0.64738">
        <ele>709.56</ele>
        <time>2014-01-28T08:45:44Z</time>
      </trkpt>
      <trkpt lat="43.03224" lon="0.64735">
        <ele>715.64</ele>
        <time>2014-01-28T08:51:35Z</time>
      </trkpt>
      <trkpt lat="43.03223" lon="0.64728">
        <ele>716.66</ele>
        <time>2014-01-28T08:51:43Z</time>
      </trkpt>
      <trkpt lat="43.0322" lon="0.64723">
        <ele>716.09</ele>
        <time>2014-01-28T08:52:01Z</time>
      </trkpt>
      <trkpt lat="43.03216" lon="0.64718">
        <ele>717.49</ele>
        <time>2014-01-28T08:52:08Z</time>
      </trkpt>
      <trkpt lat="43.03214" lon="0.64713">
        <ele>718.22</ele>
        <time>2014-01-28T08:52:28Z</time>
      </trkpt>
      <trkpt lat="43.03212" lon="0.64708">
        <ele>722.21</ele>
        <time>2014-01-28T08:52:32Z</time>
      </trkpt>
      <trkpt lat="43.03211" lon="0.647">
        <ele>724.65</ele>
        <time>2014-01-28T08:52:36Z</time>
      </trkpt>
      <trkpt lat="43.03208" lon="0.64695">
        <ele>724.87</ele>
        <time>2014-01-28T08:52:40Z</time>
      </trkpt>
      <trkpt lat="43.03205" lon="0.64689">
        <ele>724.97</ele>
        <time>2014-01-28T08:52:44Z</time>
      </trkpt>
      <trkpt lat="43.03204" lon="0.64682">
        <ele>727.35</ele>
        <time>2014-01-28T08:52:49Z</time>
      </trkpt>
      <trkpt lat="43.03203" lon="0.64676">
        <ele>728.53</ele>
        <time>2014-01-28T08:52:55Z</time>
      </trkpt>
      <trkpt lat="43.03199" lon="0.64671">
        <ele>729.59</ele>
        <time>2014-01-28T08:53:01Z</time>
      </trkpt>
      <trkpt lat="43.03196" lon="0.64666">
        <ele>731.25</ele>
        <time>2014-01-28T08:53:10Z</time>
      </trkpt>
      <trkpt lat="43.03194" lon="0.64659">
        <ele>732.54</ele>
        <time>2014-01-28T08:53:15Z</time>
      </trkpt>
      <trkpt lat="43.03192" lon="0.64653">
        <ele>734.69</ele>
        <time>2014-01-28T08:53:21Z</time>
      </trkpt>
      <trkpt lat="43.03189" lon="0.64647">
        <ele>737.45</ele>
        <time>2014-01-28T08:53:28Z</time>
      </trkpt>
      <trkpt lat="43.03187" lon="0.64641">
        <ele>738.07</ele>
        <time>2014-01-28T08:53:34Z</time>
      </trkpt>
      <trkpt lat="43.03184" lon="0.64636">
        <ele>740.03</ele>
        <time>2014-01-28T08:53:59Z</time>
      </trkpt>
      <trkpt lat="43.03181" lon="0.64631">
        <ele>740.99</ele>
        <time>2014-01-28T08:54:03Z</time>
      </trkpt>
      <trkpt lat="43.03179" lon="0.64626">
        <ele>742.17</ele>
        <time>2014-01-28T08:54:08Z</time>
      </trkpt>
      <trkpt lat="43.03176" lon="0.6462">
        <ele>745.12</ele>
        <time>2014-01-28T08:54:27Z</time>
      </trkpt>
      <trkpt lat="43.03173" lon="0.64613">
        <ele>747.73</ele>
        <time>2014-01-28T08:54:31Z</time>
      </trkpt>
      <trkpt lat="43.03171" lon="0.64608">
        <ele>748.51</ele>
        <time>2014-01-28T08:54:38Z</time>
      </trkpt>
      <trkpt lat="43.03166" lon="0.64604">
        <ele>746.52</ele>
        <time>2014-01-28T08:54:48Z</time>
      </trkpt>
      <trkpt lat="43.03162" lon="0.64601">
        <ele>746.06</ele>
        <time>2014-01-28T08:54:55Z</time>
      </trkpt>
      <trkpt lat="43.03158" lon="0.64598">
        <ele>746.31</ele>
        <time>2014-01-28T08:55:06Z</time>
      </trkpt>
      <trkpt lat="43.03154" lon="0.64595">
        <ele>747.09</ele>
        <time>2014-01-28T08:55:10Z</time>
      </trkpt>
      <trkpt lat="43.0315" lon="0.64591">
        <ele>748.57</ele>
        <time>2014-01-28T08:55:14Z</time>
      </trkpt>
      <trkpt lat="43.03146" lon="0.64587">
        <ele>748.25</ele>
        <time>2014-01-28T08:55:18Z</time>
      </trkpt>
      <trkpt lat="43.03143" lon="0.64583">
        <ele>746.99</ele>
        <time>2014-01-28T08:55:35Z</time>
      </trkpt>
      <trkpt lat="43.03138" lon="0.64579">
        <ele>746.02</ele>
        <time>2014-01-28T08:55:39Z</time>
      </trkpt>
      <trkpt lat="43.03134" lon="0.64575">
        <ele>747</ele>
        <time>2014-01-28T08:55:43Z</time>
      </trkpt>
      <trkpt lat="43.0313" lon="0.64573">
        <ele>747.46</ele>
        <time>2014-01-28T08:55:47Z</time>
      </trkpt>
      <trkpt lat="43.03125" lon="0.6457">
        <ele>747.62</ele>
        <time>2014-01-28T08:55:51Z</time>
      </trkpt>
      <trkpt lat="43.0312" lon="0.64568">
        <ele>746.8</ele>
        <time>2014-01-28T08:55:55Z</time>
      </trkpt>
      <trkpt lat="43.03116" lon="0.64564">
        <ele>747.12</ele>
        <time>2014-01-28T08:55:59Z</time>
      </trkpt>
      <trkpt lat="43.03111" lon="0.6456">
        <ele>748.2</ele>
        <time>2014-01-28T08:56:04Z</time>
      </trkpt>
      <trkpt lat="43.03107" lon="0.64557">
        <ele>748.31</ele>
        <time>2014-01-28T08:56:09Z</time>
      </trkpt>
      <trkpt lat="43.03104" lon="0.64553">
        <ele>749.35</ele>
        <time>2014-01-28T08:56:26Z</time>
      </trkpt>
      <trkpt lat="43.031" lon="0.64547">
        <ele>750.31</ele>
        <time>2014-01-28T08:56:31Z</time>
      </trkpt>
      <trkpt lat="43.03096" lon="0.64545">
        <ele>751.16</ele>
        <time>2014-01-28T08:56:35Z</time>
      </trkpt>
      <trkpt lat="43.03091" lon="0.64542">
        <ele>752.86</ele>
        <time>2014-01-28T08:56:45Z</time>
      </trkpt>
      <trkpt lat="43.03087" lon="0.64539">
        <ele>755.04</ele>
        <time>2014-01-28T08:56:49Z</time>
      </trkpt>
      <trkpt lat="43.03083" lon="0.64535">
        <ele>754.96</ele>
        <time>2014-01-28T08:56:52Z</time>
      </trkpt>
      <trkpt lat="43.03078" lon="0.64533">
        <ele>753.64</ele>
        <time>2014-01-28T08:56:56Z</time>
      </trkpt>
      <trkpt lat="43.03073" lon="0.64533">
        <ele>754.49</ele>
        <time>2014-01-28T08:57:00Z</time>
      </trkpt>
      <trkpt lat="43.03068" lon="0.64531">
        <ele>755.94</ele>
        <time>2014-01-28T08:57:05Z</time>
      </trkpt>
      <trkpt lat="43.03064" lon="0.64528">
        <ele>755.69</ele>
        <time>2014-01-28T08:57:18Z</time>
      </trkpt>
      <trkpt lat="43.03059" lon="0.64528">
        <ele>757.88</ele>
        <time>2014-01-28T08:57:36Z</time>
      </trkpt>
      <trkpt lat="43.03054" lon="0.64528">
        <ele>758.65</ele>
        <time>2014-01-28T08:57:44Z</time>
      </trkpt>
      <trkpt lat="43.03049" lon="0.64526">
        <ele>758.25</ele>
        <time>2014-01-28T08:57:54Z</time>
      </trkpt>
      <trkpt lat="43.03043" lon="0.64526">
        <ele>753.72</ele>
        <time>2014-01-28T08:58:12Z</time>
      </trkpt>
      <trkpt lat="43.03039" lon="0.64526">
        <ele>748.37</ele>
        <time>2014-01-28T08:58:19Z</time>
      </trkpt>
      <trkpt lat="43.03034" lon="0.64523">
        <ele>750.19</ele>
        <time>2014-01-28T08:58:56Z</time>
      </trkpt>
      <trkpt lat="43.0303" lon="0.6452">
        <ele>752.57</ele>
        <time>2014-01-28T08:59:28Z</time>
      </trkpt>
      <trkpt lat="43.03025" lon="0.64518">
        <ele>754.6</ele>
        <time>2014-01-28T08:59:33Z</time>
      </trkpt>
      <trkpt lat="43.03021" lon="0.64516">
        <ele>755.41</ele>
        <time>2014-01-28T08:59:38Z</time>
      </trkpt>
      <trkpt lat="43.03017" lon="0.64514">
        <ele>757.27</ele>
        <time>2014-01-28T08:59:44Z</time>
      </trkpt>
      <trkpt lat="43.03011" lon="0.64514">
        <ele>757.49</ele>
        <time>2014-01-28T09:00:46Z</time>
      </trkpt>
      <trkpt lat="43.03007" lon="0.64519">
        <ele>760.35</ele>
        <time>2014-01-28T09:00:51Z</time>
      </trkpt>
      <trkpt lat="43.03002" lon="0.64518">
        <ele>761.79</ele>
        <time>2014-01-28T09:01:20Z</time>
      </trkpt>
      <trkpt lat="43.02997" lon="0.64517">
        <ele>757.72</ele>
        <time>2014-01-28T09:01:23Z</time>
      </trkpt>
      <trkpt lat="43.02993" lon="0.64515">
        <ele>757.92</ele>
        <time>2014-01-28T09:01:34Z</time>
      </trkpt>
      <trkpt lat="43.0299" lon="0.64509">
        <ele>760.45</ele>
        <time>2014-01-28T09:02:57Z</time>
      </trkpt>
      <trkpt lat="43.02986" lon="0.64507">
        <ele>761.47</ele>
        <time>2014-01-28T09:03:16Z</time>
      </trkpt>
      <trkpt lat="43.02981" lon="0.6451">
        <ele>758.42</ele>
        <time>2014-01-28T09:03:30Z</time>
      </trkpt>
      <trkpt lat="43.02976" lon="0.64511">
        <ele>757.41</ele>
        <time>2014-01-28T09:03:34Z</time>
      </trkpt>
      <trkpt lat="43.0297" lon="0.64513">
        <ele>757.58</ele>
        <time>2014-01-28T09:03:38Z</time>
      </trkpt>
      <trkpt lat="43.02966" lon="0.64515">
        <ele>759.23</ele>
        <time>2014-01-28T09:03:42Z</time>
      </trkpt>
      <trkpt lat="43.0296" lon="0.64517">
        <ele>758.42</ele>
        <time>2014-01-28T09:03:47Z</time>
      </trkpt>
      <trkpt lat="43.02956" lon="0.6452">
        <ele>758.28</ele>
        <time>2014-01-28T09:03:51Z</time>
      </trkpt>
      <trkpt lat="43.02952" lon="0.64523">
        <ele>758.42</ele>
        <time>2014-01-28T09:03:55Z</time>
      </trkpt>
      <trkpt lat="43.02948" lon="0.64527">
        <ele>759.61</ele>
        <time>2014-01-28T09:03:59Z</time>
      </trkpt>
      <trkpt lat="43.02943" lon="0.64527">
        <ele>761.39</ele>
        <time>2014-01-28T09:04:03Z</time>
      </trkpt>
      <trkpt lat="43.02938" lon="0.64527">
        <ele>761.63</ele>
        <time>2014-01-28T09:04:13Z</time>
      </trkpt>
      <trkpt lat="43.02933" lon="0.64528">
        <ele>763.95</ele>
        <time>2014-01-28T09:04:17Z</time>
      </trkpt>
      <trkpt lat="43.02929" lon="0.64532">
        <ele>766.5</ele>
        <time>2014-01-28T09:04:22Z</time>
      </trkpt>
      <trkpt lat="43.02925" lon="0.64535">
        <ele>767.02</ele>
        <time>2014-01-28T09:04:27Z</time>
      </trkpt>
      <trkpt lat="43.02921" lon="0.64539">
        <ele>769.1</ele>
        <time>2014-01-28T09:04:32Z</time>
      </trkpt>
      <trkpt lat="43.02917" lon="0.64538">
        <ele>771.7</ele>
        <time>2014-01-28T09:04:37Z</time>
      </trkpt>
      <trkpt lat="43.02914" lon="0.64543">
        <ele>772.71</ele>
        <time>2014-01-28T09:04:42Z</time>
      </trkpt>
      <trkpt lat="43.0291" lon="0.64546">
        <ele>771.53</ele>
        <time>2014-01-28T09:04:48Z</time>
      </trkpt>
      <trkpt lat="43.02906" lon="0.64549">
        <ele>772.59</ele>
        <time>2014-01-28T09:04:54Z</time>
      </trkpt>
      <trkpt lat="43.02901" lon="0.64546">
        <ele>773.02</ele>
        <time>2014-01-28T09:04:59Z</time>
      </trkpt>
      <trkpt lat="43.02896" lon="0.64547">
        <ele>771.27</ele>
        <time>2014-01-28T09:05:09Z</time>
      </trkpt>
      <trkpt lat="43.02891" lon="0.64549">
        <ele>770.41</ele>
        <time>2014-01-28T09:05:17Z</time>
      </trkpt>
      <trkpt lat="43.02887" lon="0.64552">
        <ele>770.7</ele>
        <time>2014-01-28T09:05:22Z</time>
      </trkpt>
      <trkpt lat="43.02883" lon="0.64555">
        <ele>770.38</ele>
        <time>2014-01-28T09:05:26Z</time>
      </trkpt>
      <trkpt lat="43.02878" lon="0.64554">
        <ele>771.84</ele>
        <time>2014-01-28T09:05:32Z</time>
      </trkpt>
      <trkpt lat="43.02874" lon="0.64551">
        <ele>774.96</ele>
        <time>2014-01-28T09:05:55Z</time>
      </trkpt>
      <trkpt lat="43.02873" lon="0.64545">
        <ele>774.81</ele>
        <time>2014-01-28T09:06:06Z</time>
      </trkpt>
      <trkpt lat="43.02869" lon="0.64538">
        <ele>773.94</ele>
        <time>2014-01-28T09:06:32Z</time>
      </trkpt>
      <trkpt lat="43.02867" lon="0.64532">
        <ele>773.08</ele>
        <time>2014-01-28T09:06:35Z</time>
      </trkpt>
      <trkpt lat="43.02865" lon="0.64526">
        <ele>772.5</ele>
        <time>2014-01-28T09:06:39Z</time>
      </trkpt>
      <trkpt lat="43.02863" lon="0.6452">
        <ele>770.62</ele>
        <time>2014-01-28T09:06:43Z</time>
      </trkpt>
      <trkpt lat="43.02861" lon="0.64512">
        <ele>769.28</ele>
        <time>2014-01-28T09:06:47Z</time>
      </trkpt>
      <trkpt lat="43.0286" lon="0.64506">
        <ele>768.03</ele>
        <time>2014-01-28T09:06:50Z</time>
      </trkpt>
      <trkpt lat="43.02858" lon="0.645">
        <ele>766.74</ele>
        <time>2014-01-28T09:06:54Z</time>
      </trkpt>
      <trkpt lat="43.02857" lon="0.64493">
        <ele>766.2</ele>
        <time>2014-01-28T09:06:58Z</time>
      </trkpt>
      <trkpt lat="43.02854" lon="0.64487">
        <ele>765.39</ele>
        <time>2014-01-28T09:07:02Z</time>
      </trkpt>
      <trkpt lat="43.02854" lon="0.64479">
        <ele>761.52</ele>
        <time>2014-01-28T09:07:06Z</time>
      </trkpt>
      <trkpt lat="43.02853" lon="0.64472">
        <ele>760.73</ele>
        <time>2014-01-28T09:07:10Z</time>
      </trkpt>
      <trkpt lat="43.02852" lon="0.64466">
        <ele>761.11</ele>
        <time>2014-01-28T09:07:18Z</time>
      </trkpt>
      <trkpt lat="43.0285" lon="0.64459">
        <ele>760.91</ele>
        <time>2014-01-28T09:07:24Z</time>
      </trkpt>
      <trkpt lat="43.02848" lon="0.64452">
        <ele>761.6</ele>
        <time>2014-01-28T09:07:29Z</time>
      </trkpt>
      <trkpt lat="43.02846" lon="0.64445">
        <ele>760.78</ele>
        <time>2014-01-28T09:07:36Z</time>
      </trkpt>
      <trkpt lat="43.02845" lon="0.6444">
        <ele>761.03</ele>
        <time>2014-01-28T09:07:40Z</time>
      </trkpt>
      <trkpt lat="43.02843" lon="0.64433">
        <ele>760.23</ele>
        <time>2014-01-28T09:07:45Z</time>
      </trkpt>
      <trkpt lat="43.02841" lon="0.64427">
        <ele>761.38</ele>
        <time>2014-01-28T09:07:49Z</time>
      </trkpt>
      <trkpt lat="43.0284" lon="0.64421">
        <ele>761.6</ele>
        <time>2014-01-28T09:07:54Z</time>
      </trkpt>
      <trkpt lat="43.02839" lon="0.64414">
        <ele>762.34</ele>
        <time>2014-01-28T09:08:05Z</time>
      </trkpt>
      <trkpt lat="43.02839" lon="0.64407">
        <ele>760.09</ele>
        <time>2014-01-28T09:08:19Z</time>
      </trkpt>
      <trkpt lat="43.02839" lon="0.64401">
        <ele>759.46</ele>
        <time>2014-01-28T09:08:23Z</time>
      </trkpt>
      <trkpt lat="43.02837" lon="0.64395">
        <ele>760.86</ele>
        <time>2014-01-28T09:08:27Z</time>
      </trkpt>
      <trkpt lat="43.02835" lon="0.64389">
        <ele>761.39</ele>
        <time>2014-01-28T09:08:31Z</time>
      </trkpt>
      <trkpt lat="43.02832" lon="0.64381">
        <ele>762.09</ele>
        <time>2014-01-28T09:08:35Z</time>
      </trkpt>
      <trkpt lat="43.02831" lon="0.64374">
        <ele>761.32</ele>
        <time>2014-01-28T09:08:39Z</time>
      </trkpt>
      <trkpt lat="43.02831" lon="0.64367">
        <ele>760.42</ele>
        <time>2014-01-28T09:08:44Z</time>
      </trkpt>
      <trkpt lat="43.02831" lon="0.6436">
        <ele>760.27</ele>
        <time>2014-01-28T09:08:48Z</time>
      </trkpt>
      <trkpt lat="43.02828" lon="0.64353">
        <ele>759.72</ele>
        <time>2014-01-28T09:08:52Z</time>
      </trkpt>
      <trkpt lat="43.02827" lon="0.64348">
        <ele>759.7</ele>
        <time>2014-01-28T09:08:56Z</time>
      </trkpt>
      <trkpt lat="43.02824" lon="0.64341">
        <ele>758.77</ele>
        <time>2014-01-28T09:09:01Z</time>
      </trkpt>
      <trkpt lat="43.02823" lon="0.64335">
        <ele>756.47</ele>
        <time>2014-01-28T09:09:05Z</time>
      </trkpt>
      <trkpt lat="43.02822" lon="0.64328">
        <ele>754.24</ele>
        <time>2014-01-28T09:09:10Z</time>
      </trkpt>
      <trkpt lat="43.02822" lon="0.64321">
        <ele>751.98</ele>
        <time>2014-01-28T09:09:14Z</time>
      </trkpt>
      <trkpt lat="43.02822" lon="0.64314">
        <ele>748.84</ele>
        <time>2014-01-28T09:09:19Z</time>
      </trkpt>
      <trkpt lat="43.02819" lon="0.6431">
        <ele>749.61</ele>
        <time>2014-01-28T09:09:28Z</time>
      </trkpt>
      <trkpt lat="43.02815" lon="0.64306">
        <ele>754.16</ele>
        <time>2014-01-28T09:09:42Z</time>
      </trkpt>
      <trkpt lat="43.02812" lon="0.643">
        <ele>754.18</ele>
        <time>2014-01-28T09:09:47Z</time>
      </trkpt>
      <trkpt lat="43.02809" lon="0.64294">
        <ele>755.44</ele>
        <time>2014-01-28T09:09:51Z</time>
      </trkpt>
      <trkpt lat="43.02805" lon="0.6429">
        <ele>756.62</ele>
        <time>2014-01-28T09:09:58Z</time>
      </trkpt>
      <trkpt lat="43.02802" lon="0.64285">
        <ele>758.93</ele>
        <time>2014-01-28T09:10:04Z</time>
      </trkpt>
      <trkpt lat="43.02799" lon="0.64278">
        <ele>759</ele>
        <time>2014-01-28T09:10:08Z</time>
      </trkpt>
      <trkpt lat="43.02796" lon="0.64273">
        <ele>758.98</ele>
        <time>2014-01-28T09:10:12Z</time>
      </trkpt>
      <trkpt lat="43.02793" lon="0.64268">
        <ele>759.39</ele>
        <time>2014-01-28T09:10:16Z</time>
      </trkpt>
      <trkpt lat="43.02789" lon="0.64263">
        <ele>760.86</ele>
        <time>2014-01-28T09:10:20Z</time>
      </trkpt>
      <trkpt lat="43.02785" lon="0.64257">
        <ele>759.22</ele>
        <time>2014-01-28T09:10:24Z</time>
      </trkpt>
      <trkpt lat="43.02784" lon="0.64252">
        <ele>758.3</ele>
        <time>2014-01-28T09:10:28Z</time>
      </trkpt>
      <trkpt lat="43.02782" lon="0.64246">
        <ele>757.02</ele>
        <time>2014-01-28T09:10:32Z</time>
      </trkpt>
      <trkpt lat="43.02778" lon="0.64242">
        <ele>756.56</ele>
        <time>2014-01-28T09:10:36Z</time>
      </trkpt>
      <trkpt lat="43.02773" lon="0.64238">
        <ele>757.7</ele>
        <time>2014-01-28T09:10:40Z</time>
      </trkpt>
      <trkpt lat="43.02769" lon="0.64232">
        <ele>757.79</ele>
        <time>2014-01-28T09:10:44Z</time>
      </trkpt>
      <trkpt lat="43.02766" lon="0.64228">
        <ele>758.07</ele>
        <time>2014-01-28T09:10:48Z</time>
      </trkpt>
      <trkpt lat="43.02762" lon="0.64225">
        <ele>759.7</ele>
        <time>2014-01-28T09:10:52Z</time>
      </trkpt>
      <trkpt lat="43.02759" lon="0.64219">
        <ele>759.32</ele>
        <time>2014-01-28T09:10:57Z</time>
      </trkpt>
      <trkpt lat="43.02755" lon="0.64215">
        <ele>758.78</ele>
        <time>2014-01-28T09:11:03Z</time>
      </trkpt>
      <trkpt lat="43.02751" lon="0.64212">
        <ele>757.23</ele>
        <time>2014-01-28T09:11:08Z</time>
      </trkpt>
      <trkpt lat="43.02747" lon="0.64208">
        <ele>759.17</ele>
        <time>2014-01-28T09:11:13Z</time>
      </trkpt>
      <trkpt lat="43.02744" lon="0.64203">
        <ele>759.05</ele>
        <time>2014-01-28T09:11:21Z</time>
      </trkpt>
      <trkpt lat="43.02741" lon="0.64198">
        <ele>757.7</ele>
        <time>2014-01-28T09:12:14Z</time>
      </trkpt>
      <trkpt lat="43.02737" lon="0.64196">
        <ele>759.29</ele>
        <time>2014-01-28T09:12:18Z</time>
      </trkpt>
      <trkpt lat="43.02733" lon="0.64193">
        <ele>755.04</ele>
        <time>2014-01-28T09:14:45Z</time>
      </trkpt>
      <trkpt lat="43.02727" lon="0.64195">
        <ele>756.63</ele>
        <time>2014-01-28T09:16:13Z</time>
      </trkpt>
      <trkpt lat="43.02723" lon="0.64197">
        <ele>759.09</ele>
        <time>2014-01-28T09:16:18Z</time>
      </trkpt>
      <trkpt lat="43.0272" lon="0.64193">
        <ele>758.14</ele>
        <time>2014-01-28T09:16:33Z</time>
      </trkpt>
      <trkpt lat="43.02715" lon="0.64189">
        <ele>756</ele>
        <time>2014-01-28T09:16:38Z</time>
      </trkpt>
      <trkpt lat="43.02711" lon="0.64185">
        <ele>758.22</ele>
        <time>2014-01-28T09:17:06Z</time>
      </trkpt>
      <trkpt lat="43.02708" lon="0.64181">
        <ele>756.2</ele>
        <time>2014-01-28T09:18:56Z</time>
      </trkpt>
      <trkpt lat="43.02703" lon="0.6418">
        <ele>757.68</ele>
        <time>2014-01-28T09:20:58Z</time>
      </trkpt>
      <trkpt lat="43.02699" lon="0.64182">
        <ele>759.63</ele>
        <time>2014-01-28T09:21:12Z</time>
      </trkpt>
      <trkpt lat="43.02694" lon="0.64182">
        <ele>760.53</ele>
        <time>2014-01-28T09:21:22Z</time>
      </trkpt>
      <trkpt lat="43.02691" lon="0.64178">
        <ele>755.31</ele>
        <time>2014-01-28T09:22:59Z</time>
      </trkpt>
      <trkpt lat="43.02686" lon="0.64178">
        <ele>756.46</ele>
        <time>2014-01-28T09:23:05Z</time>
      </trkpt>
      <trkpt lat="43.02681" lon="0.64178">
        <ele>756.22</ele>
        <time>2014-01-28T09:23:18Z</time>
      </trkpt>
      <trkpt lat="43.02677" lon="0.6418">
        <ele>756.67</ele>
        <time>2014-01-28T09:23:34Z</time>
      </trkpt>
      <trkpt lat="43.02672" lon="0.64179">
        <ele>754.63</ele>
        <time>2014-01-28T09:23:48Z</time>
      </trkpt>
      <trkpt lat="43.02667" lon="0.64177">
        <ele>751.94</ele>
        <time>2014-01-28T09:23:53Z</time>
      </trkpt>
      <trkpt lat="43.02662" lon="0.64178">
        <ele>754.29</ele>
        <time>2014-01-28T09:24:02Z</time>
      </trkpt>
      <trkpt lat="43.02656" lon="0.64177">
        <ele>755.99</ele>
        <time>2014-01-28T09:24:06Z</time>
      </trkpt>
      <trkpt lat="43.02651" lon="0.64177">
        <ele>756.74</ele>
        <time>2014-01-28T09:24:09Z</time>
      </trkpt>
      <trkpt lat="43.02647" lon="0.64177">
        <ele>757.79</ele>
        <time>2014-01-28T09:24:12Z</time>
      </trkpt>
      <trkpt lat="43.02642" lon="0.64178">
        <ele>759.41</ele>
        <time>2014-01-28T09:24:16Z</time>
      </trkpt>
      <trkpt lat="43.02637" lon="0.64179">
        <ele>760.2</ele>
        <time>2014-01-28T09:24:21Z</time>
      </trkpt>
      <trkpt lat="43.02633" lon="0.6418">
        <ele>759.86</ele>
        <time>2014-01-28T09:24:33Z</time>
      </trkpt>
      <trkpt lat="43.02628" lon="0.6418">
        <ele>760.11</ele>
        <time>2014-01-28T09:24:56Z</time>
      </trkpt>
      <trkpt lat="43.02624" lon="0.64183">
        <ele>760.17</ele>
        <time>2014-01-28T09:25:42Z</time>
      </trkpt>
      <trkpt lat="43.02619" lon="0.64184">
        <ele>759.86</ele>
        <time>2014-01-28T09:26:02Z</time>
      </trkpt>
      <trkpt lat="43.02614" lon="0.64185">
        <ele>757.77</ele>
        <time>2014-01-28T09:26:45Z</time>
      </trkpt>
      <trkpt lat="43.02609" lon="0.64182">
        <ele>755.63</ele>
        <time>2014-01-28T09:26:50Z</time>
      </trkpt>
      <trkpt lat="43.02605" lon="0.64179">
        <ele>754.55</ele>
        <time>2014-01-28T09:26:56Z</time>
      </trkpt>
      <trkpt lat="43.02602" lon="0.64174">
        <ele>755.7</ele>
        <time>2014-01-28T09:27:02Z</time>
      </trkpt>
      <trkpt lat="43.02599" lon="0.64169">
        <ele>756.88</ele>
        <time>2014-01-28T09:27:09Z</time>
      </trkpt>
      <trkpt lat="43.02594" lon="0.64167">
        <ele>758.49</ele>
        <time>2014-01-28T09:27:18Z</time>
      </trkpt>
      <trkpt lat="43.02591" lon="0.64162">
        <ele>757.94</ele>
        <time>2014-01-28T09:27:39Z</time>
      </trkpt>
      <trkpt lat="43.02587" lon="0.64159">
        <ele>759.34</ele>
        <time>2014-01-28T09:27:44Z</time>
      </trkpt>
      <trkpt lat="43.02584" lon="0.64153">
        <ele>759.78</ele>
        <time>2014-01-28T09:27:50Z</time>
      </trkpt>
      <trkpt lat="43.02582" lon="0.64147">
        <ele>759.75</ele>
        <time>2014-01-28T09:27:55Z</time>
      </trkpt>
      <trkpt lat="43.02579" lon="0.64143">
        <ele>760.78</ele>
        <time>2014-01-28T09:28:01Z</time>
      </trkpt>
      <trkpt lat="43.0258" lon="0.64137">
        <ele>757.73</ele>
        <time>2014-01-28T09:28:09Z</time>
      </trkpt>
      <trkpt lat="43.02576" lon="0.64131">
        <ele>762.24</ele>
        <time>2014-01-28T09:28:20Z</time>
      </trkpt>
      <trkpt lat="43.02575" lon="0.64125">
        <ele>760.62</ele>
        <time>2014-01-28T09:28:27Z</time>
      </trkpt>
      <trkpt lat="43.02572" lon="0.6412">
        <ele>760.27</ele>
        <time>2014-01-28T09:28:58Z</time>
      </trkpt>
      <trkpt lat="43.0257" lon="0.64115">
        <ele>760.3</ele>
        <time>2014-01-28T09:29:02Z</time>
      </trkpt>
      <trkpt lat="43.02569" lon="0.64108">
        <ele>758.13</ele>
        <time>2014-01-28T09:29:07Z</time>
      </trkpt>
      <trkpt lat="43.02566" lon="0.64103">
        <ele>758.15</ele>
        <time>2014-01-28T09:29:13Z</time>
      </trkpt>
      <trkpt lat="43.02564" lon="0.64096">
        <ele>757.2</ele>
        <time>2014-01-28T09:29:19Z</time>
      </trkpt>
      <trkpt lat="43.02562" lon="0.6409">
        <ele>757.47</ele>
        <time>2014-01-28T09:29:24Z</time>
      </trkpt>
      <trkpt lat="43.02559" lon="0.64085">
        <ele>759.08</ele>
        <time>2014-01-28T09:29:28Z</time>
      </trkpt>
      <trkpt lat="43.02556" lon="0.6408">
        <ele>759.96</ele>
        <time>2014-01-28T09:29:33Z</time>
      </trkpt>
      <trkpt lat="43.02554" lon="0.64074">
        <ele>761.07</ele>
        <time>2014-01-28T09:29:37Z</time>
      </trkpt>
      <trkpt lat="43.02552" lon="0.64068">
        <ele>762.39</ele>
        <time>2014-01-28T09:29:41Z</time>
      </trkpt>
      <trkpt lat="43.02549" lon="0.64062">
        <ele>763.7</ele>
        <time>2014-01-28T09:29:47Z</time>
      </trkpt>
      <trkpt lat="43.02547" lon="0.64057">
        <ele>765.57</ele>
        <time>2014-01-28T09:30:21Z</time>
      </trkpt>
      <trkpt lat="43.02544" lon="0.64051">
        <ele>765.83</ele>
        <time>2014-01-28T09:30:32Z</time>
      </trkpt>
      <trkpt lat="43.02541" lon="0.64046">
        <ele>766.08</ele>
        <time>2014-01-28T09:30:43Z</time>
      </trkpt>
      <trkpt lat="43.02539" lon="0.6404">
        <ele>765.9</ele>
        <time>2014-01-28T09:30:47Z</time>
      </trkpt>
      <trkpt lat="43.02538" lon="0.64034">
        <ele>767.5</ele>
        <time>2014-01-28T09:30:52Z</time>
      </trkpt>
      <trkpt lat="43.02535" lon="0.64029">
        <ele>770.02</ele>
        <time>2014-01-28T09:31:03Z</time>
      </trkpt>
      <trkpt lat="43.02532" lon="0.64025">
        <ele>770.49</ele>
        <time>2014-01-28T09:31:21Z</time>
      </trkpt>
      <trkpt lat="43.02529" lon="0.64019">
        <ele>770.97</ele>
        <time>2014-01-28T09:32:07Z</time>
      </trkpt>
      <trkpt lat="43.02524" lon="0.64017">
        <ele>775.29</ele>
        <time>2014-01-28T09:32:27Z</time>
      </trkpt>
      <trkpt lat="43.0252" lon="0.64013">
        <ele>775.3</ele>
        <time>2014-01-28T09:32:37Z</time>
      </trkpt>
      <trkpt lat="43.02517" lon="0.64009">
        <ele>772.86</ele>
        <time>2014-01-28T09:33:15Z</time>
      </trkpt>
      <trkpt lat="43.02515" lon="0.64003">
        <ele>770.76</ele>
        <time>2014-01-28T09:33:20Z</time>
      </trkpt>
      <trkpt lat="43.02514" lon="0.63997">
        <ele>769.73</ele>
        <time>2014-01-28T09:33:30Z</time>
      </trkpt>
      <trkpt lat="43.0251" lon="0.63993">
        <ele>771.41</ele>
        <time>2014-01-28T09:34:11Z</time>
      </trkpt>
      <trkpt lat="43.02509" lon="0.63987">
        <ele>770.41</ele>
        <time>2014-01-28T09:34:16Z</time>
      </trkpt>
      <trkpt lat="43.02507" lon="0.63981">
        <ele>771.8</ele>
        <time>2014-01-28T09:34:22Z</time>
      </trkpt>
      <trkpt lat="43.02505" lon="0.63975">
        <ele>774.76</ele>
        <time>2014-01-28T09:34:30Z</time>
      </trkpt>
      <trkpt lat="43.02504" lon="0.63969">
        <ele>770.42</ele>
        <time>2014-01-28T09:35:10Z</time>
      </trkpt>
      <trkpt lat="43.02502" lon="0.63963">
        <ele>771.77</ele>
        <time>2014-01-28T09:35:17Z</time>
      </trkpt>
      <trkpt lat="43.02499" lon="0.63959">
        <ele>770.68</ele>
        <time>2014-01-28T09:35:34Z</time>
      </trkpt>
      <trkpt lat="43.02494" lon="0.63958">
        <ele>777.24</ele>
        <time>2014-01-28T09:39:02Z</time>
      </trkpt>
      <trkpt lat="43.02489" lon="0.63959">
        <ele>776.75</ele>
        <time>2014-01-28T09:39:39Z</time>
      </trkpt>
      <trkpt lat="43.02486" lon="0.63954">
        <ele>778.53</ele>
        <time>2014-01-28T09:43:20Z</time>
      </trkpt>
      <trkpt lat="43.02483" lon="0.63951">
        <ele>777.68</ele>
        <time>2014-01-28T09:44:25Z</time>
      </trkpt>
      <trkpt lat="43.02479" lon="0.63948">
        <ele>777.52</ele>
        <time>2014-01-28T09:45:16Z</time>
      </trkpt>
      <trkpt lat="43.02475" lon="0.63943">
        <ele>778.64</ele>
        <time>2014-01-28T09:46:51Z</time>
      </trkpt>
      <trkpt lat="43.02471" lon="0.6394">
        <ele>780.02</ele>
        <time>2014-01-28T09:47:52Z</time>
      </trkpt>
      <trkpt lat="43.02467" lon="0.63938">
        <ele>780.75</ele>
        <time>2014-01-28T09:49:37Z</time>
      </trkpt>
      <trkpt lat="43.02462" lon="0.63934">
        <ele>782.21</ele>
        <time>2014-01-28T09:49:45Z</time>
      </trkpt>
      <trkpt lat="43.02458" lon="0.63931">
        <ele>781.13</ele>
        <time>2014-01-28T09:49:54Z</time>
      </trkpt>
      <trkpt lat="43.02454" lon="0.63933">
        <ele>784.03</ele>
        <time>2014-01-28T09:50:53Z</time>
      </trkpt>
      <trkpt lat="43.02449" lon="0.63933">
        <ele>782.47</ele>
        <time>2014-01-28T09:55:41Z</time>
      </trkpt>
      <trkpt lat="43.02448" lon="0.63927">
        <ele>773.03</ele>
        <time>2014-01-28T09:58:14Z</time>
      </trkpt>
      <trkpt lat="43.02446" lon="0.63921">
        <ele>770.81</ele>
        <time>2014-01-28T09:58:42Z</time>
      </trkpt>
      <trkpt lat="43.02441" lon="0.63918">
        <ele>767.49</ele>
        <time>2014-01-28T10:02:01Z</time>
      </trkpt>
      <trkpt lat="43.02437" lon="0.63919">
        <ele>770.78</ele>
        <time>2014-01-28T10:03:18Z</time>
      </trkpt>
      <trkpt lat="43.02432" lon="0.63919">
        <ele>773.39</ele>
        <time>2014-01-28T10:04:13Z</time>
      </trkpt>
      <trkpt lat="43.02427" lon="0.63917">
        <ele>771.81</ele>
        <time>2014-01-28T10:05:11Z</time>
      </trkpt>
      <trkpt lat="43.02422" lon="0.63916">
        <ele>773.02</ele>
        <time>2014-01-28T10:05:46Z</time>
      </trkpt>
      <trkpt lat="43.02418" lon="0.63915">
        <ele>773.2</ele>
        <time>2014-01-28T10:05:52Z</time>
      </trkpt>
      <trkpt lat="43.02413" lon="0.63912">
        <ele>773.38</ele>
        <time>2014-01-28T10:06:14Z</time>
      </trkpt>
      <trkpt lat="43.02408" lon="0.6391">
        <ele>771.87</ele>
        <time>2014-01-28T10:06:34Z</time>
      </trkpt>
      <trkpt lat="43.02403" lon="0.63909">
        <ele>772.28</ele>
        <time>2014-01-28T10:06:39Z</time>
      </trkpt>
      <trkpt lat="43.02398" lon="0.63908">
        <ele>774.11</ele>
        <time>2014-01-28T10:07:26Z</time>
      </trkpt>
      <trkpt lat="43.02394" lon="0.63905">
        <ele>777.63</ele>
        <time>2014-01-28T10:11:53Z</time>
      </trkpt>
      <trkpt lat="43.0239" lon="0.639">
        <ele>775</ele>
        <time>2014-01-28T10:11:57Z</time>
      </trkpt>
      <trkpt lat="43.02386" lon="0.63897">
        <ele>772.91</ele>
        <time>2014-01-28T10:12:01Z</time>
      </trkpt>
      <trkpt lat="43.02382" lon="0.63893">
        <ele>773.58</ele>
        <time>2014-01-28T10:12:05Z</time>
      </trkpt>
      <trkpt lat="43.02378" lon="0.63889">
        <ele>774.72</ele>
        <time>2014-01-28T10:12:11Z</time>
      </trkpt>
      <trkpt lat="43.02374" lon="0.63885">
        <ele>774.98</ele>
        <time>2014-01-28T10:12:15Z</time>
      </trkpt>
      <trkpt lat="43.0237" lon="0.6388">
        <ele>774.95</ele>
        <time>2014-01-28T10:12:20Z</time>
      </trkpt>
      <trkpt lat="43.02366" lon="0.63876">
        <ele>776.17</ele>
        <time>2014-01-28T10:12:25Z</time>
      </trkpt>
      <trkpt lat="43.02362" lon="0.63873">
        <ele>776.58</ele>
        <time>2014-01-28T10:12:30Z</time>
      </trkpt>
      <trkpt lat="43.02357" lon="0.6387">
        <ele>778.34</ele>
        <time>2014-01-28T10:13:10Z</time>
      </trkpt>
      <trkpt lat="43.02352" lon="0.63867">
        <ele>779.62</ele>
        <time>2014-01-28T10:13:15Z</time>
      </trkpt>
      <trkpt lat="43.02349" lon="0.63863">
        <ele>777.68</ele>
        <time>2014-01-28T10:13:19Z</time>
      </trkpt>
      <trkpt lat="43.02346" lon="0.63858">
        <ele>777.37</ele>
        <time>2014-01-28T10:13:23Z</time>
      </trkpt>
      <trkpt lat="43.02342" lon="0.63856">
        <ele>778.84</ele>
        <time>2014-01-28T10:13:35Z</time>
      </trkpt>
      <trkpt lat="43.02337" lon="0.63852">
        <ele>778.01</ele>
        <time>2014-01-28T10:13:46Z</time>
      </trkpt>
      <trkpt lat="43.02333" lon="0.63848">
        <ele>778.81</ele>
        <time>2014-01-28T10:13:50Z</time>
      </trkpt>
      <trkpt lat="43.02328" lon="0.63846">
        <ele>782.48</ele>
        <time>2014-01-28T10:13:54Z</time>
      </trkpt>
      <trkpt lat="43.02323" lon="0.63844">
        <ele>781.22</ele>
        <time>2014-01-28T10:13:58Z</time>
      </trkpt>
      <trkpt lat="43.02319" lon="0.6384">
        <ele>781.05</ele>
        <time>2014-01-28T10:14:02Z</time>
      </trkpt>
      <trkpt lat="43.02316" lon="0.63836">
        <ele>782.15</ele>
        <time>2014-01-28T10:14:06Z</time>
      </trkpt>
      <trkpt lat="43.02311" lon="0.63833">
        <ele>781.67</ele>
        <time>2014-01-28T10:14:12Z</time>
      </trkpt>
      <trkpt lat="43.02307" lon="0.6383">
        <ele>780.85</ele>
        <time>2014-01-28T10:14:17Z</time>
      </trkpt>
      <trkpt lat="43.02304" lon="0.63826">
        <ele>781.63</ele>
        <time>2014-01-28T10:14:22Z</time>
      </trkpt>
      <trkpt lat="43.02299" lon="0.63823">
        <ele>783.79</ele>
        <time>2014-01-28T10:14:42Z</time>
      </trkpt>
      <trkpt lat="43.02296" lon="0.63819">
        <ele>787.01</ele>
        <time>2014-01-28T10:14:47Z</time>
      </trkpt>
      <trkpt lat="43.02293" lon="0.63814">
        <ele>787.78</ele>
        <time>2014-01-28T10:14:51Z</time>
      </trkpt>
      <trkpt lat="43.0229" lon="0.63808">
        <ele>786.2</ele>
        <time>2014-01-28T10:14:55Z</time>
      </trkpt>
      <trkpt lat="43.02287" lon="0.63803">
        <ele>786.04</ele>
        <time>2014-01-28T10:15:08Z</time>
      </trkpt>
      <trkpt lat="43.02283" lon="0.63798">
        <ele>788.89</ele>
        <time>2014-01-28T10:15:13Z</time>
      </trkpt>
      <trkpt lat="43.02279" lon="0.63794">
        <ele>787.54</ele>
        <time>2014-01-28T10:15:18Z</time>
      </trkpt>
      <trkpt lat="43.02276" lon="0.63788">
        <ele>787.97</ele>
        <time>2014-01-28T10:15:23Z</time>
      </trkpt>
      <trkpt lat="43.02273" lon="0.63782">
        <ele>788.2</ele>
        <time>2014-01-28T10:15:27Z</time>
      </trkpt>
      <trkpt lat="43.02269" lon="0.63776">
        <ele>788.12</ele>
        <time>2014-01-28T10:15:31Z</time>
      </trkpt>
      <trkpt lat="43.02265" lon="0.63772">
        <ele>787.48</ele>
        <time>2014-01-28T10:15:35Z</time>
      </trkpt>
      <trkpt lat="43.02261" lon="0.63768">
        <ele>785.54</ele>
        <time>2014-01-28T10:15:39Z</time>
      </trkpt>
      <trkpt lat="43.02257" lon="0.63764">
        <ele>784.55</ele>
        <time>2014-01-28T10:15:43Z</time>
      </trkpt>
      <trkpt lat="43.02254" lon="0.63759">
        <ele>785.54</ele>
        <time>2014-01-28T10:15:48Z</time>
      </trkpt>
      <trkpt lat="43.02249" lon="0.63755">
        <ele>786.28</ele>
        <time>2014-01-28T10:15:53Z</time>
      </trkpt>
      <trkpt lat="43.02247" lon="0.6375">
        <ele>791</ele>
        <time>2014-01-28T10:16:00Z</time>
      </trkpt>
      <trkpt lat="43.02245" lon="0.63743">
        <ele>791.35</ele>
        <time>2014-01-28T10:16:15Z</time>
      </trkpt>
      <trkpt lat="43.02242" lon="0.63738">
        <ele>791.4</ele>
        <time>2014-01-28T10:16:19Z</time>
      </trkpt>
      <trkpt lat="43.02238" lon="0.63732">
        <ele>793.04</ele>
        <time>2014-01-28T10:16:23Z</time>
      </trkpt>
      <trkpt lat="43.02236" lon="0.63726">
        <ele>794.31</ele>
        <time>2014-01-28T10:16:27Z</time>
      </trkpt>
      <trkpt lat="43.02234" lon="0.6372">
        <ele>794.35</ele>
        <time>2014-01-28T10:16:31Z</time>
      </trkpt>
      <trkpt lat="43.02233" lon="0.63714">
        <ele>794.53</ele>
        <time>2014-01-28T10:16:41Z</time>
      </trkpt>
      <trkpt lat="43.0223" lon="0.63709">
        <ele>795.08</ele>
        <time>2014-01-28T10:17:04Z</time>
      </trkpt>
      <trkpt lat="43.02227" lon="0.63704">
        <ele>796.36</ele>
        <time>2014-01-28T10:17:17Z</time>
      </trkpt>
      <trkpt lat="43.02226" lon="0.63696">
        <ele>796.88</ele>
        <time>2014-01-28T10:17:21Z</time>
      </trkpt>
      <trkpt lat="43.02225" lon="0.63689">
        <ele>795.53</ele>
        <time>2014-01-28T10:17:25Z</time>
      </trkpt>
      <trkpt lat="43.02223" lon="0.63681">
        <ele>794.09</ele>
        <time>2014-01-28T10:17:29Z</time>
      </trkpt>
      <trkpt lat="43.02221" lon="0.63675">
        <ele>794.65</ele>
        <time>2014-01-28T10:17:33Z</time>
      </trkpt>
      <trkpt lat="43.02221" lon="0.63668">
        <ele>794.7</ele>
        <time>2014-01-28T10:17:38Z</time>
      </trkpt>
      <trkpt lat="43.02217" lon="0.63664">
        <ele>794.65</ele>
        <time>2014-01-28T10:17:48Z</time>
      </trkpt>
      <trkpt lat="43.02211" lon="0.63663">
        <ele>794.79</ele>
        <time>2014-01-28T10:17:53Z</time>
      </trkpt>
      <trkpt lat="43.02205" lon="0.63664">
        <ele>795.7</ele>
        <time>2014-01-28T10:17:58Z</time>
      </trkpt>
      <trkpt lat="43.02201" lon="0.63663">
        <ele>796.47</ele>
        <time>2014-01-28T10:18:06Z</time>
      </trkpt>
      <trkpt lat="43.02197" lon="0.63659">
        <ele>797.53</ele>
        <time>2014-01-28T10:18:42Z</time>
      </trkpt>
      <trkpt lat="43.02191" lon="0.63661">
        <ele>795.08</ele>
        <time>2014-01-28T10:18:50Z</time>
      </trkpt>
      <trkpt lat="43.02186" lon="0.63662">
        <ele>793.37</ele>
        <time>2014-01-28T10:19:44Z</time>
      </trkpt>
      <trkpt lat="43.02181" lon="0.63662">
        <ele>790.29</ele>
        <time>2014-01-28T10:19:50Z</time>
      </trkpt>
      <trkpt lat="43.02176" lon="0.63661">
        <ele>789.67</ele>
        <time>2014-01-28T10:20:13Z</time>
      </trkpt>
      <trkpt lat="43.0217" lon="0.63663">
        <ele>792.03</ele>
        <time>2014-01-28T10:20:18Z</time>
      </trkpt>
      <trkpt lat="43.02165" lon="0.63665">
        <ele>792.29</ele>
        <time>2014-01-28T10:20:24Z</time>
      </trkpt>
      <trkpt lat="43.02161" lon="0.63667">
        <ele>793.08</ele>
        <time>2014-01-28T10:20:28Z</time>
      </trkpt>
      <trkpt lat="43.02156" lon="0.63669">
        <ele>793.64</ele>
        <time>2014-01-28T10:20:40Z</time>
      </trkpt>
      <trkpt lat="43.02152" lon="0.63672">
        <ele>797.95</ele>
        <time>2014-01-28T10:21:22Z</time>
      </trkpt>
      <trkpt lat="43.02146" lon="0.63674">
        <ele>800.67</ele>
        <time>2014-01-28T10:21:26Z</time>
      </trkpt>
      <trkpt lat="43.02142" lon="0.63676">
        <ele>802.5</ele>
        <time>2014-01-28T10:21:29Z</time>
      </trkpt>
      <trkpt lat="43.02137" lon="0.63679">
        <ele>806.16</ele>
        <time>2014-01-28T10:21:33Z</time>
      </trkpt>
      <trkpt lat="43.02132" lon="0.63681">
        <ele>807.81</ele>
        <time>2014-01-28T10:21:37Z</time>
      </trkpt>
      <trkpt lat="43.02127" lon="0.63684">
        <ele>808.76</ele>
        <time>2014-01-28T10:21:41Z</time>
      </trkpt>
      <trkpt lat="43.02122" lon="0.63685">
        <ele>810.1</ele>
        <time>2014-01-28T10:21:45Z</time>
      </trkpt>
      <trkpt lat="43.02117" lon="0.63688">
        <ele>809.91</ele>
        <time>2014-01-28T10:21:50Z</time>
      </trkpt>
      <trkpt lat="43.02112" lon="0.63689">
        <ele>810.87</ele>
        <time>2014-01-28T10:22:07Z</time>
      </trkpt>
      <trkpt lat="43.02107" lon="0.63691">
        <ele>810.8</ele>
        <time>2014-01-28T10:22:12Z</time>
      </trkpt>
      <trkpt lat="43.02102" lon="0.63692">
        <ele>811.44</ele>
        <time>2014-01-28T10:22:16Z</time>
      </trkpt>
      <trkpt lat="43.02098" lon="0.63692">
        <ele>803.25</ele>
        <time>2014-01-28T10:22:21Z</time>
      </trkpt>
      <trkpt lat="43.02092" lon="0.63693">
        <ele>809.43</ele>
        <time>2014-01-28T10:22:27Z</time>
      </trkpt>
      <trkpt lat="43.02088" lon="0.63694">
        <ele>808.24</ele>
        <time>2014-01-28T10:22:31Z</time>
      </trkpt>
      <trkpt lat="43.02083" lon="0.63696">
        <ele>805.41</ele>
        <time>2014-01-28T10:22:35Z</time>
      </trkpt>
      <trkpt lat="43.02078" lon="0.63699">
        <ele>806.17</ele>
        <time>2014-01-28T10:22:53Z</time>
      </trkpt>
      <trkpt lat="43.02074" lon="0.63701">
        <ele>808.39</ele>
        <time>2014-01-28T10:22:58Z</time>
      </trkpt>
      <trkpt lat="43.0207" lon="0.63704">
        <ele>810.13</ele>
        <time>2014-01-28T10:23:03Z</time>
      </trkpt>
      <trkpt lat="43.02064" lon="0.63706">
        <ele>810.12</ele>
        <time>2014-01-28T10:23:08Z</time>
      </trkpt>
      <trkpt lat="43.0206" lon="0.63708">
        <ele>810.38</ele>
        <time>2014-01-28T10:23:13Z</time>
      </trkpt>
      <trkpt lat="43.02055" lon="0.63711">
        <ele>809.24</ele>
        <time>2014-01-28T10:23:18Z</time>
      </trkpt>
      <trkpt lat="43.02051" lon="0.63715">
        <ele>810.43</ele>
        <time>2014-01-28T10:23:23Z</time>
      </trkpt>
      <trkpt lat="43.02046" lon="0.63718">
        <ele>812.21</ele>
        <time>2014-01-28T10:23:28Z</time>
      </trkpt>
      <trkpt lat="43.02042" lon="0.63722">
        <ele>813.3</ele>
        <time>2014-01-28T10:23:34Z</time>
      </trkpt>
      <trkpt lat="43.02038" lon="0.63724">
        <ele>813.18</ele>
        <time>2014-01-28T10:23:39Z</time>
      </trkpt>
      <trkpt lat="43.02032" lon="0.63724">
        <ele>811.98</ele>
        <time>2014-01-28T10:23:45Z</time>
      </trkpt>
      <trkpt lat="43.02028" lon="0.63727">
        <ele>809.42</ele>
        <time>2014-01-28T10:23:50Z</time>
      </trkpt>
      <trkpt lat="43.02023" lon="0.63728">
        <ele>808.02</ele>
        <time>2014-01-28T10:23:55Z</time>
      </trkpt>
      <trkpt lat="43.02018" lon="0.63731">
        <ele>807.92</ele>
        <time>2014-01-28T10:24:00Z</time>
      </trkpt>
      <trkpt lat="43.02014" lon="0.63732">
        <ele>808.07</ele>
        <time>2014-01-28T10:24:06Z</time>
      </trkpt>
      <trkpt lat="43.02009" lon="0.63734">
        <ele>808.7</ele>
        <time>2014-01-28T10:24:13Z</time>
      </trkpt>
      <trkpt lat="43.02005" lon="0.63735">
        <ele>807.49</ele>
        <time>2014-01-28T10:24:51Z</time>
      </trkpt>
      <trkpt lat="43.01999" lon="0.63735">
        <ele>808.18</ele>
        <time>2014-01-28T10:24:56Z</time>
      </trkpt>
      <trkpt lat="43.01995" lon="0.63736">
        <ele>808.76</ele>
        <time>2014-01-28T10:25:03Z</time>
      </trkpt>
      <trkpt lat="43.01989" lon="0.63738">
        <ele>810.04</ele>
        <time>2014-01-28T10:25:11Z</time>
      </trkpt>
      <trkpt lat="43.01985" lon="0.63741">
        <ele>811.63</ele>
        <time>2014-01-28T10:25:19Z</time>
      </trkpt>
      <trkpt lat="43.01981" lon="0.63745">
        <ele>810.4</ele>
        <time>2014-01-28T10:25:25Z</time>
      </trkpt>
      <trkpt lat="43.01978" lon="0.63751">
        <ele>806.3</ele>
        <time>2014-01-28T10:25:32Z</time>
      </trkpt>
      <trkpt lat="43.01973" lon="0.63753">
        <ele>808.73</ele>
        <time>2014-01-28T10:26:20Z</time>
      </trkpt>
      <trkpt lat="43.01969" lon="0.63753">
        <ele>807.07</ele>
        <time>2014-01-28T10:26:42Z</time>
      </trkpt>
      <trkpt lat="43.01964" lon="0.63751">
        <ele>803.69</ele>
        <time>2014-01-28T10:26:55Z</time>
      </trkpt>
      <trkpt lat="43.01959" lon="0.6375">
        <ele>802.49</ele>
        <time>2014-01-28T10:26:59Z</time>
      </trkpt>
      <trkpt lat="43.01955" lon="0.63748">
        <ele>799.74</ele>
        <time>2014-01-28T10:27:07Z</time>
      </trkpt>
      <trkpt lat="43.0195" lon="0.63745">
        <ele>796.57</ele>
        <time>2014-01-28T10:27:12Z</time>
      </trkpt>
      <trkpt lat="43.01946" lon="0.63742">
        <ele>796.95</ele>
        <time>2014-01-28T10:27:15Z</time>
      </trkpt>
      <trkpt lat="43.0194" lon="0.6374">
        <ele>799.48</ele>
        <time>2014-01-28T10:27:19Z</time>
      </trkpt>
      <trkpt lat="43.01935" lon="0.63739">
        <ele>799.6</ele>
        <time>2014-01-28T10:27:23Z</time>
      </trkpt>
      <trkpt lat="43.01932" lon="0.63734">
        <ele>800.06</ele>
        <time>2014-01-28T10:27:31Z</time>
      </trkpt>
      <trkpt lat="43.01927" lon="0.63733">
        <ele>801.45</ele>
        <time>2014-01-28T10:27:36Z</time>
      </trkpt>
      <trkpt lat="43.01923" lon="0.63732">
        <ele>803.85</ele>
        <time>2014-01-28T10:27:40Z</time>
      </trkpt>
      <trkpt lat="43.01918" lon="0.6373">
        <ele>803.48</ele>
        <time>2014-01-28T10:27:44Z</time>
      </trkpt>
      <trkpt lat="43.01913" lon="0.63728">
        <ele>805.78</ele>
        <time>2014-01-28T10:27:49Z</time>
      </trkpt>
      <trkpt lat="43.01909" lon="0.63726">
        <ele>807.89</ele>
        <time>2014-01-28T10:27:53Z</time>
      </trkpt>
      <trkpt lat="43.01904" lon="0.63724">
        <ele>807.46</ele>
        <time>2014-01-28T10:27:57Z</time>
      </trkpt>
      <trkpt lat="43.01899" lon="0.63723">
        <ele>810.99</ele>
        <time>2014-01-28T10:28:03Z</time>
      </trkpt>
      <trkpt lat="43.01894" lon="0.63723">
        <ele>808.84</ele>
        <time>2014-01-28T10:28:10Z</time>
      </trkpt>
      <trkpt lat="43.01889" lon="0.63723">
        <ele>809.59</ele>
        <time>2014-01-28T10:28:17Z</time>
      </trkpt>
      <trkpt lat="43.01884" lon="0.63723">
        <ele>808.07</ele>
        <time>2014-01-28T10:28:22Z</time>
      </trkpt>
      <trkpt lat="43.01879" lon="0.63723">
        <ele>804</ele>
        <time>2014-01-28T10:28:28Z</time>
      </trkpt>
      <trkpt lat="43.01874" lon="0.63721">
        <ele>801.56</ele>
        <time>2014-01-28T10:28:33Z</time>
      </trkpt>
      <trkpt lat="43.0187" lon="0.63717">
        <ele>803.02</ele>
        <time>2014-01-28T10:28:45Z</time>
      </trkpt>
      <trkpt lat="43.01865" lon="0.63716">
        <ele>804.08</ele>
        <time>2014-01-28T10:28:50Z</time>
      </trkpt>
      <trkpt lat="43.01863" lon="0.63711">
        <ele>805.87</ele>
        <time>2014-01-28T10:28:56Z</time>
      </trkpt>
      <trkpt lat="43.01859" lon="0.63707">
        <ele>805.6</ele>
        <time>2014-01-28T10:29:02Z</time>
      </trkpt>
      <trkpt lat="43.01855" lon="0.63705">
        <ele>807.28</ele>
        <time>2014-01-28T10:29:07Z</time>
      </trkpt>
      <trkpt lat="43.01851" lon="0.63701">
        <ele>807.7</ele>
        <time>2014-01-28T10:29:13Z</time>
      </trkpt>
      <trkpt lat="43.01848" lon="0.63695">
        <ele>806.73</ele>
        <time>2014-01-28T10:29:20Z</time>
      </trkpt>
      <trkpt lat="43.01843" lon="0.63692">
        <ele>808.61</ele>
        <time>2014-01-28T10:29:26Z</time>
      </trkpt>
      <trkpt lat="43.01841" lon="0.63687">
        <ele>802.93</ele>
        <time>2014-01-28T10:29:32Z</time>
      </trkpt>
      <trkpt lat="43.01836" lon="0.63684">
        <ele>808.2</ele>
        <time>2014-01-28T10:29:47Z</time>
      </trkpt>
      <trkpt lat="43.01834" lon="0.63678">
        <ele>806.26</ele>
        <time>2014-01-28T10:29:54Z</time>
      </trkpt>
      <trkpt lat="43.0183" lon="0.63674">
        <ele>805.9</ele>
        <time>2014-01-28T10:29:59Z</time>
      </trkpt>
      <trkpt lat="43.01826" lon="0.63669">
        <ele>806.76</ele>
        <time>2014-01-28T10:30:04Z</time>
      </trkpt>
      <trkpt lat="43.01822" lon="0.63664">
        <ele>808.6</ele>
        <time>2014-01-28T10:30:08Z</time>
      </trkpt>
      <trkpt lat="43.0182" lon="0.63658">
        <ele>808.98</ele>
        <time>2014-01-28T10:30:14Z</time>
      </trkpt>
      <trkpt lat="43.01816" lon="0.63653">
        <ele>807.38</ele>
        <time>2014-01-28T10:30:20Z</time>
      </trkpt>
      <trkpt lat="43.01812" lon="0.63651">
        <ele>807.29</ele>
        <time>2014-01-28T10:30:24Z</time>
      </trkpt>
      <trkpt lat="43.01807" lon="0.63649">
        <ele>808.16</ele>
        <time>2014-01-28T10:30:30Z</time>
      </trkpt>
      <trkpt lat="43.01803" lon="0.63646">
        <ele>807.27</ele>
        <time>2014-01-28T10:30:34Z</time>
      </trkpt>
      <trkpt lat="43.01798" lon="0.63645">
        <ele>806.19</ele>
        <time>2014-01-28T10:30:38Z</time>
      </trkpt>
      <trkpt lat="43.01794" lon="0.63642">
        <ele>806.31</ele>
        <time>2014-01-28T10:30:48Z</time>
      </trkpt>
      <trkpt lat="43.01793" lon="0.63636">
        <ele>809.07</ele>
        <time>2014-01-28T10:31:09Z</time>
      </trkpt>
      <trkpt lat="43.01789" lon="0.63633">
        <ele>807.66</ele>
        <time>2014-01-28T10:31:25Z</time>
      </trkpt>
      <trkpt lat="43.01783" lon="0.63631">
        <ele>807.67</ele>
        <time>2014-01-28T10:31:30Z</time>
      </trkpt>
      <trkpt lat="43.01779" lon="0.63628">
        <ele>806.67</ele>
        <time>2014-01-28T10:31:34Z</time>
      </trkpt>
      <trkpt lat="43.01775" lon="0.63626">
        <ele>805.95</ele>
        <time>2014-01-28T10:31:38Z</time>
      </trkpt>
      <trkpt lat="43.0177" lon="0.63624">
        <ele>804.31</ele>
        <time>2014-01-28T10:31:43Z</time>
      </trkpt>
      <trkpt lat="43.01765" lon="0.63622">
        <ele>802.96</ele>
        <time>2014-01-28T10:31:54Z</time>
      </trkpt>
      <trkpt lat="43.01761" lon="0.6362">
        <ele>804.15</ele>
        <time>2014-01-28T10:32:16Z</time>
      </trkpt>
      <trkpt lat="43.01757" lon="0.63615">
        <ele>804.82</ele>
        <time>2014-01-28T10:32:23Z</time>
      </trkpt>
      <trkpt lat="43.01753" lon="0.63611">
        <ele>804.47</ele>
        <time>2014-01-28T10:32:32Z</time>
      </trkpt>
      <trkpt lat="43.01751" lon="0.63606">
        <ele>806.41</ele>
        <time>2014-01-28T10:32:51Z</time>
      </trkpt>
      <trkpt lat="43.01747" lon="0.63603">
        <ele>807.78</ele>
        <time>2014-01-28T10:32:59Z</time>
      </trkpt>
      <trkpt lat="43.01744" lon="0.63598">
        <ele>811.08</ele>
        <time>2014-01-28T10:33:10Z</time>
      </trkpt>
      <trkpt lat="43.01739" lon="0.63594">
        <ele>806.9</ele>
        <time>2014-01-28T10:33:19Z</time>
      </trkpt>
      <trkpt lat="43.01734" lon="0.63592">
        <ele>803.41</ele>
        <time>2014-01-28T10:33:23Z</time>
      </trkpt>
      <trkpt lat="43.0173" lon="0.63589">
        <ele>804.1</ele>
        <time>2014-01-28T10:33:27Z</time>
      </trkpt>
      <trkpt lat="43.01725" lon="0.63586">
        <ele>805.11</ele>
        <time>2014-01-28T10:33:49Z</time>
      </trkpt>
      <trkpt lat="43.01721" lon="0.63583">
        <ele>807.41</ele>
        <time>2014-01-28T10:35:12Z</time>
      </trkpt>
      <trkpt lat="43.01719" lon="0.63578">
        <ele>811.95</ele>
        <time>2014-01-28T10:36:40Z</time>
      </trkpt>
      <trkpt lat="43.01714" lon="0.63574">
        <ele>813.25</ele>
        <time>2014-01-28T10:36:47Z</time>
      </trkpt>
      <trkpt lat="43.0171" lon="0.63571">
        <ele>813.41</ele>
        <time>2014-01-28T10:36:55Z</time>
      </trkpt>
      <trkpt lat="43.01706" lon="0.63567">
        <ele>814.29</ele>
        <time>2014-01-28T10:37:03Z</time>
      </trkpt>
      <trkpt lat="43.01702" lon="0.63565">
        <ele>816.27</ele>
        <time>2014-01-28T10:37:10Z</time>
      </trkpt>
      <trkpt lat="43.01698" lon="0.63561">
        <ele>816.51</ele>
        <time>2014-01-28T10:37:17Z</time>
      </trkpt>
      <trkpt lat="43.01693" lon="0.63557">
        <ele>818.09</ele>
        <time>2014-01-28T10:37:24Z</time>
      </trkpt>
      <trkpt lat="43.0169" lon="0.63552">
        <ele>817.98</ele>
        <time>2014-01-28T10:37:34Z</time>
      </trkpt>
      <trkpt lat="43.01687" lon="0.63548">
        <ele>820.39</ele>
        <time>2014-01-28T10:37:42Z</time>
      </trkpt>
      <trkpt lat="43.01684" lon="0.63543">
        <ele>823.82</ele>
        <time>2014-01-28T10:37:53Z</time>
      </trkpt>
      <trkpt lat="43.0168" lon="0.63539">
        <ele>825.09</ele>
        <time>2014-01-28T10:38:01Z</time>
      </trkpt>
      <trkpt lat="43.01676" lon="0.63536">
        <ele>826.26</ele>
        <time>2014-01-28T10:38:09Z</time>
      </trkpt>
      <trkpt lat="43.01671" lon="0.63535">
        <ele>827.4</ele>
        <time>2014-01-28T10:38:17Z</time>
      </trkpt>
      <trkpt lat="43.01666" lon="0.63535">
        <ele>827.78</ele>
        <time>2014-01-28T10:38:25Z</time>
      </trkpt>
      <trkpt lat="43.01663" lon="0.63531">
        <ele>827</ele>
        <time>2014-01-28T10:38:31Z</time>
      </trkpt>
      <trkpt lat="43.0166" lon="0.63524">
        <ele>826.78</ele>
        <time>2014-01-28T10:38:37Z</time>
      </trkpt>
      <trkpt lat="43.01659" lon="0.63518">
        <ele>826.07</ele>
        <time>2014-01-28T10:38:42Z</time>
      </trkpt>
      <trkpt lat="43.01657" lon="0.63512">
        <ele>825.6</ele>
        <time>2014-01-28T10:38:48Z</time>
      </trkpt>
      <trkpt lat="43.01654" lon="0.63506">
        <ele>826.64</ele>
        <time>2014-01-28T10:38:54Z</time>
      </trkpt>
      <trkpt lat="43.01653" lon="0.635">
        <ele>827.85</ele>
        <time>2014-01-28T10:39:00Z</time>
      </trkpt>
      <trkpt lat="43.01651" lon="0.63494">
        <ele>829.96</ele>
        <time>2014-01-28T10:39:07Z</time>
      </trkpt>
      <trkpt lat="43.01649" lon="0.63487">
        <ele>830.26</ele>
        <time>2014-01-28T10:39:14Z</time>
      </trkpt>
      <trkpt lat="43.01648" lon="0.63481">
        <ele>830.14</ele>
        <time>2014-01-28T10:39:20Z</time>
      </trkpt>
      <trkpt lat="43.01646" lon="0.63474">
        <ele>831.34</ele>
        <time>2014-01-28T10:39:26Z</time>
      </trkpt>
      <trkpt lat="43.01644" lon="0.63468">
        <ele>831.4</ele>
        <time>2014-01-28T10:39:32Z</time>
      </trkpt>
      <trkpt lat="43.01642" lon="0.63462">
        <ele>830.97</ele>
        <time>2014-01-28T10:39:38Z</time>
      </trkpt>
      <trkpt lat="43.0164" lon="0.63457">
        <ele>830.59</ele>
        <time>2014-01-28T10:39:44Z</time>
      </trkpt>
      <trkpt lat="43.01636" lon="0.63451">
        <ele>830.45</ele>
        <time>2014-01-28T10:39:50Z</time>
      </trkpt>
      <trkpt lat="43.01634" lon="0.63445">
        <ele>829.78</ele>
        <time>2014-01-28T10:40:01Z</time>
      </trkpt>
      <trkpt lat="43.01631" lon="0.63441">
        <ele>829.77</ele>
        <time>2014-01-28T10:40:07Z</time>
      </trkpt>
      <trkpt lat="43.01627" lon="0.63435">
        <ele>829.07</ele>
        <time>2014-01-28T10:40:13Z</time>
      </trkpt>
      <trkpt lat="43.01625" lon="0.63429">
        <ele>831.98</ele>
        <time>2014-01-28T10:40:19Z</time>
      </trkpt>
      <trkpt lat="43.01623" lon="0.63423">
        <ele>833.67</ele>
        <time>2014-01-28T10:40:24Z</time>
      </trkpt>
      <trkpt lat="43.0162" lon="0.63418">
        <ele>835.57</ele>
        <time>2014-01-28T10:40:30Z</time>
      </trkpt>
      <trkpt lat="43.0162" lon="0.63411">
        <ele>838.03</ele>
        <time>2014-01-28T10:40:37Z</time>
      </trkpt>
      <trkpt lat="43.0162" lon="0.63405">
        <ele>839.63</ele>
        <time>2014-01-28T10:40:43Z</time>
      </trkpt>
      <trkpt lat="43.01619" lon="0.63398">
        <ele>840.74</ele>
        <time>2014-01-28T10:40:49Z</time>
      </trkpt>
      <trkpt lat="43.01619" lon="0.63391">
        <ele>842.12</ele>
        <time>2014-01-28T10:40:55Z</time>
      </trkpt>
      <trkpt lat="43.01618" lon="0.63385">
        <ele>842.58</ele>
        <time>2014-01-28T10:41:02Z</time>
      </trkpt>
      <trkpt lat="43.01615" lon="0.63379">
        <ele>843.08</ele>
        <time>2014-01-28T10:41:10Z</time>
      </trkpt>
      <trkpt lat="43.01612" lon="0.63373">
        <ele>843.25</ele>
        <time>2014-01-28T10:41:18Z</time>
      </trkpt>
      <trkpt lat="43.01609" lon="0.63369">
        <ele>844.49</ele>
        <time>2014-01-28T10:41:23Z</time>
      </trkpt>
      <trkpt lat="43.01606" lon="0.63364">
        <ele>843.38</ele>
        <time>2014-01-28T10:41:28Z</time>
      </trkpt>
      <trkpt lat="43.01603" lon="0.63359">
        <ele>843.25</ele>
        <time>2014-01-28T10:41:33Z</time>
      </trkpt>
      <trkpt lat="43.016" lon="0.63353">
        <ele>842.9</ele>
        <time>2014-01-28T10:41:39Z</time>
      </trkpt>
      <trkpt lat="43.01597" lon="0.63347">
        <ele>844.78</ele>
        <time>2014-01-28T10:41:45Z</time>
      </trkpt>
      <trkpt lat="43.01595" lon="0.63341">
        <ele>844.82</ele>
        <time>2014-01-28T10:41:51Z</time>
      </trkpt>
      <trkpt lat="43.01592" lon="0.63335">
        <ele>845.1</ele>
        <time>2014-01-28T10:41:57Z</time>
      </trkpt>
      <trkpt lat="43.0159" lon="0.63329">
        <ele>848.09</ele>
        <time>2014-01-28T10:42:04Z</time>
      </trkpt>
      <trkpt lat="43.0159" lon="0.63322">
        <ele>848.13</ele>
        <time>2014-01-28T10:42:10Z</time>
      </trkpt>
      <trkpt lat="43.01587" lon="0.63317">
        <ele>847.98</ele>
        <time>2014-01-28T10:42:15Z</time>
      </trkpt>
      <trkpt lat="43.01582" lon="0.63315">
        <ele>848.78</ele>
        <time>2014-01-28T10:42:20Z</time>
      </trkpt>
      <trkpt lat="43.01577" lon="0.63318">
        <ele>848.73</ele>
        <time>2014-01-28T10:42:25Z</time>
      </trkpt>
      <trkpt lat="43.01572" lon="0.63321">
        <ele>848.06</ele>
        <time>2014-01-28T10:42:30Z</time>
      </trkpt>
      <trkpt lat="43.01567" lon="0.63324">
        <ele>845.57</ele>
        <time>2014-01-28T10:42:35Z</time>
      </trkpt>
      <trkpt lat="43.01562" lon="0.63325">
        <ele>845.11</ele>
        <time>2014-01-28T10:42:40Z</time>
      </trkpt>
      <trkpt lat="43.01559" lon="0.63329">
        <ele>845.43</ele>
        <time>2014-01-28T10:42:45Z</time>
      </trkpt>
      <trkpt lat="43.01554" lon="0.6333">
        <ele>846.58</ele>
        <time>2014-01-28T10:42:50Z</time>
      </trkpt>
      <trkpt lat="43.0155" lon="0.63328">
        <ele>848.48</ele>
        <time>2014-01-28T10:42:59Z</time>
      </trkpt>
      <trkpt lat="43.01545" lon="0.6333">
        <ele>848.65</ele>
        <time>2014-01-28T10:43:04Z</time>
      </trkpt>
      <trkpt lat="43.01541" lon="0.63333">
        <ele>849.41</ele>
        <time>2014-01-28T10:43:10Z</time>
      </trkpt>
      <trkpt lat="43.01537" lon="0.63337">
        <ele>848.74</ele>
        <time>2014-01-28T10:43:15Z</time>
      </trkpt>
      <trkpt lat="43.01534" lon="0.63341">
        <ele>849.13</ele>
        <time>2014-01-28T10:43:20Z</time>
      </trkpt>
      <trkpt lat="43.0153" lon="0.63346">
        <ele>849.25</ele>
        <time>2014-01-28T10:43:37Z</time>
      </trkpt>
      <trkpt lat="43.01527" lon="0.63351">
        <ele>848.96</ele>
        <time>2014-01-28T10:43:48Z</time>
      </trkpt>
      <trkpt lat="43.01524" lon="0.63357">
        <ele>849.62</ele>
        <time>2014-01-28T10:43:55Z</time>
      </trkpt>
      <trkpt lat="43.01521" lon="0.63363">
        <ele>850.1</ele>
        <time>2014-01-28T10:44:01Z</time>
      </trkpt>
      <trkpt lat="43.01518" lon="0.63369">
        <ele>850.71</ele>
        <time>2014-01-28T10:44:07Z</time>
      </trkpt>
      <trkpt lat="43.01515" lon="0.63374">
        <ele>852.02</ele>
        <time>2014-01-28T10:44:13Z</time>
      </trkpt>
      <trkpt lat="43.01512" lon="0.63378">
        <ele>852.59</ele>
        <time>2014-01-28T10:44:19Z</time>
      </trkpt>
      <trkpt lat="43.01509" lon="0.63384">
        <ele>854.08</ele>
        <time>2014-01-28T10:44:28Z</time>
      </trkpt>
      <trkpt lat="43.01506" lon="0.63389">
        <ele>855.89</ele>
        <time>2014-01-28T10:45:19Z</time>
      </trkpt>
      <trkpt lat="43.01503" lon="0.63393">
        <ele>854.35</ele>
        <time>2014-01-28T10:45:26Z</time>
      </trkpt>
      <trkpt lat="43.01499" lon="0.63398">
        <ele>854.56</ele>
        <time>2014-01-28T10:45:33Z</time>
      </trkpt>
      <trkpt lat="43.01497" lon="0.63404">
        <ele>856.08</ele>
        <time>2014-01-28T10:45:40Z</time>
      </trkpt>
      <trkpt lat="43.01493" lon="0.63406">
        <ele>858.83</ele>
        <time>2014-01-28T10:45:49Z</time>
      </trkpt>
      <trkpt lat="43.01489" lon="0.6341">
        <ele>857.78</ele>
        <time>2014-01-28T10:46:10Z</time>
      </trkpt>
      <trkpt lat="43.01486" lon="0.63415">
        <ele>856.55</ele>
        <time>2014-01-28T10:46:18Z</time>
      </trkpt>
      <trkpt lat="43.01483" lon="0.63421">
        <ele>854.91</ele>
        <time>2014-01-28T10:46:26Z</time>
      </trkpt>
      <trkpt lat="43.01481" lon="0.63426">
        <ele>854.57</ele>
        <time>2014-01-28T10:46:33Z</time>
      </trkpt>
      <trkpt lat="43.01477" lon="0.63431">
        <ele>855.56</ele>
        <time>2014-01-28T10:46:43Z</time>
      </trkpt>
      <trkpt lat="43.01474" lon="0.63436">
        <ele>857.5</ele>
        <time>2014-01-28T10:46:51Z</time>
      </trkpt>
      <trkpt lat="43.01471" lon="0.63441">
        <ele>859.9</ele>
        <time>2014-01-28T10:47:06Z</time>
      </trkpt>
      <trkpt lat="43.01467" lon="0.63444">
        <ele>862.15</ele>
        <time>2014-01-28T10:47:16Z</time>
      </trkpt>
      <trkpt lat="43.01463" lon="0.63448">
        <ele>865.07</ele>
        <time>2014-01-28T10:47:28Z</time>
      </trkpt>
      <trkpt lat="43.01459" lon="0.63453">
        <ele>868.97</ele>
        <time>2014-01-28T10:47:43Z</time>
      </trkpt>
      <trkpt lat="43.01457" lon="0.63458">
        <ele>869.77</ele>
        <time>2014-01-28T10:47:55Z</time>
      </trkpt>
      <trkpt lat="43.01454" lon="0.63463">
        <ele>871.83</ele>
        <time>2014-01-28T10:48:07Z</time>
      </trkpt>
      <trkpt lat="43.01452" lon="0.63468">
        <ele>874.43</ele>
        <time>2014-01-28T10:48:24Z</time>
      </trkpt>
      <trkpt lat="43.0145" lon="0.63474">
        <ele>874.62</ele>
        <time>2014-01-28T10:48:43Z</time>
      </trkpt>
      <trkpt lat="43.01447" lon="0.63479">
        <ele>877.57</ele>
        <time>2014-01-28T10:49:07Z</time>
      </trkpt>
      <trkpt lat="43.01443" lon="0.63484">
        <ele>878.57</ele>
        <time>2014-01-28T10:49:13Z</time>
      </trkpt>
      <trkpt lat="43.01438" lon="0.63488">
        <ele>878.93</ele>
        <time>2014-01-28T10:49:19Z</time>
      </trkpt>
      <trkpt lat="43.01435" lon="0.63492">
        <ele>877.58</ele>
        <time>2014-01-28T10:49:25Z</time>
      </trkpt>
      <trkpt lat="43.01432" lon="0.63497">
        <ele>877.86</ele>
        <time>2014-01-28T10:49:40Z</time>
      </trkpt>
      <trkpt lat="43.01428" lon="0.635">
        <ele>882.87</ele>
        <time>2014-01-28T10:50:02Z</time>
      </trkpt>
      <trkpt lat="43.01424" lon="0.63504">
        <ele>883.1</ele>
        <time>2014-01-28T10:50:10Z</time>
      </trkpt>
      <trkpt lat="43.0142" lon="0.63509">
        <ele>884.3</ele>
        <time>2014-01-28T10:50:18Z</time>
      </trkpt>
      <trkpt lat="43.01418" lon="0.63515">
        <ele>890.61</ele>
        <time>2014-01-28T10:50:47Z</time>
      </trkpt>
      <trkpt lat="43.01416" lon="0.6352">
        <ele>891.68</ele>
        <time>2014-01-28T10:51:13Z</time>
      </trkpt>
      <trkpt lat="43.01413" lon="0.63525">
        <ele>890.73</ele>
        <time>2014-01-28T10:51:22Z</time>
      </trkpt>
      <trkpt lat="43.0141" lon="0.6353">
        <ele>889.27</ele>
        <time>2014-01-28T10:51:31Z</time>
      </trkpt>
      <trkpt lat="43.01407" lon="0.63535">
        <ele>891.09</ele>
        <time>2014-01-28T10:51:59Z</time>
      </trkpt>
      <trkpt lat="43.01404" lon="0.6354">
        <ele>892.23</ele>
        <time>2014-01-28T10:52:11Z</time>
      </trkpt>
      <trkpt lat="43.01402" lon="0.63547">
        <ele>896.5</ele>
        <time>2014-01-28T10:52:28Z</time>
      </trkpt>
      <trkpt lat="43.01399" lon="0.63552">
        <ele>898.99</ele>
        <time>2014-01-28T10:52:34Z</time>
      </trkpt>
      <trkpt lat="43.01396" lon="0.63556">
        <ele>899.76</ele>
        <time>2014-01-28T10:52:44Z</time>
      </trkpt>
      <trkpt lat="43.01394" lon="0.63562">
        <ele>901.45</ele>
        <time>2014-01-28T10:53:03Z</time>
      </trkpt>
      <trkpt lat="43.01392" lon="0.63568">
        <ele>902.25</ele>
        <time>2014-01-28T10:53:11Z</time>
      </trkpt>
      <trkpt lat="43.01391" lon="0.63574">
        <ele>904.32</ele>
        <time>2014-01-28T10:53:26Z</time>
      </trkpt>
      <trkpt lat="43.01389" lon="0.6358">
        <ele>906.81</ele>
        <time>2014-01-28T10:53:37Z</time>
      </trkpt>
      <trkpt lat="43.01389" lon="0.63586">
        <ele>910.59</ele>
        <time>2014-01-28T10:53:44Z</time>
      </trkpt>
      <trkpt lat="43.0139" lon="0.63593">
        <ele>909.79</ele>
        <time>2014-01-28T10:53:52Z</time>
      </trkpt>
      <trkpt lat="43.01389" lon="0.63599">
        <ele>908.4</ele>
        <time>2014-01-28T10:53:57Z</time>
      </trkpt>
      <trkpt lat="43.01387" lon="0.63606">
        <ele>910.82</ele>
        <time>2014-01-28T10:54:03Z</time>
      </trkpt>
      <trkpt lat="43.01384" lon="0.63611">
        <ele>911.27</ele>
        <time>2014-01-28T10:54:09Z</time>
      </trkpt>
      <trkpt lat="43.01382" lon="0.63617">
        <ele>910.73</ele>
        <time>2014-01-28T10:54:24Z</time>
      </trkpt>
      <trkpt lat="43.01381" lon="0.63625">
        <ele>910.89</ele>
        <time>2014-01-28T10:54:30Z</time>
      </trkpt>
      <trkpt lat="43.01381" lon="0.63631">
        <ele>911.06</ele>
        <time>2014-01-28T10:54:45Z</time>
      </trkpt>
      <trkpt lat="43.0138" lon="0.63638">
        <ele>910.87</ele>
        <time>2014-01-28T10:54:51Z</time>
      </trkpt>
      <trkpt lat="43.01378" lon="0.63644">
        <ele>910.02</ele>
        <time>2014-01-28T10:54:55Z</time>
      </trkpt>
      <trkpt lat="43.01377" lon="0.63651">
        <ele>908.44</ele>
        <time>2014-01-28T10:55:00Z</time>
      </trkpt>
      <trkpt lat="43.01377" lon="0.63657">
        <ele>908.06</ele>
        <time>2014-01-28T10:55:07Z</time>
      </trkpt>
      <trkpt lat="43.01376" lon="0.63664">
        <ele>899.78</ele>
        <time>2014-01-28T10:55:16Z</time>
      </trkpt>
      <trkpt lat="43.01374" lon="0.6367">
        <ele>906.61</ele>
        <time>2014-01-28T10:55:22Z</time>
      </trkpt>
      <trkpt lat="43.01376" lon="0.63676">
        <ele>905.07</ele>
        <time>2014-01-28T10:55:27Z</time>
      </trkpt>
      <trkpt lat="43.01375" lon="0.63683">
        <ele>906.66</ele>
        <time>2014-01-28T10:55:33Z</time>
      </trkpt>
      <trkpt lat="43.01373" lon="0.63689">
        <ele>909.2</ele>
        <time>2014-01-28T10:55:41Z</time>
      </trkpt>
      <trkpt lat="43.0137" lon="0.63695">
        <ele>909.68</ele>
        <time>2014-01-28T10:55:47Z</time>
      </trkpt>
      <trkpt lat="43.01369" lon="0.63702">
        <ele>910.1</ele>
        <time>2014-01-28T10:55:54Z</time>
      </trkpt>
      <trkpt lat="43.01367" lon="0.63708">
        <ele>910.8</ele>
        <time>2014-01-28T10:56:00Z</time>
      </trkpt>
      <trkpt lat="43.01364" lon="0.63714">
        <ele>911.03</ele>
        <time>2014-01-28T10:56:21Z</time>
      </trkpt>
      <trkpt lat="43.01362" lon="0.63719">
        <ele>910.8</ele>
        <time>2014-01-28T10:56:28Z</time>
      </trkpt>
      <trkpt lat="43.01361" lon="0.63726">
        <ele>911.58</ele>
        <time>2014-01-28T10:56:38Z</time>
      </trkpt>
      <trkpt lat="43.01357" lon="0.63729">
        <ele>913.05</ele>
        <time>2014-01-28T10:56:52Z</time>
      </trkpt>
      <trkpt lat="43.01354" lon="0.63734">
        <ele>910.3</ele>
        <time>2014-01-28T10:57:00Z</time>
      </trkpt>
      <trkpt lat="43.0135" lon="0.63738">
        <ele>909.38</ele>
        <time>2014-01-28T10:57:11Z</time>
      </trkpt>
      <trkpt lat="43.01346" lon="0.63741">
        <ele>910.49</ele>
        <time>2014-01-28T10:57:20Z</time>
      </trkpt>
      <trkpt lat="43.01342" lon="0.63745">
        <ele>911.39</ele>
        <time>2014-01-28T10:57:35Z</time>
      </trkpt>
      <trkpt lat="43.01338" lon="0.63749">
        <ele>910.59</ele>
        <time>2014-01-28T10:57:46Z</time>
      </trkpt>
      <trkpt lat="43.01334" lon="0.63751">
        <ele>913.15</ele>
        <time>2014-01-28T10:58:01Z</time>
      </trkpt>
      <trkpt lat="43.01329" lon="0.63753">
        <ele>912.4</ele>
        <time>2014-01-28T10:58:08Z</time>
      </trkpt>
      <trkpt lat="43.01324" lon="0.63753">
        <ele>913.1</ele>
        <time>2014-01-28T10:58:14Z</time>
      </trkpt>
      <trkpt lat="43.0132" lon="0.6375">
        <ele>911.51</ele>
        <time>2014-01-28T10:58:20Z</time>
      </trkpt>
      <trkpt lat="43.01315" lon="0.63748">
        <ele>914.5</ele>
        <time>2014-01-28T10:58:27Z</time>
      </trkpt>
      <trkpt lat="43.01311" lon="0.63745">
        <ele>921.09</ele>
        <time>2014-01-28T10:58:47Z</time>
      </trkpt>
      <trkpt lat="43.01308" lon="0.6374">
        <ele>922.4</ele>
        <time>2014-01-28T10:59:02Z</time>
      </trkpt>
      <trkpt lat="43.01304" lon="0.63737">
        <ele>923.41</ele>
        <time>2014-01-28T10:59:19Z</time>
      </trkpt>
      <trkpt lat="43.01301" lon="0.63732">
        <ele>922.21</ele>
        <time>2014-01-28T10:59:28Z</time>
      </trkpt>
      <trkpt lat="43.01297" lon="0.63728">
        <ele>922.63</ele>
        <time>2014-01-28T10:59:43Z</time>
      </trkpt>
      <trkpt lat="43.01293" lon="0.63724">
        <ele>923.35</ele>
        <time>2014-01-28T10:59:53Z</time>
      </trkpt>
      <trkpt lat="43.0129" lon="0.6372">
        <ele>923.79</ele>
        <time>2014-01-28T11:00:10Z</time>
      </trkpt>
      <trkpt lat="43.01286" lon="0.63715">
        <ele>926.13</ele>
        <time>2014-01-28T11:00:16Z</time>
      </trkpt>
      <trkpt lat="43.01283" lon="0.6371">
        <ele>928.33</ele>
        <time>2014-01-28T11:00:28Z</time>
      </trkpt>
      <trkpt lat="43.0128" lon="0.63705">
        <ele>928.65</ele>
        <time>2014-01-28T11:00:36Z</time>
      </trkpt>
      <trkpt lat="43.01277" lon="0.637">
        <ele>930.89</ele>
        <time>2014-01-28T11:00:44Z</time>
      </trkpt>
      <trkpt lat="43.01272" lon="0.63699">
        <ele>930.53</ele>
        <time>2014-01-28T11:00:54Z</time>
      </trkpt>
      <trkpt lat="43.01267" lon="0.63699">
        <ele>931.95</ele>
        <time>2014-01-28T11:01:03Z</time>
      </trkpt>
      <trkpt lat="43.01262" lon="0.63698">
        <ele>930.26</ele>
        <time>2014-01-28T11:01:08Z</time>
      </trkpt>
      <trkpt lat="43.01257" lon="0.63697">
        <ele>932.81</ele>
        <time>2014-01-28T11:01:27Z</time>
      </trkpt>
      <trkpt lat="43.01253" lon="0.63699">
        <ele>932.66</ele>
        <time>2014-01-28T11:01:33Z</time>
      </trkpt>
      <trkpt lat="43.01248" lon="0.637">
        <ele>933.35</ele>
        <time>2014-01-28T11:01:37Z</time>
      </trkpt>
      <trkpt lat="43.01243" lon="0.63702">
        <ele>932.32</ele>
        <time>2014-01-28T11:01:41Z</time>
      </trkpt>
      <trkpt lat="43.01238" lon="0.63705">
        <ele>931.31</ele>
        <time>2014-01-28T11:01:45Z</time>
      </trkpt>
      <trkpt lat="43.01233" lon="0.63706">
        <ele>931.69</ele>
        <time>2014-01-28T11:01:49Z</time>
      </trkpt>
      <trkpt lat="43.01229" lon="0.63709">
        <ele>932.75</ele>
        <time>2014-01-28T11:01:53Z</time>
      </trkpt>
      <trkpt lat="43.01224" lon="0.63713">
        <ele>932.86</ele>
        <time>2014-01-28T11:01:58Z</time>
      </trkpt>
      <trkpt lat="43.01222" lon="0.63718">
        <ele>932.28</ele>
        <time>2014-01-28T11:02:04Z</time>
      </trkpt>
      <trkpt lat="43.01218" lon="0.63724">
        <ele>931.88</ele>
        <time>2014-01-28T11:02:10Z</time>
      </trkpt>
      <trkpt lat="43.01216" lon="0.63729">
        <ele>929.96</ele>
        <time>2014-01-28T11:02:15Z</time>
      </trkpt>
      <trkpt lat="43.01216" lon="0.63736">
        <ele>927.28</ele>
        <time>2014-01-28T11:02:21Z</time>
      </trkpt>
      <trkpt lat="43.01212" lon="0.6374">
        <ele>928.89</ele>
        <time>2014-01-28T11:02:28Z</time>
      </trkpt>
      <trkpt lat="43.01209" lon="0.63746">
        <ele>927.99</ele>
        <time>2014-01-28T11:02:33Z</time>
      </trkpt>
      <trkpt lat="43.01206" lon="0.63751">
        <ele>927.44</ele>
        <time>2014-01-28T11:02:38Z</time>
      </trkpt>
      <trkpt lat="43.01203" lon="0.63757">
        <ele>925.29</ele>
        <time>2014-01-28T11:02:43Z</time>
      </trkpt>
      <trkpt lat="43.01201" lon="0.63763">
        <ele>925.14</ele>
        <time>2014-01-28T11:02:48Z</time>
      </trkpt>
      <trkpt lat="43.01199" lon="0.63769">
        <ele>924.69</ele>
        <time>2014-01-28T11:02:53Z</time>
      </trkpt>
      <trkpt lat="43.01198" lon="0.63775">
        <ele>924.94</ele>
        <time>2014-01-28T11:02:58Z</time>
      </trkpt>
      <trkpt lat="43.01195" lon="0.63782">
        <ele>924.38</ele>
        <time>2014-01-28T11:03:04Z</time>
      </trkpt>
      <trkpt lat="43.01194" lon="0.63787">
        <ele>924.8</ele>
        <time>2014-01-28T11:03:09Z</time>
      </trkpt>
      <trkpt lat="43.01192" lon="0.63793">
        <ele>926.11</ele>
        <time>2014-01-28T11:03:14Z</time>
      </trkpt>
      <trkpt lat="43.01189" lon="0.63799">
        <ele>929.35</ele>
        <time>2014-01-28T11:03:19Z</time>
      </trkpt>
      <trkpt lat="43.01186" lon="0.63805">
        <ele>930.23</ele>
        <time>2014-01-28T11:03:24Z</time>
      </trkpt>
      <trkpt lat="43.01185" lon="0.63811">
        <ele>931.71</ele>
        <time>2014-01-28T11:03:30Z</time>
      </trkpt>
      <trkpt lat="43.01183" lon="0.63818">
        <ele>931.7</ele>
        <time>2014-01-28T11:03:36Z</time>
      </trkpt>
      <trkpt lat="43.01182" lon="0.63824">
        <ele>931.71</ele>
        <time>2014-01-28T11:03:41Z</time>
      </trkpt>
      <trkpt lat="43.01179" lon="0.6383">
        <ele>931.88</ele>
        <time>2014-01-28T11:03:46Z</time>
      </trkpt>
      <trkpt lat="43.01177" lon="0.63836">
        <ele>932.04</ele>
        <time>2014-01-28T11:03:51Z</time>
      </trkpt>
      <trkpt lat="43.01175" lon="0.63841">
        <ele>932.46</ele>
        <time>2014-01-28T11:03:56Z</time>
      </trkpt>
      <trkpt lat="43.01173" lon="0.63847">
        <ele>932.55</ele>
        <time>2014-01-28T11:04:01Z</time>
      </trkpt>
      <trkpt lat="43.0117" lon="0.63851">
        <ele>932.71</ele>
        <time>2014-01-28T11:04:06Z</time>
      </trkpt>
      <trkpt lat="43.01168" lon="0.63857">
        <ele>932.31</ele>
        <time>2014-01-28T11:04:11Z</time>
      </trkpt>
      <trkpt lat="43.01165" lon="0.63863">
        <ele>931.56</ele>
        <time>2014-01-28T11:04:17Z</time>
      </trkpt>
      <trkpt lat="43.01163" lon="0.63869">
        <ele>931.55</ele>
        <time>2014-01-28T11:04:23Z</time>
      </trkpt>
      <trkpt lat="43.01161" lon="0.63875">
        <ele>931.61</ele>
        <time>2014-01-28T11:04:29Z</time>
      </trkpt>
      <trkpt lat="43.01159" lon="0.63881">
        <ele>931.2</ele>
        <time>2014-01-28T11:04:35Z</time>
      </trkpt>
      <trkpt lat="43.01156" lon="0.63886">
        <ele>931.12</ele>
        <time>2014-01-28T11:04:41Z</time>
      </trkpt>
      <trkpt lat="43.01153" lon="0.63892">
        <ele>932.35</ele>
        <time>2014-01-28T11:04:47Z</time>
      </trkpt>
      <trkpt lat="43.01151" lon="0.63897">
        <ele>932.29</ele>
        <time>2014-01-28T11:04:53Z</time>
      </trkpt>
      <trkpt lat="43.01148" lon="0.63902">
        <ele>931.61</ele>
        <time>2014-01-28T11:04:58Z</time>
      </trkpt>
      <trkpt lat="43.01144" lon="0.63906">
        <ele>931.84</ele>
        <time>2014-01-28T11:05:03Z</time>
      </trkpt>
      <trkpt lat="43.01142" lon="0.63912">
        <ele>933.74</ele>
        <time>2014-01-28T11:05:09Z</time>
      </trkpt>
      <trkpt lat="43.0114" lon="0.63918">
        <ele>932.37</ele>
        <time>2014-01-28T11:05:15Z</time>
      </trkpt>
      <trkpt lat="43.01137" lon="0.63924">
        <ele>931.91</ele>
        <time>2014-01-28T11:05:21Z</time>
      </trkpt>
      <trkpt lat="43.01135" lon="0.6393">
        <ele>931.76</ele>
        <time>2014-01-28T11:05:27Z</time>
      </trkpt>
      <trkpt lat="43.01131" lon="0.63935">
        <ele>931.97</ele>
        <time>2014-01-28T11:05:33Z</time>
      </trkpt>
      <trkpt lat="43.01129" lon="0.6394">
        <ele>933.47</ele>
        <time>2014-01-28T11:05:39Z</time>
      </trkpt>
      <trkpt lat="43.01126" lon="0.63946">
        <ele>931.58</ele>
        <time>2014-01-28T11:05:45Z</time>
      </trkpt>
      <trkpt lat="43.01123" lon="0.63951">
        <ele>930.94</ele>
        <time>2014-01-28T11:05:51Z</time>
      </trkpt>
      <trkpt lat="43.01119" lon="0.63954">
        <ele>931.51</ele>
        <time>2014-01-28T11:05:56Z</time>
      </trkpt>
      <trkpt lat="43.01117" lon="0.63959">
        <ele>929.57</ele>
        <time>2014-01-28T11:06:01Z</time>
      </trkpt>
      <trkpt lat="43.01113" lon="0.63964">
        <ele>928.56</ele>
        <time>2014-01-28T11:06:07Z</time>
      </trkpt>
      <trkpt lat="43.01109" lon="0.63969">
        <ele>929.71</ele>
        <time>2014-01-28T11:06:12Z</time>
      </trkpt>
      <trkpt lat="43.01106" lon="0.63974">
        <ele>928.48</ele>
        <time>2014-01-28T11:06:18Z</time>
      </trkpt>
      <trkpt lat="43.01103" lon="0.63978">
        <ele>928.22</ele>
        <time>2014-01-28T11:06:23Z</time>
      </trkpt>
      <trkpt lat="43.01099" lon="0.63982">
        <ele>930.24</ele>
        <time>2014-01-28T11:06:28Z</time>
      </trkpt>
      <trkpt lat="43.01096" lon="0.63987">
        <ele>931.44</ele>
        <time>2014-01-28T11:06:34Z</time>
      </trkpt>
      <trkpt lat="43.01092" lon="0.63993">
        <ele>931.42</ele>
        <time>2014-01-28T11:06:40Z</time>
      </trkpt>
      <trkpt lat="43.01089" lon="0.63997">
        <ele>931.21</ele>
        <time>2014-01-28T11:06:46Z</time>
      </trkpt>
      <trkpt lat="43.01087" lon="0.64003">
        <ele>933.74</ele>
        <time>2014-01-28T11:06:52Z</time>
      </trkpt>
      <trkpt lat="43.01083" lon="0.64007">
        <ele>933.04</ele>
        <time>2014-01-28T11:06:58Z</time>
      </trkpt>
      <trkpt lat="43.01078" lon="0.6401">
        <ele>934.7</ele>
        <time>2014-01-28T11:07:04Z</time>
      </trkpt>
      <trkpt lat="43.01076" lon="0.64016">
        <ele>936.13</ele>
        <time>2014-01-28T11:07:10Z</time>
      </trkpt>
      <trkpt lat="43.01074" lon="0.64023">
        <ele>936.12</ele>
        <time>2014-01-28T11:07:16Z</time>
      </trkpt>
      <trkpt lat="43.01072" lon="0.64029">
        <ele>935.26</ele>
        <time>2014-01-28T11:07:22Z</time>
      </trkpt>
      <trkpt lat="43.01069" lon="0.64034">
        <ele>935.74</ele>
        <time>2014-01-28T11:07:27Z</time>
      </trkpt>
      <trkpt lat="43.01067" lon="0.6404">
        <ele>937.1</ele>
        <time>2014-01-28T11:07:33Z</time>
      </trkpt>
      <trkpt lat="43.01063" lon="0.64045">
        <ele>937.74</ele>
        <time>2014-01-28T11:07:39Z</time>
      </trkpt>
      <trkpt lat="43.01061" lon="0.64051">
        <ele>937.14</ele>
        <time>2014-01-28T11:07:44Z</time>
      </trkpt>
      <trkpt lat="43.01058" lon="0.64056">
        <ele>937.15</ele>
        <time>2014-01-28T11:07:49Z</time>
      </trkpt>
      <trkpt lat="43.01055" lon="0.64061">
        <ele>935.84</ele>
        <time>2014-01-28T11:07:54Z</time>
      </trkpt>
      <trkpt lat="43.0105" lon="0.64065">
        <ele>935.95</ele>
        <time>2014-01-28T11:07:58Z</time>
      </trkpt>
      <trkpt lat="43.01046" lon="0.6407">
        <ele>936.42</ele>
        <time>2014-01-28T11:08:03Z</time>
      </trkpt>
      <trkpt lat="43.01044" lon="0.64076">
        <ele>938.74</ele>
        <time>2014-01-28T11:08:09Z</time>
      </trkpt>
      <trkpt lat="43.0104" lon="0.6408">
        <ele>940.3</ele>
        <time>2014-01-28T11:08:15Z</time>
      </trkpt>
      <trkpt lat="43.01037" lon="0.64085">
        <ele>941.56</ele>
        <time>2014-01-28T11:08:24Z</time>
      </trkpt>
      <trkpt lat="43.01034" lon="0.64091">
        <ele>939.77</ele>
        <time>2014-01-28T11:08:30Z</time>
      </trkpt>
      <trkpt lat="43.01031" lon="0.64095">
        <ele>939.22</ele>
        <time>2014-01-28T11:08:35Z</time>
      </trkpt>
      <trkpt lat="43.01028" lon="0.64099">
        <ele>938.96</ele>
        <time>2014-01-28T11:08:40Z</time>
      </trkpt>
      <trkpt lat="43.01024" lon="0.64102">
        <ele>938.92</ele>
        <time>2014-01-28T11:08:46Z</time>
      </trkpt>
      <trkpt lat="43.0102" lon="0.64107">
        <ele>938.09</ele>
        <time>2014-01-28T11:08:52Z</time>
      </trkpt>
      <trkpt lat="43.01016" lon="0.6411">
        <ele>937.41</ele>
        <time>2014-01-28T11:09:01Z</time>
      </trkpt>
      <trkpt lat="43.01011" lon="0.64112">
        <ele>937.7</ele>
        <time>2014-01-28T11:09:06Z</time>
      </trkpt>
      <trkpt lat="43.01006" lon="0.64113">
        <ele>938.18</ele>
        <time>2014-01-28T11:09:11Z</time>
      </trkpt>
      <trkpt lat="43.01001" lon="0.64116">
        <ele>938.72</ele>
        <time>2014-01-28T11:09:16Z</time>
      </trkpt>
      <trkpt lat="43.00996" lon="0.64115">
        <ele>939.86</ele>
        <time>2014-01-28T11:09:21Z</time>
      </trkpt>
      <trkpt lat="43.00992" lon="0.64119">
        <ele>937.54</ele>
        <time>2014-01-28T11:09:26Z</time>
      </trkpt>
      <trkpt lat="43.00987" lon="0.64119">
        <ele>938.75</ele>
        <time>2014-01-28T11:09:31Z</time>
      </trkpt>
      <trkpt lat="43.00982" lon="0.6412">
        <ele>939.62</ele>
        <time>2014-01-28T11:09:37Z</time>
      </trkpt>
      <trkpt lat="43.00978" lon="0.64124">
        <ele>942</ele>
        <time>2014-01-28T11:09:45Z</time>
      </trkpt>
      <trkpt lat="43.00973" lon="0.64125">
        <ele>945.11</ele>
        <time>2014-01-28T11:09:52Z</time>
      </trkpt>
      <trkpt lat="43.00968" lon="0.64123">
        <ele>948.19</ele>
        <time>2014-01-28T11:09:58Z</time>
      </trkpt>
      <trkpt lat="43.00963" lon="0.64124">
        <ele>947.56</ele>
        <time>2014-01-28T11:10:03Z</time>
      </trkpt>
      <trkpt lat="43.00959" lon="0.64126">
        <ele>947.41</ele>
        <time>2014-01-28T11:10:08Z</time>
      </trkpt>
      <trkpt lat="43.00954" lon="0.64128">
        <ele>946.39</ele>
        <time>2014-01-28T11:10:14Z</time>
      </trkpt>
      <trkpt lat="43.00949" lon="0.64128">
        <ele>946.83</ele>
        <time>2014-01-28T11:10:20Z</time>
      </trkpt>
      <trkpt lat="43.00944" lon="0.64128">
        <ele>945.84</ele>
        <time>2014-01-28T11:10:25Z</time>
      </trkpt>
      <trkpt lat="43.00939" lon="0.64127">
        <ele>948.5</ele>
        <time>2014-01-28T11:10:34Z</time>
      </trkpt>
      <trkpt lat="43.00934" lon="0.64126">
        <ele>949.91</ele>
        <time>2014-01-28T11:10:39Z</time>
      </trkpt>
      <trkpt lat="43.00929" lon="0.64125">
        <ele>950.83</ele>
        <time>2014-01-28T11:10:44Z</time>
      </trkpt>
      <trkpt lat="43.00925" lon="0.64122">
        <ele>952.84</ele>
        <time>2014-01-28T11:10:50Z</time>
      </trkpt>
      <trkpt lat="43.0092" lon="0.6412">
        <ele>955.13</ele>
        <time>2014-01-28T11:10:58Z</time>
      </trkpt>
      <trkpt lat="43.00915" lon="0.64122">
        <ele>955.74</ele>
        <time>2014-01-28T11:11:05Z</time>
      </trkpt>
      <trkpt lat="43.0091" lon="0.64119">
        <ele>957.63</ele>
        <time>2014-01-28T11:11:11Z</time>
      </trkpt>
      <trkpt lat="43.00905" lon="0.64117">
        <ele>957.07</ele>
        <time>2014-01-28T11:11:16Z</time>
      </trkpt>
      <trkpt lat="43.009" lon="0.64117">
        <ele>955.02</ele>
        <time>2014-01-28T11:11:22Z</time>
      </trkpt>
      <trkpt lat="43.00896" lon="0.64116">
        <ele>954</ele>
        <time>2014-01-28T11:11:28Z</time>
      </trkpt>
      <trkpt lat="43.00891" lon="0.64114">
        <ele>956.21</ele>
        <time>2014-01-28T11:11:36Z</time>
      </trkpt>
      <trkpt lat="43.00886" lon="0.64113">
        <ele>953.85</ele>
        <time>2014-01-28T11:11:42Z</time>
      </trkpt>
      <trkpt lat="43.00882" lon="0.64112">
        <ele>955.15</ele>
        <time>2014-01-28T11:11:47Z</time>
      </trkpt>
      <trkpt lat="43.00876" lon="0.64111">
        <ele>954.14</ele>
        <time>2014-01-28T11:11:53Z</time>
      </trkpt>
      <trkpt lat="43.00871" lon="0.64109">
        <ele>955.15</ele>
        <time>2014-01-28T11:12:00Z</time>
      </trkpt>
      <trkpt lat="43.00867" lon="0.64105">
        <ele>956.45</ele>
        <time>2014-01-28T11:12:05Z</time>
      </trkpt>
      <trkpt lat="43.00863" lon="0.64104">
        <ele>955.67</ele>
        <time>2014-01-28T11:12:11Z</time>
      </trkpt>
      <trkpt lat="43.00858" lon="0.64101">
        <ele>956.73</ele>
        <time>2014-01-28T11:12:21Z</time>
      </trkpt>
      <trkpt lat="43.00854" lon="0.64097">
        <ele>956.74</ele>
        <time>2014-01-28T11:12:28Z</time>
      </trkpt>
      <trkpt lat="43.0085" lon="0.64093">
        <ele>957.09</ele>
        <time>2014-01-28T11:12:35Z</time>
      </trkpt>
      <trkpt lat="43.00846" lon="0.64089">
        <ele>955.01</ele>
        <time>2014-01-28T11:12:41Z</time>
      </trkpt>
      <trkpt lat="43.00843" lon="0.64085">
        <ele>953.12</ele>
        <time>2014-01-28T11:12:49Z</time>
      </trkpt>
      <trkpt lat="43.00839" lon="0.64082">
        <ele>954.31</ele>
        <time>2014-01-28T11:12:54Z</time>
      </trkpt>
      <trkpt lat="43.00835" lon="0.64078">
        <ele>953.86</ele>
        <time>2014-01-28T11:12:58Z</time>
      </trkpt>
      <trkpt lat="43.0083" lon="0.64076">
        <ele>952.31</ele>
        <time>2014-01-28T11:13:03Z</time>
      </trkpt>
      <trkpt lat="43.00825" lon="0.64071">
        <ele>953.54</ele>
        <time>2014-01-28T11:13:10Z</time>
      </trkpt>
      <trkpt lat="43.00821" lon="0.64067">
        <ele>953.77</ele>
        <time>2014-01-28T11:13:15Z</time>
      </trkpt>
      <trkpt lat="43.00817" lon="0.64064">
        <ele>949.23</ele>
        <time>2014-01-28T11:13:20Z</time>
      </trkpt>
      <trkpt lat="43.00813" lon="0.64059">
        <ele>949.76</ele>
        <time>2014-01-28T11:13:25Z</time>
      </trkpt>
      <trkpt lat="43.0081" lon="0.64054">
        <ele>952.72</ele>
        <time>2014-01-28T11:13:29Z</time>
      </trkpt>
      <trkpt lat="43.00806" lon="0.6405">
        <ele>951.36</ele>
        <time>2014-01-28T11:13:34Z</time>
      </trkpt>
      <trkpt lat="43.00802" lon="0.64046">
        <ele>949.19</ele>
        <time>2014-01-28T11:13:39Z</time>
      </trkpt>
      <trkpt lat="43.00797" lon="0.64042">
        <ele>948.68</ele>
        <time>2014-01-28T11:13:46Z</time>
      </trkpt>
      <trkpt lat="43.00793" lon="0.64038">
        <ele>948.34</ele>
        <time>2014-01-28T11:13:51Z</time>
      </trkpt>
      <trkpt lat="43.00788" lon="0.64036">
        <ele>948.2</ele>
        <time>2014-01-28T11:13:55Z</time>
      </trkpt>
      <trkpt lat="43.00783" lon="0.64035">
        <ele>947.73</ele>
        <time>2014-01-28T11:13:59Z</time>
      </trkpt>
      <trkpt lat="43.00778" lon="0.64034">
        <ele>946.42</ele>
        <time>2014-01-28T11:14:03Z</time>
      </trkpt>
      <trkpt lat="43.00772" lon="0.64033">
        <ele>945.11</ele>
        <time>2014-01-28T11:14:09Z</time>
      </trkpt>
      <trkpt lat="43.00768" lon="0.64032">
        <ele>943.61</ele>
        <time>2014-01-28T11:14:13Z</time>
      </trkpt>
      <trkpt lat="43.00763" lon="0.64031">
        <ele>943.95</ele>
        <time>2014-01-28T11:14:17Z</time>
      </trkpt>
      <trkpt lat="43.00757" lon="0.6403">
        <ele>942.28</ele>
        <time>2014-01-28T11:14:22Z</time>
      </trkpt>
      <trkpt lat="43.00752" lon="0.6403">
        <ele>941.84</ele>
        <time>2014-01-28T11:14:27Z</time>
      </trkpt>
      <trkpt lat="43.00747" lon="0.64028">
        <ele>943.4</ele>
        <time>2014-01-28T11:14:31Z</time>
      </trkpt>
      <trkpt lat="43.00742" lon="0.64025">
        <ele>945.28</ele>
        <time>2014-01-28T11:14:35Z</time>
      </trkpt>
      <trkpt lat="43.00738" lon="0.6402">
        <ele>949.03</ele>
        <time>2014-01-28T11:14:39Z</time>
      </trkpt>
      <trkpt lat="43.00734" lon="0.64017">
        <ele>949.49</ele>
        <time>2014-01-28T11:14:45Z</time>
      </trkpt>
      <trkpt lat="43.0073" lon="0.64014">
        <ele>947.35</ele>
        <time>2014-01-28T11:14:52Z</time>
      </trkpt>
      <trkpt lat="43.00725" lon="0.6401">
        <ele>946.25</ele>
        <time>2014-01-28T11:15:00Z</time>
      </trkpt>
      <trkpt lat="43.00721" lon="0.64006">
        <ele>943.88</ele>
        <time>2014-01-28T11:15:04Z</time>
      </trkpt>
      <trkpt lat="43.00717" lon="0.64002">
        <ele>943.24</ele>
        <time>2014-01-28T11:15:09Z</time>
      </trkpt>
      <trkpt lat="43.00712" lon="0.64005">
        <ele>942.22</ele>
        <time>2014-01-28T11:15:14Z</time>
      </trkpt>
      <trkpt lat="43.00707" lon="0.64005">
        <ele>940.63</ele>
        <time>2014-01-28T11:15:18Z</time>
      </trkpt>
      <trkpt lat="43.00703" lon="0.64004">
        <ele>939.77</ele>
        <time>2014-01-28T11:15:28Z</time>
      </trkpt>
      <trkpt lat="43.00698" lon="0.64005">
        <ele>938.66</ele>
        <time>2014-01-28T11:15:34Z</time>
      </trkpt>
      <trkpt lat="43.00693" lon="0.64003">
        <ele>938.66</ele>
        <time>2014-01-28T11:15:41Z</time>
      </trkpt>
      <trkpt lat="43.00689" lon="0.64006">
        <ele>936.73</ele>
        <time>2014-01-28T11:15:46Z</time>
      </trkpt>
      <trkpt lat="43.00685" lon="0.64008">
        <ele>938.42</ele>
        <time>2014-01-28T11:16:05Z</time>
      </trkpt>
      <trkpt lat="43.00681" lon="0.64013">
        <ele>940.89</ele>
        <time>2014-01-28T11:16:10Z</time>
      </trkpt>
      <trkpt lat="43.00677" lon="0.64017">
        <ele>942.51</ele>
        <time>2014-01-28T11:16:15Z</time>
      </trkpt>
      <trkpt lat="43.00672" lon="0.64022">
        <ele>942.29</ele>
        <time>2014-01-28T11:16:20Z</time>
      </trkpt>
      <trkpt lat="43.00669" lon="0.64026">
        <ele>940.97</ele>
        <time>2014-01-28T11:16:24Z</time>
      </trkpt>
      <trkpt lat="43.00665" lon="0.64031">
        <ele>939.4</ele>
        <time>2014-01-28T11:16:28Z</time>
      </trkpt>
      <trkpt lat="43.0066" lon="0.64035">
        <ele>938.35</ele>
        <time>2014-01-28T11:16:33Z</time>
      </trkpt>
      <trkpt lat="43.00656" lon="0.64039">
        <ele>937.07</ele>
        <time>2014-01-28T11:16:38Z</time>
      </trkpt>
      <trkpt lat="43.00651" lon="0.6404">
        <ele>937.15</ele>
        <time>2014-01-28T11:16:42Z</time>
      </trkpt>
      <trkpt lat="43.00647" lon="0.64042">
        <ele>937.68</ele>
        <time>2014-01-28T11:16:46Z</time>
      </trkpt>
      <trkpt lat="43.00642" lon="0.64043">
        <ele>936.37</ele>
        <time>2014-01-28T11:16:51Z</time>
      </trkpt>
      <trkpt lat="43.00637" lon="0.64044">
        <ele>935.6</ele>
        <time>2014-01-28T11:16:56Z</time>
      </trkpt>
      <trkpt lat="43.00632" lon="0.64046">
        <ele>935.15</ele>
        <time>2014-01-28T11:17:01Z</time>
      </trkpt>
      <trkpt lat="43.00627" lon="0.64046">
        <ele>934.88</ele>
        <time>2014-01-28T11:17:06Z</time>
      </trkpt>
      <trkpt lat="43.00623" lon="0.64049">
        <ele>932.9</ele>
        <time>2014-01-28T11:17:10Z</time>
      </trkpt>
      <trkpt lat="43.00619" lon="0.64053">
        <ele>932.74</ele>
        <time>2014-01-28T11:17:14Z</time>
      </trkpt>
      <trkpt lat="43.00615" lon="0.64057">
        <ele>932.65</ele>
        <time>2014-01-28T11:17:18Z</time>
      </trkpt>
      <trkpt lat="43.00611" lon="0.64061">
        <ele>933</ele>
        <time>2014-01-28T11:17:22Z</time>
      </trkpt>
      <trkpt lat="43.00607" lon="0.64064">
        <ele>932.28</ele>
        <time>2014-01-28T11:17:26Z</time>
      </trkpt>
      <trkpt lat="43.00602" lon="0.64067">
        <ele>931.28</ele>
        <time>2014-01-28T11:17:30Z</time>
      </trkpt>
      <trkpt lat="43.00599" lon="0.6407">
        <ele>929.91</ele>
        <time>2014-01-28T11:17:34Z</time>
      </trkpt>
      <trkpt lat="43.00594" lon="0.64074">
        <ele>930.69</ele>
        <time>2014-01-28T11:17:39Z</time>
      </trkpt>
      <trkpt lat="43.00591" lon="0.6408">
        <ele>930.25</ele>
        <time>2014-01-28T11:17:44Z</time>
      </trkpt>
      <trkpt lat="43.00586" lon="0.64084">
        <ele>930.68</ele>
        <time>2014-01-28T11:17:49Z</time>
      </trkpt>
      <trkpt lat="43.00583" lon="0.64088">
        <ele>929.11</ele>
        <time>2014-01-28T11:17:53Z</time>
      </trkpt>
      <trkpt lat="43.00578" lon="0.64092">
        <ele>927.7</ele>
        <time>2014-01-28T11:17:58Z</time>
      </trkpt>
      <trkpt lat="43.00574" lon="0.64096">
        <ele>928.03</ele>
        <time>2014-01-28T11:18:03Z</time>
      </trkpt>
      <trkpt lat="43.00571" lon="0.641">
        <ele>926.53</ele>
        <time>2014-01-28T11:18:07Z</time>
      </trkpt>
      <trkpt lat="43.00567" lon="0.64103">
        <ele>926.13</ele>
        <time>2014-01-28T11:18:11Z</time>
      </trkpt>
      <trkpt lat="43.00562" lon="0.64106">
        <ele>928.46</ele>
        <time>2014-01-28T11:18:16Z</time>
      </trkpt>
      <trkpt lat="43.00558" lon="0.6411">
        <ele>928.73</ele>
        <time>2014-01-28T11:18:21Z</time>
      </trkpt>
      <trkpt lat="43.00553" lon="0.64113">
        <ele>928.29</ele>
        <time>2014-01-28T11:18:26Z</time>
      </trkpt>
      <trkpt lat="43.00549" lon="0.64116">
        <ele>930.25</ele>
        <time>2014-01-28T11:18:38Z</time>
      </trkpt>
      <trkpt lat="43.00544" lon="0.64119">
        <ele>930.88</ele>
        <time>2014-01-28T11:18:42Z</time>
      </trkpt>
      <trkpt lat="43.00541" lon="0.64124">
        <ele>928.49</ele>
        <time>2014-01-28T11:18:46Z</time>
      </trkpt>
      <trkpt lat="43.00537" lon="0.6413">
        <ele>928.13</ele>
        <time>2014-01-28T11:18:50Z</time>
      </trkpt>
      <trkpt lat="43.00534" lon="0.64135">
        <ele>928.51</ele>
        <time>2014-01-28T11:18:54Z</time>
      </trkpt>
      <trkpt lat="43.00529" lon="0.6414">
        <ele>927.65</ele>
        <time>2014-01-28T11:18:58Z</time>
      </trkpt>
      <trkpt lat="43.00525" lon="0.64143">
        <ele>927.95</ele>
        <time>2014-01-28T11:19:02Z</time>
      </trkpt>
      <trkpt lat="43.0052" lon="0.64147">
        <ele>928.13</ele>
        <time>2014-01-28T11:19:06Z</time>
      </trkpt>
      <trkpt lat="43.00516" lon="0.64148">
        <ele>927.61</ele>
        <time>2014-01-28T11:19:08Z</time>
      </trkpt>
      <trkpt lat="43.00511" lon="0.64149">
        <ele>927.1</ele>
        <time>2014-01-28T11:19:10Z</time>
      </trkpt>
      <trkpt lat="43.00506" lon="0.64152">
        <ele>926.38</ele>
        <time>2014-01-28T11:19:14Z</time>
      </trkpt>
      <trkpt lat="43.00503" lon="0.64155">
        <ele>923.59</ele>
        <time>2014-01-28T11:19:18Z</time>
      </trkpt>
      <trkpt lat="43.005" lon="0.64161">
        <ele>921.75</ele>
        <time>2014-01-28T11:19:22Z</time>
      </trkpt>
      <trkpt lat="43.00498" lon="0.64167">
        <ele>923.4</ele>
        <time>2014-01-28T11:19:27Z</time>
      </trkpt>
      <trkpt lat="43.00495" lon="0.64172">
        <ele>925.4</ele>
        <time>2014-01-28T11:19:32Z</time>
      </trkpt>
      <trkpt lat="43.00499" lon="0.64177">
        <ele>927.03</ele>
        <time>2014-01-28T11:19:40Z</time>
      </trkpt>
      <trkpt lat="43.00501" lon="0.64182">
        <ele>929.3</ele>
        <time>2014-01-28T11:20:00Z</time>
      </trkpt>
      <trkpt lat="43.00499" lon="0.64188">
        <ele>934.1</ele>
        <time>2014-01-28T11:21:18Z</time>
      </trkpt>
      <trkpt lat="43.00501" lon="0.64193">
        <ele>941.36</ele>
        <time>2014-01-28T11:21:45Z</time>
      </trkpt>
      <trkpt lat="43.00502" lon="0.64184">
        <ele>941.22</ele>
        <time>2014-01-28T11:22:12Z</time>
      </trkpt>
      <trkpt lat="43.00498" lon="0.64179">
        <ele>940.95</ele>
        <time>2014-01-28T11:22:14Z</time>
      </trkpt>
      <trkpt lat="43.005" lon="0.64173">
        <ele>936.65</ele>
        <time>2014-01-28T11:22:18Z</time>
      </trkpt>
      <trkpt lat="43.005" lon="0.64179">
        <ele>931.28</ele>
        <time>2014-01-28T11:22:41Z</time>
      </trkpt>
      <trkpt lat="43.005" lon="0.64185">
        <ele>933.15</ele>
        <time>2014-01-28T11:22:58Z</time>
      </trkpt>
      <trkpt lat="43.00496" lon="0.6419">
        <ele>933.58</ele>
        <time>2014-01-28T11:23:05Z</time>
      </trkpt>
      <trkpt lat="43.00491" lon="0.64193">
        <ele>933.93</ele>
        <time>2014-01-28T11:23:13Z</time>
      </trkpt>
      <trkpt lat="43.00496" lon="0.64189">
        <ele>935.91</ele>
        <time>2014-01-28T11:23:47Z</time>
      </trkpt>
      <trkpt lat="43.00501" lon="0.64187">
        <ele>934.45</ele>
        <time>2014-01-28T11:23:54Z</time>
      </trkpt>
      <trkpt lat="43.00505" lon="0.64185">
        <ele>933.18</ele>
        <time>2014-01-28T11:24:09Z</time>
      </trkpt>
      <trkpt lat="43.00508" lon="0.64181">
        <ele>933.56</ele>
        <time>2014-01-28T11:24:29Z</time>
      </trkpt>
      <trkpt lat="43.00512" lon="0.64185">
        <ele>928.35</ele>
        <time>2014-01-28T11:24:51Z</time>
      </trkpt>
      <trkpt lat="43.00512" lon="0.64192">
        <ele>928.71</ele>
        <time>2014-01-28T11:25:02Z</time>
      </trkpt>
      <trkpt lat="43.00513" lon="0.64184">
        <ele>930.2</ele>
        <time>2014-01-28T11:25:24Z</time>
      </trkpt>
      <trkpt lat="43.00515" lon="0.64179">
        <ele>929.68</ele>
        <time>2014-01-28T11:25:28Z</time>
      </trkpt>
      <trkpt lat="43.0052" lon="0.64178">
        <ele>929.44</ele>
        <time>2014-01-28T11:25:34Z</time>
      </trkpt>
      <trkpt lat="43.00516" lon="0.64182">
        <ele>929.26</ele>
        <time>2014-01-28T11:25:43Z</time>
      </trkpt>
      <trkpt lat="43.00511" lon="0.64185">
        <ele>929.3</ele>
        <time>2014-01-28T11:25:46Z</time>
      </trkpt>
      <trkpt lat="43.00508" lon="0.6419">
        <ele>929.07</ele>
        <time>2014-01-28T11:25:57Z</time>
      </trkpt>
      <trkpt lat="43.00508" lon="0.64181">
        <ele>929.04</ele>
        <time>2014-01-28T11:26:10Z</time>
      </trkpt>
      <trkpt lat="43.00508" lon="0.64175">
        <ele>928.49</ele>
        <time>2014-01-28T11:26:14Z</time>
      </trkpt>
      <trkpt lat="43.00511" lon="0.6418">
        <ele>930.06</ele>
        <time>2014-01-28T11:26:19Z</time>
      </trkpt>
      <trkpt lat="43.0051" lon="0.64186">
        <ele>930.84</ele>
        <time>2014-01-28T11:26:23Z</time>
      </trkpt>
      <trkpt lat="43.0051" lon="0.64192">
        <ele>930.05</ele>
        <time>2014-01-28T11:26:30Z</time>
      </trkpt>
      <trkpt lat="43.00514" lon="0.64197">
        <ele>930.01</ele>
        <time>2014-01-28T11:26:36Z</time>
      </trkpt>
      <trkpt lat="43.00518" lon="0.64179">
        <ele>931.17</ele>
        <time>2014-01-28T11:27:00Z</time>
      </trkpt>
      <trkpt lat="43.00511" lon="0.64184">
        <ele>931.14</ele>
        <time>2014-01-28T11:27:02Z</time>
      </trkpt>
      <trkpt lat="43.00507" lon="0.64186">
        <ele>931.81</ele>
        <time>2014-01-28T11:27:07Z</time>
      </trkpt>
      <trkpt lat="43.00502" lon="0.64187">
        <ele>938.91</ele>
        <time>2014-01-28T11:28:26Z</time>
      </trkpt>
      <trkpt lat="43.00506" lon="0.64183">
        <ele>932.64</ele>
        <time>2014-01-28T11:28:48Z</time>
      </trkpt>
      <trkpt lat="43.00503" lon="0.64187">
        <ele>937.97</ele>
        <time>2014-01-28T11:30:16Z</time>
      </trkpt>
      <trkpt lat="43.00499" lon="0.64191">
        <ele>943.48</ele>
        <time>2014-01-28T11:35:45Z</time>
      </trkpt>
      <trkpt lat="43.00495" lon="0.64195">
        <ele>945.86</ele>
        <time>2014-01-28T11:41:40Z</time>
      </trkpt>
      <trkpt lat="43.00493" lon="0.642">
        <ele>952.27</ele>
        <time>2014-01-28T11:43:28Z</time>
      </trkpt>
      <trkpt lat="43.00497" lon="0.64201">
        <ele>949.97</ele>
        <time>2014-01-28T11:48:17Z</time>
      </trkpt>
      <trkpt lat="43.00497" lon="0.64195">
        <ele>945.42</ele>
        <time>2014-01-28T11:57:42Z</time>
      </trkpt>
      <trkpt lat="43.005" lon="0.64199">
        <ele>943.12</ele>
        <time>2014-01-28T12:00:12Z</time>
      </trkpt>
      <trkpt lat="43.00502" lon="0.64193">
        <ele>940.36</ele>
        <time>2014-01-28T12:01:30Z</time>
      </trkpt>
      <trkpt lat="43.00506" lon="0.6419">
        <ele>937.91</ele>
        <time>2014-01-28T12:02:57Z</time>
      </trkpt>
      <trkpt lat="43.0051" lon="0.64191">
        <ele>934.54</ele>
        <time>2014-01-28T12:03:03Z</time>
      </trkpt>
      <trkpt lat="43.00509" lon="0.64185">
        <ele>932.82</ele>
        <time>2014-01-28T12:04:28Z</time>
      </trkpt>
      <trkpt lat="43.00507" lon="0.64179">
        <ele>934.69</ele>
        <time>2014-01-28T12:04:40Z</time>
      </trkpt>
      <trkpt lat="43.00508" lon="0.64185">
        <ele>932.87</ele>
        <time>2014-01-28T12:05:29Z</time>
      </trkpt>
      <trkpt lat="43.00506" lon="0.64191">
        <ele>940.09</ele>
        <time>2014-01-28T12:06:47Z</time>
      </trkpt>
      <trkpt lat="43.00508" lon="0.64186">
        <ele>937.23</ele>
        <time>2014-01-28T12:07:05Z</time>
      </trkpt>
      <trkpt lat="43.00504" lon="0.64181">
        <ele>933.62</ele>
        <time>2014-01-28T12:08:33Z</time>
      </trkpt>
      <trkpt lat="43.00509" lon="0.6418">
        <ele>934.56</ele>
        <time>2014-01-28T12:11:47Z</time>
      </trkpt>
      <trkpt lat="43.00505" lon="0.64183">
        <ele>934.36</ele>
        <time>2014-01-28T12:12:35Z</time>
      </trkpt>
      <trkpt lat="43.005" lon="0.64183">
        <ele>935.21</ele>
        <time>2014-01-28T12:13:54Z</time>
      </trkpt>
      <trkpt lat="43.00499" lon="0.64177">
        <ele>931.97</ele>
        <time>2014-01-28T12:14:00Z</time>
      </trkpt>
      <trkpt lat="43.00502" lon="0.64171">
        <ele>933.97</ele>
        <time>2014-01-28T12:14:04Z</time>
      </trkpt>
      <trkpt lat="43.00505" lon="0.64165">
        <ele>934.42</ele>
        <time>2014-01-28T12:14:08Z</time>
      </trkpt>
      <trkpt lat="43.00509" lon="0.64162">
        <ele>936.17</ele>
        <time>2014-01-28T12:14:14Z</time>
      </trkpt>
      <trkpt lat="43.00514" lon="0.64159">
        <ele>935.63</ele>
        <time>2014-01-28T12:14:20Z</time>
      </trkpt>
      <trkpt lat="43.00518" lon="0.64156">
        <ele>935.65</ele>
        <time>2014-01-28T12:14:26Z</time>
      </trkpt>
      <trkpt lat="43.00523" lon="0.64152">
        <ele>932.5</ele>
        <time>2014-01-28T12:14:32Z</time>
      </trkpt>
      <trkpt lat="43.00526" lon="0.64148">
        <ele>932.67</ele>
        <time>2014-01-28T12:14:37Z</time>
      </trkpt>
      <trkpt lat="43.0053" lon="0.64144">
        <ele>930.85</ele>
        <time>2014-01-28T12:14:42Z</time>
      </trkpt>
      <trkpt lat="43.00534" lon="0.6414">
        <ele>928.23</ele>
        <time>2014-01-28T12:14:47Z</time>
      </trkpt>
      <trkpt lat="43.00538" lon="0.64136">
        <ele>927.09</ele>
        <time>2014-01-28T12:14:52Z</time>
      </trkpt>
      <trkpt lat="43.00542" lon="0.64132">
        <ele>924.74</ele>
        <time>2014-01-28T12:14:57Z</time>
      </trkpt>
      <trkpt lat="43.00546" lon="0.64129">
        <ele>922.43</ele>
        <time>2014-01-28T12:15:01Z</time>
      </trkpt>
      <trkpt lat="43.00551" lon="0.64127">
        <ele>923.86</ele>
        <time>2014-01-28T12:15:06Z</time>
      </trkpt>
      <trkpt lat="43.00555" lon="0.64122">
        <ele>923.9</ele>
        <time>2014-01-28T12:15:12Z</time>
      </trkpt>
      <trkpt lat="43.0056" lon="0.6412">
        <ele>923.15</ele>
        <time>2014-01-28T12:15:17Z</time>
      </trkpt>
      <trkpt lat="43.00564" lon="0.64116">
        <ele>924.28</ele>
        <time>2014-01-28T12:15:23Z</time>
      </trkpt>
      <trkpt lat="43.00567" lon="0.64112">
        <ele>925.54</ele>
        <time>2014-01-28T12:15:28Z</time>
      </trkpt>
      <trkpt lat="43.00572" lon="0.64109">
        <ele>927.88</ele>
        <time>2014-01-28T12:15:33Z</time>
      </trkpt>
      <trkpt lat="43.00575" lon="0.64104">
        <ele>928.64</ele>
        <time>2014-01-28T12:15:44Z</time>
      </trkpt>
      <trkpt lat="43.00579" lon="0.64101">
        <ele>929.25</ele>
        <time>2014-01-28T12:15:48Z</time>
      </trkpt>
      <trkpt lat="43.00582" lon="0.64097">
        <ele>931.4</ele>
        <time>2014-01-28T12:15:52Z</time>
      </trkpt>
      <trkpt lat="43.00587" lon="0.64093">
        <ele>932.54</ele>
        <time>2014-01-28T12:15:57Z</time>
      </trkpt>
      <trkpt lat="43.00592" lon="0.64089">
        <ele>932.31</ele>
        <time>2014-01-28T12:16:02Z</time>
      </trkpt>
      <trkpt lat="43.00596" lon="0.64086">
        <ele>932.33</ele>
        <time>2014-01-28T12:16:07Z</time>
      </trkpt>
      <trkpt lat="43.00599" lon="0.64082">
        <ele>931.61</ele>
        <time>2014-01-28T12:16:12Z</time>
      </trkpt>
      <trkpt lat="43.00603" lon="0.64077">
        <ele>931.06</ele>
        <time>2014-01-28T12:16:17Z</time>
      </trkpt>
      <trkpt lat="43.00607" lon="0.64073">
        <ele>930.45</ele>
        <time>2014-01-28T12:16:22Z</time>
      </trkpt>
      <trkpt lat="43.00611" lon="0.64068">
        <ele>930.31</ele>
        <time>2014-01-28T12:16:27Z</time>
      </trkpt>
      <trkpt lat="43.00615" lon="0.64064">
        <ele>929.74</ele>
        <time>2014-01-28T12:16:33Z</time>
      </trkpt>
      <trkpt lat="43.00619" lon="0.64061">
        <ele>927.95</ele>
        <time>2014-01-28T12:16:39Z</time>
      </trkpt>
      <trkpt lat="43.00623" lon="0.64057">
        <ele>928.48</ele>
        <time>2014-01-28T12:16:44Z</time>
      </trkpt>
      <trkpt lat="43.00627" lon="0.64054">
        <ele>931.19</ele>
        <time>2014-01-28T12:16:50Z</time>
      </trkpt>
      <trkpt lat="43.00632" lon="0.64054">
        <ele>933.61</ele>
        <time>2014-01-28T12:16:57Z</time>
      </trkpt>
      <trkpt lat="43.00637" lon="0.64052">
        <ele>934.71</ele>
        <time>2014-01-28T12:17:04Z</time>
      </trkpt>
      <trkpt lat="43.00642" lon="0.6405">
        <ele>936.37</ele>
        <time>2014-01-28T12:17:10Z</time>
      </trkpt>
      <trkpt lat="43.00646" lon="0.64047">
        <ele>934.85</ele>
        <time>2014-01-28T12:17:16Z</time>
      </trkpt>
      <trkpt lat="43.00651" lon="0.64044">
        <ele>935.24</ele>
        <time>2014-01-28T12:17:22Z</time>
      </trkpt>
      <trkpt lat="43.00657" lon="0.64042">
        <ele>932.66</ele>
        <time>2014-01-28T12:17:28Z</time>
      </trkpt>
      <trkpt lat="43.00662" lon="0.6404">
        <ele>932.05</ele>
        <time>2014-01-28T12:17:32Z</time>
      </trkpt>
      <trkpt lat="43.00666" lon="0.64035">
        <ele>932.38</ele>
        <time>2014-01-28T12:17:36Z</time>
      </trkpt>
      <trkpt lat="43.0067" lon="0.64029">
        <ele>929.89</ele>
        <time>2014-01-28T12:17:41Z</time>
      </trkpt>
      <trkpt lat="43.00674" lon="0.64025">
        <ele>930.3</ele>
        <time>2014-01-28T12:17:46Z</time>
      </trkpt>
      <trkpt lat="43.00677" lon="0.64019">
        <ele>930.93</ele>
        <time>2014-01-28T12:17:51Z</time>
      </trkpt>
      <trkpt lat="43.00682" lon="0.64017">
        <ele>931.29</ele>
        <time>2014-01-28T12:17:55Z</time>
      </trkpt>
      <trkpt lat="43.00686" lon="0.64015">
        <ele>931.56</ele>
        <time>2014-01-28T12:18:00Z</time>
      </trkpt>
      <trkpt lat="43.00692" lon="0.64016">
        <ele>931.83</ele>
        <time>2014-01-28T12:18:09Z</time>
      </trkpt>
      <trkpt lat="43.00697" lon="0.64016">
        <ele>930.01</ele>
        <time>2014-01-28T12:18:13Z</time>
      </trkpt>
      <trkpt lat="43.00701" lon="0.64015">
        <ele>928.41</ele>
        <time>2014-01-28T12:18:27Z</time>
      </trkpt>
      <trkpt lat="43.00706" lon="0.64015">
        <ele>930.29</ele>
        <time>2014-01-28T12:18:34Z</time>
      </trkpt>
      <trkpt lat="43.00711" lon="0.64016">
        <ele>931.21</ele>
        <time>2014-01-28T12:18:39Z</time>
      </trkpt>
      <trkpt lat="43.00715" lon="0.6402">
        <ele>931.77</ele>
        <time>2014-01-28T12:18:44Z</time>
      </trkpt>
      <trkpt lat="43.00719" lon="0.64024">
        <ele>933.56</ele>
        <time>2014-01-28T12:18:49Z</time>
      </trkpt>
      <trkpt lat="43.00722" lon="0.6403">
        <ele>935.44</ele>
        <time>2014-01-28T12:18:55Z</time>
      </trkpt>
      <trkpt lat="43.00726" lon="0.64033">
        <ele>937.25</ele>
        <time>2014-01-28T12:19:01Z</time>
      </trkpt>
      <trkpt lat="43.00731" lon="0.64034">
        <ele>938.4</ele>
        <time>2014-01-28T12:19:07Z</time>
      </trkpt>
      <trkpt lat="43.00736" lon="0.64037">
        <ele>938.78</ele>
        <time>2014-01-28T12:19:13Z</time>
      </trkpt>
      <trkpt lat="43.00741" lon="0.64036">
        <ele>938.1</ele>
        <time>2014-01-28T12:19:18Z</time>
      </trkpt>
      <trkpt lat="43.00746" lon="0.64037">
        <ele>937.57</ele>
        <time>2014-01-28T12:19:23Z</time>
      </trkpt>
      <trkpt lat="43.00751" lon="0.64038">
        <ele>937.86</ele>
        <time>2014-01-28T12:19:28Z</time>
      </trkpt>
      <trkpt lat="43.00756" lon="0.6404">
        <ele>938.24</ele>
        <time>2014-01-28T12:19:33Z</time>
      </trkpt>
      <trkpt lat="43.00761" lon="0.64042">
        <ele>938.24</ele>
        <time>2014-01-28T12:19:39Z</time>
      </trkpt>
      <trkpt lat="43.00765" lon="0.64045">
        <ele>938.35</ele>
        <time>2014-01-28T12:19:44Z</time>
      </trkpt>
      <trkpt lat="43.0077" lon="0.64047">
        <ele>938.83</ele>
        <time>2014-01-28T12:19:50Z</time>
      </trkpt>
      <trkpt lat="43.00774" lon="0.6405">
        <ele>940.58</ele>
        <time>2014-01-28T12:20:05Z</time>
      </trkpt>
      <trkpt lat="43.00779" lon="0.64054">
        <ele>942.7</ele>
        <time>2014-01-28T12:20:11Z</time>
      </trkpt>
      <trkpt lat="43.00783" lon="0.64058">
        <ele>943.67</ele>
        <time>2014-01-28T12:20:16Z</time>
      </trkpt>
      <trkpt lat="43.00787" lon="0.64061">
        <ele>942.81</ele>
        <time>2014-01-28T12:20:23Z</time>
      </trkpt>
      <trkpt lat="43.00791" lon="0.64065">
        <ele>942.68</ele>
        <time>2014-01-28T12:20:28Z</time>
      </trkpt>
      <trkpt lat="43.00795" lon="0.64068">
        <ele>944.64</ele>
        <time>2014-01-28T12:20:33Z</time>
      </trkpt>
      <trkpt lat="43.008" lon="0.64072">
        <ele>946.17</ele>
        <time>2014-01-28T12:20:38Z</time>
      </trkpt>
      <trkpt lat="43.00803" lon="0.64075">
        <ele>947.57</ele>
        <time>2014-01-28T12:20:44Z</time>
      </trkpt>
      <trkpt lat="43.00808" lon="0.64079">
        <ele>949.98</ele>
        <time>2014-01-28T12:20:52Z</time>
      </trkpt>
      <trkpt lat="43.00811" lon="0.64083">
        <ele>953.29</ele>
        <time>2014-01-28T12:20:59Z</time>
      </trkpt>
      <trkpt lat="43.00816" lon="0.64087">
        <ele>953.1</ele>
        <time>2014-01-28T12:21:05Z</time>
      </trkpt>
      <trkpt lat="43.00824" lon="0.64089">
        <ele>952.5</ele>
        <time>2014-01-28T12:21:15Z</time>
      </trkpt>
      <trkpt lat="43.00828" lon="0.64093">
        <ele>951.27</ele>
        <time>2014-01-28T12:21:19Z</time>
      </trkpt>
      <trkpt lat="43.00831" lon="0.641">
        <ele>952.57</ele>
        <time>2014-01-28T12:21:22Z</time>
      </trkpt>
      <trkpt lat="43.00834" lon="0.64106">
        <ele>953.38</ele>
        <time>2014-01-28T12:21:27Z</time>
      </trkpt>
      <trkpt lat="43.00838" lon="0.64111">
        <ele>955.16</ele>
        <time>2014-01-28T12:21:33Z</time>
      </trkpt>
      <trkpt lat="43.00842" lon="0.64115">
        <ele>955.87</ele>
        <time>2014-01-28T12:21:38Z</time>
      </trkpt>
      <trkpt lat="43.00847" lon="0.64119">
        <ele>955.25</ele>
        <time>2014-01-28T12:21:42Z</time>
      </trkpt>
      <trkpt lat="43.00852" lon="0.64121">
        <ele>954.67</ele>
        <time>2014-01-28T12:21:46Z</time>
      </trkpt>
      <trkpt lat="43.00855" lon="0.64125">
        <ele>955.16</ele>
        <time>2014-01-28T12:21:51Z</time>
      </trkpt>
      <trkpt lat="43.0086" lon="0.64129">
        <ele>955.4</ele>
        <time>2014-01-28T12:21:56Z</time>
      </trkpt>
      <trkpt lat="43.00865" lon="0.64131">
        <ele>954.23</ele>
        <time>2014-01-28T12:22:01Z</time>
      </trkpt>
      <trkpt lat="43.0087" lon="0.64133">
        <ele>953.49</ele>
        <time>2014-01-28T12:22:06Z</time>
      </trkpt>
      <trkpt lat="43.00875" lon="0.64135">
        <ele>952.27</ele>
        <time>2014-01-28T12:22:11Z</time>
      </trkpt>
      <trkpt lat="43.00879" lon="0.64136">
        <ele>953.54</ele>
        <time>2014-01-28T12:22:16Z</time>
      </trkpt>
      <trkpt lat="43.00884" lon="0.64136">
        <ele>952.97</ele>
        <time>2014-01-28T12:22:20Z</time>
      </trkpt>
      <trkpt lat="43.00889" lon="0.64136">
        <ele>952.97</ele>
        <time>2014-01-28T12:22:24Z</time>
      </trkpt>
      <trkpt lat="43.00894" lon="0.64138">
        <ele>952.28</ele>
        <time>2014-01-28T12:22:28Z</time>
      </trkpt>
      <trkpt lat="43.00899" lon="0.6414">
        <ele>952.63</ele>
        <time>2014-01-28T12:22:33Z</time>
      </trkpt>
      <trkpt lat="43.00903" lon="0.64141">
        <ele>953.47</ele>
        <time>2014-01-28T12:22:37Z</time>
      </trkpt>
      <trkpt lat="43.00908" lon="0.64141">
        <ele>954.3</ele>
        <time>2014-01-28T12:22:41Z</time>
      </trkpt>
      <trkpt lat="43.00913" lon="0.64142">
        <ele>954.65</ele>
        <time>2014-01-28T12:22:48Z</time>
      </trkpt>
      <trkpt lat="43.00919" lon="0.64141">
        <ele>953.84</ele>
        <time>2014-01-28T12:22:52Z</time>
      </trkpt>
      <trkpt lat="43.00924" lon="0.6414">
        <ele>953.21</ele>
        <time>2014-01-28T12:22:55Z</time>
      </trkpt>
      <trkpt lat="43.00929" lon="0.64141">
        <ele>953.75</ele>
        <time>2014-01-28T12:23:00Z</time>
      </trkpt>
      <trkpt lat="43.00934" lon="0.6414">
        <ele>955.37</ele>
        <time>2014-01-28T12:23:13Z</time>
      </trkpt>
      <trkpt lat="43.00939" lon="0.64139">
        <ele>956.16</ele>
        <time>2014-01-28T12:23:17Z</time>
      </trkpt>
      <trkpt lat="43.00944" lon="0.6414">
        <ele>955.2</ele>
        <time>2014-01-28T12:23:21Z</time>
      </trkpt>
      <trkpt lat="43.00949" lon="0.64141">
        <ele>955.76</ele>
        <time>2014-01-28T12:23:26Z</time>
      </trkpt>
      <trkpt lat="43.00954" lon="0.6414">
        <ele>953.78</ele>
        <time>2014-01-28T12:23:31Z</time>
      </trkpt>
      <trkpt lat="43.00959" lon="0.6414">
        <ele>951.78</ele>
        <time>2014-01-28T12:23:34Z</time>
      </trkpt>
      <trkpt lat="43.00963" lon="0.64137">
        <ele>948.09</ele>
        <time>2014-01-28T12:23:37Z</time>
      </trkpt>
      <trkpt lat="43.00968" lon="0.64134">
        <ele>945.63</ele>
        <time>2014-01-28T12:23:40Z</time>
      </trkpt>
      <trkpt lat="43.00972" lon="0.64133">
        <ele>945.54</ele>
        <time>2014-01-28T12:23:43Z</time>
      </trkpt>
      <trkpt lat="43.00977" lon="0.64133">
        <ele>947.25</ele>
        <time>2014-01-28T12:23:49Z</time>
      </trkpt>
      <trkpt lat="43.00981" lon="0.64129">
        <ele>949.6</ele>
        <time>2014-01-28T12:23:54Z</time>
      </trkpt>
      <trkpt lat="43.00987" lon="0.64127">
        <ele>949.87</ele>
        <time>2014-01-28T12:23:59Z</time>
      </trkpt>
      <trkpt lat="43.00992" lon="0.64126">
        <ele>950.3</ele>
        <time>2014-01-28T12:24:05Z</time>
      </trkpt>
      <trkpt lat="43.00996" lon="0.64125">
        <ele>949.9</ele>
        <time>2014-01-28T12:24:11Z</time>
      </trkpt>
      <trkpt lat="43.01001" lon="0.64124">
        <ele>950.92</ele>
        <time>2014-01-28T12:24:16Z</time>
      </trkpt>
      <trkpt lat="43.01006" lon="0.64124">
        <ele>948.65</ele>
        <time>2014-01-28T12:24:20Z</time>
      </trkpt>
      <trkpt lat="43.01012" lon="0.64123">
        <ele>946.39</ele>
        <time>2014-01-28T12:24:25Z</time>
      </trkpt>
      <trkpt lat="43.01017" lon="0.64121">
        <ele>947.63</ele>
        <time>2014-01-28T12:24:30Z</time>
      </trkpt>
      <trkpt lat="43.01021" lon="0.64118">
        <ele>944.42</ele>
        <time>2014-01-28T12:24:34Z</time>
      </trkpt>
      <trkpt lat="43.01026" lon="0.64115">
        <ele>942.5</ele>
        <time>2014-01-28T12:24:38Z</time>
      </trkpt>
      <trkpt lat="43.01032" lon="0.64114">
        <ele>940.02</ele>
        <time>2014-01-28T12:24:42Z</time>
      </trkpt>
      <trkpt lat="43.01036" lon="0.6411">
        <ele>937.72</ele>
        <time>2014-01-28T12:24:45Z</time>
      </trkpt>
      <trkpt lat="43.0104" lon="0.64107">
        <ele>934.91</ele>
        <time>2014-01-28T12:24:49Z</time>
      </trkpt>
      <trkpt lat="43.01044" lon="0.64103">
        <ele>931.93</ele>
        <time>2014-01-28T12:24:53Z</time>
      </trkpt>
      <trkpt lat="43.01047" lon="0.64098">
        <ele>931.81</ele>
        <time>2014-01-28T12:24:57Z</time>
      </trkpt>
      <trkpt lat="43.01051" lon="0.64094">
        <ele>933.93</ele>
        <time>2014-01-28T12:25:01Z</time>
      </trkpt>
      <trkpt lat="43.01055" lon="0.64089">
        <ele>934.48</ele>
        <time>2014-01-28T12:25:05Z</time>
      </trkpt>
      <trkpt lat="43.01059" lon="0.64085">
        <ele>934.24</ele>
        <time>2014-01-28T12:25:09Z</time>
      </trkpt>
      <trkpt lat="43.01062" lon="0.6408">
        <ele>931.75</ele>
        <time>2014-01-28T12:25:13Z</time>
      </trkpt>
      <trkpt lat="43.01064" lon="0.64074">
        <ele>932.22</ele>
        <time>2014-01-28T12:25:17Z</time>
      </trkpt>
      <trkpt lat="43.01067" lon="0.64069">
        <ele>930.26</ele>
        <time>2014-01-28T12:25:22Z</time>
      </trkpt>
      <trkpt lat="43.0107" lon="0.64064">
        <ele>931.15</ele>
        <time>2014-01-28T12:25:26Z</time>
      </trkpt>
      <trkpt lat="43.01073" lon="0.64058">
        <ele>929.82</ele>
        <time>2014-01-28T12:25:31Z</time>
      </trkpt>
      <trkpt lat="43.01075" lon="0.64052">
        <ele>927.39</ele>
        <time>2014-01-28T12:25:36Z</time>
      </trkpt>
      <trkpt lat="43.01079" lon="0.64046">
        <ele>927.67</ele>
        <time>2014-01-28T12:25:40Z</time>
      </trkpt>
      <trkpt lat="43.01082" lon="0.64041">
        <ele>929.87</ele>
        <time>2014-01-28T12:25:44Z</time>
      </trkpt>
      <trkpt lat="43.01085" lon="0.64035">
        <ele>930.87</ele>
        <time>2014-01-28T12:25:50Z</time>
      </trkpt>
      <trkpt lat="43.01089" lon="0.6403">
        <ele>930.99</ele>
        <time>2014-01-28T12:25:54Z</time>
      </trkpt>
      <trkpt lat="43.01092" lon="0.64024">
        <ele>929.76</ele>
        <time>2014-01-28T12:25:59Z</time>
      </trkpt>
      <trkpt lat="43.01093" lon="0.64019">
        <ele>928.32</ele>
        <time>2014-01-28T12:26:03Z</time>
      </trkpt>
      <trkpt lat="43.01095" lon="0.64013">
        <ele>928.16</ele>
        <time>2014-01-28T12:26:07Z</time>
      </trkpt>
      <trkpt lat="43.01099" lon="0.64008">
        <ele>930.24</ele>
        <time>2014-01-28T12:26:11Z</time>
      </trkpt>
      <trkpt lat="43.01101" lon="0.64002">
        <ele>931.5</ele>
        <time>2014-01-28T12:26:15Z</time>
      </trkpt>
      <trkpt lat="43.01105" lon="0.63997">
        <ele>931.83</ele>
        <time>2014-01-28T12:26:19Z</time>
      </trkpt>
      <trkpt lat="43.01107" lon="0.63993">
        <ele>932.3</ele>
        <time>2014-01-28T12:26:23Z</time>
      </trkpt>
      <trkpt lat="43.0111" lon="0.63987">
        <ele>933.63</ele>
        <time>2014-01-28T12:26:27Z</time>
      </trkpt>
      <trkpt lat="43.01113" lon="0.63981">
        <ele>934.75</ele>
        <time>2014-01-28T12:26:33Z</time>
      </trkpt>
      <trkpt lat="43.01115" lon="0.63975">
        <ele>935.25</ele>
        <time>2014-01-28T12:26:38Z</time>
      </trkpt>
      <trkpt lat="43.01118" lon="0.6397">
        <ele>936.15</ele>
        <time>2014-01-28T12:26:42Z</time>
      </trkpt>
      <trkpt lat="43.01121" lon="0.63965">
        <ele>935.66</ele>
        <time>2014-01-28T12:26:46Z</time>
      </trkpt>
      <trkpt lat="43.01124" lon="0.63959">
        <ele>933.66</ele>
        <time>2014-01-28T12:26:50Z</time>
      </trkpt>
      <trkpt lat="43.01127" lon="0.63954">
        <ele>932</ele>
        <time>2014-01-28T12:26:54Z</time>
      </trkpt>
      <trkpt lat="43.01131" lon="0.63948">
        <ele>931.95</ele>
        <time>2014-01-28T12:26:58Z</time>
      </trkpt>
      <trkpt lat="43.01133" lon="0.63942">
        <ele>932.26</ele>
        <time>2014-01-28T12:27:03Z</time>
      </trkpt>
      <trkpt lat="43.01137" lon="0.63938">
        <ele>932.91</ele>
        <time>2014-01-28T12:27:08Z</time>
      </trkpt>
      <trkpt lat="43.0114" lon="0.63932">
        <ele>933.39</ele>
        <time>2014-01-28T12:27:13Z</time>
      </trkpt>
      <trkpt lat="43.01143" lon="0.63926">
        <ele>932.96</ele>
        <time>2014-01-28T12:27:17Z</time>
      </trkpt>
      <trkpt lat="43.01147" lon="0.63922">
        <ele>932.76</ele>
        <time>2014-01-28T12:27:23Z</time>
      </trkpt>
      <trkpt lat="43.0115" lon="0.63916">
        <ele>932</ele>
        <time>2014-01-28T12:27:28Z</time>
      </trkpt>
      <trkpt lat="43.01154" lon="0.63911">
        <ele>933.11</ele>
        <time>2014-01-28T12:27:32Z</time>
      </trkpt>
      <trkpt lat="43.01156" lon="0.63906">
        <ele>931.02</ele>
        <time>2014-01-28T12:27:36Z</time>
      </trkpt>
      <trkpt lat="43.0116" lon="0.639">
        <ele>930.47</ele>
        <time>2014-01-28T12:27:41Z</time>
      </trkpt>
      <trkpt lat="43.01162" lon="0.63895">
        <ele>929.1</ele>
        <time>2014-01-28T12:27:45Z</time>
      </trkpt>
      <trkpt lat="43.01166" lon="0.63889">
        <ele>927.08</ele>
        <time>2014-01-28T12:27:50Z</time>
      </trkpt>
      <trkpt lat="43.01167" lon="0.63882">
        <ele>925.96</ele>
        <time>2014-01-28T12:27:56Z</time>
      </trkpt>
      <trkpt lat="43.01169" lon="0.63876">
        <ele>926.43</ele>
        <time>2014-01-28T12:28:01Z</time>
      </trkpt>
      <trkpt lat="43.01173" lon="0.63872">
        <ele>927.34</ele>
        <time>2014-01-28T12:28:05Z</time>
      </trkpt>
      <trkpt lat="43.01176" lon="0.63868">
        <ele>927.8</ele>
        <time>2014-01-28T12:28:09Z</time>
      </trkpt>
      <trkpt lat="43.01178" lon="0.63861">
        <ele>930.41</ele>
        <time>2014-01-28T12:28:14Z</time>
      </trkpt>
      <trkpt lat="43.0118" lon="0.63854">
        <ele>930.38</ele>
        <time>2014-01-28T12:28:19Z</time>
      </trkpt>
      <trkpt lat="43.01182" lon="0.63848">
        <ele>930.72</ele>
        <time>2014-01-28T12:28:24Z</time>
      </trkpt>
      <trkpt lat="43.01184" lon="0.63842">
        <ele>928.44</ele>
        <time>2014-01-28T12:28:29Z</time>
      </trkpt>
      <trkpt lat="43.01185" lon="0.63835">
        <ele>928.15</ele>
        <time>2014-01-28T12:28:34Z</time>
      </trkpt>
      <trkpt lat="43.01187" lon="0.6383">
        <ele>926.03</ele>
        <time>2014-01-28T12:28:39Z</time>
      </trkpt>
      <trkpt lat="43.01189" lon="0.63823">
        <ele>924.33</ele>
        <time>2014-01-28T12:28:48Z</time>
      </trkpt>
      <trkpt lat="43.01189" lon="0.63817">
        <ele>926.25</ele>
        <time>2014-01-28T12:28:52Z</time>
      </trkpt>
      <trkpt lat="43.0119" lon="0.6381">
        <ele>928.83</ele>
        <time>2014-01-28T12:28:58Z</time>
      </trkpt>
      <trkpt lat="43.01192" lon="0.63803">
        <ele>928.35</ele>
        <time>2014-01-28T12:29:04Z</time>
      </trkpt>
      <trkpt lat="43.01194" lon="0.63798">
        <ele>929.54</ele>
        <time>2014-01-28T12:29:08Z</time>
      </trkpt>
      <trkpt lat="43.01195" lon="0.63792">
        <ele>927.77</ele>
        <time>2014-01-28T12:29:12Z</time>
      </trkpt>
      <trkpt lat="43.01197" lon="0.63786">
        <ele>928.09</ele>
        <time>2014-01-28T12:29:17Z</time>
      </trkpt>
      <trkpt lat="43.01199" lon="0.6378">
        <ele>927.58</ele>
        <time>2014-01-28T12:29:23Z</time>
      </trkpt>
      <trkpt lat="43.01202" lon="0.63774">
        <ele>927.51</ele>
        <time>2014-01-28T12:29:28Z</time>
      </trkpt>
      <trkpt lat="43.01204" lon="0.63768">
        <ele>926.55</ele>
        <time>2014-01-28T12:29:34Z</time>
      </trkpt>
      <trkpt lat="43.01208" lon="0.63763">
        <ele>927.71</ele>
        <time>2014-01-28T12:29:40Z</time>
      </trkpt>
      <trkpt lat="43.01211" lon="0.63757">
        <ele>930.22</ele>
        <time>2014-01-28T12:29:47Z</time>
      </trkpt>
      <trkpt lat="43.01214" lon="0.63753">
        <ele>930.59</ele>
        <time>2014-01-28T12:29:53Z</time>
      </trkpt>
      <trkpt lat="43.01218" lon="0.63748">
        <ele>929.88</ele>
        <time>2014-01-28T12:30:01Z</time>
      </trkpt>
      <trkpt lat="43.01218" lon="0.63742">
        <ele>929.97</ele>
        <time>2014-01-28T12:30:08Z</time>
      </trkpt>
      <trkpt lat="43.01217" lon="0.63736">
        <ele>929.64</ele>
        <time>2014-01-28T12:30:15Z</time>
      </trkpt>
      <trkpt lat="43.0122" lon="0.6373">
        <ele>931.88</ele>
        <time>2014-01-28T12:30:22Z</time>
      </trkpt>
      <trkpt lat="43.01222" lon="0.63724">
        <ele>933.32</ele>
        <time>2014-01-28T12:30:29Z</time>
      </trkpt>
      <trkpt lat="43.01225" lon="0.63719">
        <ele>934.86</ele>
        <time>2014-01-28T12:30:38Z</time>
      </trkpt>
      <trkpt lat="43.0123" lon="0.63714">
        <ele>934.55</ele>
        <time>2014-01-28T12:30:45Z</time>
      </trkpt>
      <trkpt lat="43.01234" lon="0.63712">
        <ele>933.83</ele>
        <time>2014-01-28T12:30:53Z</time>
      </trkpt>
      <trkpt lat="43.0124" lon="0.63709">
        <ele>933.99</ele>
        <time>2014-01-28T12:30:59Z</time>
      </trkpt>
      <trkpt lat="43.01244" lon="0.63706">
        <ele>936.54</ele>
        <time>2014-01-28T12:31:04Z</time>
      </trkpt>
      <trkpt lat="43.01248" lon="0.63705">
        <ele>936.19</ele>
        <time>2014-01-28T12:31:09Z</time>
      </trkpt>
      <trkpt lat="43.01253" lon="0.63706">
        <ele>932.69</ele>
        <time>2014-01-28T12:31:15Z</time>
      </trkpt>
      <trkpt lat="43.01258" lon="0.63703">
        <ele>931.38</ele>
        <time>2014-01-28T12:31:21Z</time>
      </trkpt>
      <trkpt lat="43.01262" lon="0.63704">
        <ele>933.19</ele>
        <time>2014-01-28T12:31:38Z</time>
      </trkpt>
      <trkpt lat="43.01268" lon="0.63706">
        <ele>933.69</ele>
        <time>2014-01-28T12:31:46Z</time>
      </trkpt>
      <trkpt lat="43.01272" lon="0.63711">
        <ele>935.18</ele>
        <time>2014-01-28T12:31:52Z</time>
      </trkpt>
      <trkpt lat="43.01276" lon="0.63715">
        <ele>933.46</ele>
        <time>2014-01-28T12:32:04Z</time>
      </trkpt>
      <trkpt lat="43.0128" lon="0.63719">
        <ele>932.84</ele>
        <time>2014-01-28T12:32:16Z</time>
      </trkpt>
      <trkpt lat="43.01283" lon="0.63723">
        <ele>931.54</ele>
        <time>2014-01-28T12:32:20Z</time>
      </trkpt>
      <trkpt lat="43.01286" lon="0.63729">
        <ele>931.13</ele>
        <time>2014-01-28T12:32:24Z</time>
      </trkpt>
      <trkpt lat="43.0129" lon="0.63734">
        <ele>931.73</ele>
        <time>2014-01-28T12:32:32Z</time>
      </trkpt>
      <trkpt lat="43.01293" lon="0.63739">
        <ele>934.47</ele>
        <time>2014-01-28T12:32:37Z</time>
      </trkpt>
      <trkpt lat="43.01296" lon="0.63744">
        <ele>936.58</ele>
        <time>2014-01-28T12:32:44Z</time>
      </trkpt>
      <trkpt lat="43.013" lon="0.63748">
        <ele>930.58</ele>
        <time>2014-01-28T12:32:51Z</time>
      </trkpt>
      <trkpt lat="43.01304" lon="0.63754">
        <ele>933.39</ele>
        <time>2014-01-28T12:32:58Z</time>
      </trkpt>
      <trkpt lat="43.01307" lon="0.63758">
        <ele>933.65</ele>
        <time>2014-01-28T12:33:04Z</time>
      </trkpt>
      <trkpt lat="43.01312" lon="0.63759">
        <ele>932.47</ele>
        <time>2014-01-28T12:33:10Z</time>
      </trkpt>
      <trkpt lat="43.01317" lon="0.63761">
        <ele>931.24</ele>
        <time>2014-01-28T12:33:15Z</time>
      </trkpt>
      <trkpt lat="43.01322" lon="0.6376">
        <ele>924.04</ele>
        <time>2014-01-28T12:33:23Z</time>
      </trkpt>
      <trkpt lat="43.01328" lon="0.63757">
        <ele>922.1</ele>
        <time>2014-01-28T12:33:28Z</time>
      </trkpt>
      <trkpt lat="43.01333" lon="0.63754">
        <ele>921.06</ele>
        <time>2014-01-28T12:33:32Z</time>
      </trkpt>
      <trkpt lat="43.01337" lon="0.63752">
        <ele>922.55</ele>
        <time>2014-01-28T12:33:36Z</time>
      </trkpt>
      <trkpt lat="43.01341" lon="0.63747">
        <ele>920.96</ele>
        <time>2014-01-28T12:33:42Z</time>
      </trkpt>
      <trkpt lat="43.01346" lon="0.63746">
        <ele>920.78</ele>
        <time>2014-01-28T12:33:47Z</time>
      </trkpt>
      <trkpt lat="43.0135" lon="0.63744">
        <ele>918.6</ele>
        <time>2014-01-28T12:33:52Z</time>
      </trkpt>
      <trkpt lat="43.01354" lon="0.6374">
        <ele>916.21</ele>
        <time>2014-01-28T12:33:58Z</time>
      </trkpt>
      <trkpt lat="43.01358" lon="0.63737">
        <ele>914.77</ele>
        <time>2014-01-28T12:34:03Z</time>
      </trkpt>
      <trkpt lat="43.01362" lon="0.63731">
        <ele>913.7</ele>
        <time>2014-01-28T12:34:09Z</time>
      </trkpt>
      <trkpt lat="43.01363" lon="0.63725">
        <ele>910.71</ele>
        <time>2014-01-28T12:34:14Z</time>
      </trkpt>
      <trkpt lat="43.01366" lon="0.6372">
        <ele>909.63</ele>
        <time>2014-01-28T12:34:19Z</time>
      </trkpt>
      <trkpt lat="43.01367" lon="0.63713">
        <ele>910.21</ele>
        <time>2014-01-28T12:34:25Z</time>
      </trkpt>
      <trkpt lat="43.0137" lon="0.63708">
        <ele>906.49</ele>
        <time>2014-01-28T12:34:31Z</time>
      </trkpt>
      <trkpt lat="43.01373" lon="0.63703">
        <ele>907.55</ele>
        <time>2014-01-28T12:34:38Z</time>
      </trkpt>
      <trkpt lat="43.01376" lon="0.63698">
        <ele>908.96</ele>
        <time>2014-01-28T12:34:42Z</time>
      </trkpt>
      <trkpt lat="43.01377" lon="0.63692">
        <ele>909.94</ele>
        <time>2014-01-28T12:34:48Z</time>
      </trkpt>
      <trkpt lat="43.01379" lon="0.63686">
        <ele>910.69</ele>
        <time>2014-01-28T12:34:54Z</time>
      </trkpt>
      <trkpt lat="43.0138" lon="0.63679">
        <ele>909.28</ele>
        <time>2014-01-28T12:35:01Z</time>
      </trkpt>
      <trkpt lat="43.0138" lon="0.63672">
        <ele>908.43</ele>
        <time>2014-01-28T12:35:10Z</time>
      </trkpt>
      <trkpt lat="43.0138" lon="0.63665">
        <ele>907.73</ele>
        <time>2014-01-28T12:35:16Z</time>
      </trkpt>
      <trkpt lat="43.01381" lon="0.63659">
        <ele>908.44</ele>
        <time>2014-01-28T12:35:21Z</time>
      </trkpt>
      <trkpt lat="43.01383" lon="0.63653">
        <ele>907.82</ele>
        <time>2014-01-28T12:35:28Z</time>
      </trkpt>
      <trkpt lat="43.01384" lon="0.63647">
        <ele>907.42</ele>
        <time>2014-01-28T12:35:35Z</time>
      </trkpt>
      <trkpt lat="43.01384" lon="0.6364">
        <ele>907.51</ele>
        <time>2014-01-28T12:35:48Z</time>
      </trkpt>
      <trkpt lat="43.01384" lon="0.63634">
        <ele>904.83</ele>
        <time>2014-01-28T12:35:54Z</time>
      </trkpt>
      <trkpt lat="43.01387" lon="0.63629">
        <ele>905.94</ele>
        <time>2014-01-28T12:35:59Z</time>
      </trkpt>
      <trkpt lat="43.01388" lon="0.63622">
        <ele>904.74</ele>
        <time>2014-01-28T12:36:05Z</time>
      </trkpt>
      <trkpt lat="43.0139" lon="0.63616">
        <ele>906.33</ele>
        <time>2014-01-28T12:36:12Z</time>
      </trkpt>
      <trkpt lat="43.01389" lon="0.63609">
        <ele>904.93</ele>
        <time>2014-01-28T12:36:18Z</time>
      </trkpt>
      <trkpt lat="43.01389" lon="0.63603">
        <ele>903.6</ele>
        <time>2014-01-28T12:36:24Z</time>
      </trkpt>
      <trkpt lat="43.01389" lon="0.63596">
        <ele>903.22</ele>
        <time>2014-01-28T12:36:30Z</time>
      </trkpt>
      <trkpt lat="43.01392" lon="0.6359">
        <ele>901.29</ele>
        <time>2014-01-28T12:36:41Z</time>
      </trkpt>
      <trkpt lat="43.01394" lon="0.63585">
        <ele>899.38</ele>
        <time>2014-01-28T12:36:50Z</time>
      </trkpt>
      <trkpt lat="43.01398" lon="0.6358">
        <ele>899.67</ele>
        <time>2014-01-28T12:36:59Z</time>
      </trkpt>
      <trkpt lat="43.01401" lon="0.63575">
        <ele>899.17</ele>
        <time>2014-01-28T12:37:09Z</time>
      </trkpt>
      <trkpt lat="43.01401" lon="0.63569">
        <ele>896.15</ele>
        <time>2014-01-28T12:37:15Z</time>
      </trkpt>
      <trkpt lat="43.01403" lon="0.63563">
        <ele>893.14</ele>
        <time>2014-01-28T12:37:21Z</time>
      </trkpt>
      <trkpt lat="43.01406" lon="0.63558">
        <ele>894.34</ele>
        <time>2014-01-28T12:37:30Z</time>
      </trkpt>
      <trkpt lat="43.01407" lon="0.63552">
        <ele>892.86</ele>
        <time>2014-01-28T12:37:43Z</time>
      </trkpt>
      <trkpt lat="43.01408" lon="0.63545">
        <ele>891.82</ele>
        <time>2014-01-28T12:37:50Z</time>
      </trkpt>
      <trkpt lat="43.01411" lon="0.63539">
        <ele>893.72</ele>
        <time>2014-01-28T12:37:56Z</time>
      </trkpt>
      <trkpt lat="43.01414" lon="0.63535">
        <ele>894.57</ele>
        <time>2014-01-28T12:38:08Z</time>
      </trkpt>
      <trkpt lat="43.01415" lon="0.63528">
        <ele>893.59</ele>
        <time>2014-01-28T12:38:15Z</time>
      </trkpt>
      <trkpt lat="43.01419" lon="0.63523">
        <ele>893.01</ele>
        <time>2014-01-28T12:38:23Z</time>
      </trkpt>
      <trkpt lat="43.01422" lon="0.63518">
        <ele>892.22</ele>
        <time>2014-01-28T12:38:34Z</time>
      </trkpt>
      <trkpt lat="43.01425" lon="0.63514">
        <ele>891.86</ele>
        <time>2014-01-28T12:38:42Z</time>
      </trkpt>
      <trkpt lat="43.0143" lon="0.6351">
        <ele>890.35</ele>
        <time>2014-01-28T12:38:57Z</time>
      </trkpt>
      <trkpt lat="43.01433" lon="0.63505">
        <ele>887.23</ele>
        <time>2014-01-28T12:39:08Z</time>
      </trkpt>
      <trkpt lat="43.01436" lon="0.63501">
        <ele>885.18</ele>
        <time>2014-01-28T12:39:14Z</time>
      </trkpt>
      <trkpt lat="43.01437" lon="0.63495">
        <ele>878.74</ele>
        <time>2014-01-28T12:39:26Z</time>
      </trkpt>
      <trkpt lat="43.0144" lon="0.6349">
        <ele>879.31</ele>
        <time>2014-01-28T12:39:46Z</time>
      </trkpt>
      <trkpt lat="43.01445" lon="0.63487">
        <ele>880.22</ele>
        <time>2014-01-28T12:39:49Z</time>
      </trkpt>
      <trkpt lat="43.01449" lon="0.63483">
        <ele>879.31</ele>
        <time>2014-01-28T12:39:56Z</time>
      </trkpt>
      <trkpt lat="43.01452" lon="0.63478">
        <ele>878.14</ele>
        <time>2014-01-28T12:40:02Z</time>
      </trkpt>
      <trkpt lat="43.01456" lon="0.63473">
        <ele>878.74</ele>
        <time>2014-01-28T12:40:09Z</time>
      </trkpt>
      <trkpt lat="43.01458" lon="0.63467">
        <ele>876.69</ele>
        <time>2014-01-28T12:40:16Z</time>
      </trkpt>
      <trkpt lat="43.01459" lon="0.6346">
        <ele>872.81</ele>
        <time>2014-01-28T12:40:23Z</time>
      </trkpt>
      <trkpt lat="43.01462" lon="0.63456">
        <ele>872.09</ele>
        <time>2014-01-28T12:40:33Z</time>
      </trkpt>
      <trkpt lat="43.01466" lon="0.63453">
        <ele>872.02</ele>
        <time>2014-01-28T12:40:41Z</time>
      </trkpt>
      <trkpt lat="43.01468" lon="0.63447">
        <ele>868.07</ele>
        <time>2014-01-28T12:40:56Z</time>
      </trkpt>
      <trkpt lat="43.01472" lon="0.63443">
        <ele>867.43</ele>
        <time>2014-01-28T12:41:08Z</time>
      </trkpt>
      <trkpt lat="43.01475" lon="0.63438">
        <ele>866.73</ele>
        <time>2014-01-28T12:41:25Z</time>
      </trkpt>
      <trkpt lat="43.01478" lon="0.63432">
        <ele>864.4</ele>
        <time>2014-01-28T12:41:33Z</time>
      </trkpt>
      <trkpt lat="43.01481" lon="0.63428">
        <ele>863.61</ele>
        <time>2014-01-28T12:41:38Z</time>
      </trkpt>
      <trkpt lat="43.01485" lon="0.63422">
        <ele>859.29</ele>
        <time>2014-01-28T12:41:48Z</time>
      </trkpt>
      <trkpt lat="43.01488" lon="0.63418">
        <ele>856.87</ele>
        <time>2014-01-28T12:41:55Z</time>
      </trkpt>
      <trkpt lat="43.01492" lon="0.63413">
        <ele>855.98</ele>
        <time>2014-01-28T12:42:02Z</time>
      </trkpt>
      <trkpt lat="43.01496" lon="0.63408">
        <ele>854.28</ele>
        <time>2014-01-28T12:42:09Z</time>
      </trkpt>
      <trkpt lat="43.01498" lon="0.63402">
        <ele>854.62</ele>
        <time>2014-01-28T12:42:14Z</time>
      </trkpt>
      <trkpt lat="43.01502" lon="0.63397">
        <ele>856.96</ele>
        <time>2014-01-28T12:42:19Z</time>
      </trkpt>
      <trkpt lat="43.01505" lon="0.63391">
        <ele>854.92</ele>
        <time>2014-01-28T12:42:24Z</time>
      </trkpt>
      <trkpt lat="43.01507" lon="0.63384">
        <ele>852.2</ele>
        <time>2014-01-28T12:42:29Z</time>
      </trkpt>
      <trkpt lat="43.01511" lon="0.6338">
        <ele>852.81</ele>
        <time>2014-01-28T12:42:34Z</time>
      </trkpt>
      <trkpt lat="43.01515" lon="0.63374">
        <ele>856.59</ele>
        <time>2014-01-28T12:42:39Z</time>
      </trkpt>
      <trkpt lat="43.01519" lon="0.63369">
        <ele>856.64</ele>
        <time>2014-01-28T12:42:44Z</time>
      </trkpt>
      <trkpt lat="43.01522" lon="0.63364">
        <ele>855.84</ele>
        <time>2014-01-28T12:42:49Z</time>
      </trkpt>
      <trkpt lat="43.01524" lon="0.63359">
        <ele>855</ele>
        <time>2014-01-28T12:42:53Z</time>
      </trkpt>
      <trkpt lat="43.01527" lon="0.63353">
        <ele>854.55</ele>
        <time>2014-01-28T12:42:58Z</time>
      </trkpt>
      <trkpt lat="43.01531" lon="0.63349">
        <ele>852.86</ele>
        <time>2014-01-28T12:43:03Z</time>
      </trkpt>
      <trkpt lat="43.01533" lon="0.63343">
        <ele>851.56</ele>
        <time>2014-01-28T12:43:08Z</time>
      </trkpt>
      <trkpt lat="43.01535" lon="0.63338">
        <ele>852.37</ele>
        <time>2014-01-28T12:43:14Z</time>
      </trkpt>
      <trkpt lat="43.01539" lon="0.63333">
        <ele>852.33</ele>
        <time>2014-01-28T12:43:20Z</time>
      </trkpt>
      <trkpt lat="43.01543" lon="0.6333">
        <ele>852.19</ele>
        <time>2014-01-28T12:43:26Z</time>
      </trkpt>
      <trkpt lat="43.01548" lon="0.63329">
        <ele>853.59</ele>
        <time>2014-01-28T12:43:49Z</time>
      </trkpt>
      <trkpt lat="43.01553" lon="0.63326">
        <ele>854.22</ele>
        <time>2014-01-28T12:43:57Z</time>
      </trkpt>
      <trkpt lat="43.01558" lon="0.63326">
        <ele>854.6</ele>
        <time>2014-01-28T12:44:06Z</time>
      </trkpt>
      <trkpt lat="43.01562" lon="0.63324">
        <ele>853.71</ele>
        <time>2014-01-28T12:44:13Z</time>
      </trkpt>
      <trkpt lat="43.01567" lon="0.63322">
        <ele>853.58</ele>
        <time>2014-01-28T12:44:18Z</time>
      </trkpt>
      <trkpt lat="43.01572" lon="0.63322">
        <ele>854.28</ele>
        <time>2014-01-28T12:44:23Z</time>
      </trkpt>
      <trkpt lat="43.01576" lon="0.63324">
        <ele>852.2</ele>
        <time>2014-01-28T12:44:28Z</time>
      </trkpt>
      <trkpt lat="43.01579" lon="0.63329">
        <ele>852.85</ele>
        <time>2014-01-28T12:44:39Z</time>
      </trkpt>
      <trkpt lat="43.01582" lon="0.63335">
        <ele>854.23</ele>
        <time>2014-01-28T12:44:45Z</time>
      </trkpt>
      <trkpt lat="43.01585" lon="0.6334">
        <ele>853.22</ele>
        <time>2014-01-28T12:44:50Z</time>
      </trkpt>
      <trkpt lat="43.01587" lon="0.63347">
        <ele>851.5</ele>
        <time>2014-01-28T12:44:55Z</time>
      </trkpt>
      <trkpt lat="43.0159" lon="0.63353">
        <ele>851.72</ele>
        <time>2014-01-28T12:45:00Z</time>
      </trkpt>
      <trkpt lat="43.01592" lon="0.63358">
        <ele>850.88</ele>
        <time>2014-01-28T12:45:06Z</time>
      </trkpt>
      <trkpt lat="43.01596" lon="0.63363">
        <ele>850.4</ele>
        <time>2014-01-28T12:45:12Z</time>
      </trkpt>
      <trkpt lat="43.01599" lon="0.63368">
        <ele>849.51</ele>
        <time>2014-01-28T12:45:17Z</time>
      </trkpt>
      <trkpt lat="43.01602" lon="0.63373">
        <ele>848.01</ele>
        <time>2014-01-28T12:45:21Z</time>
      </trkpt>
      <trkpt lat="43.01604" lon="0.63378">
        <ele>847.66</ele>
        <time>2014-01-28T12:45:26Z</time>
      </trkpt>
      <trkpt lat="43.01606" lon="0.63385">
        <ele>849.88</ele>
        <time>2014-01-28T12:45:32Z</time>
      </trkpt>
      <trkpt lat="43.01608" lon="0.63391">
        <ele>851.5</ele>
        <time>2014-01-28T12:45:37Z</time>
      </trkpt>
      <trkpt lat="43.01609" lon="0.63398">
        <ele>850.62</ele>
        <time>2014-01-28T12:45:42Z</time>
      </trkpt>
      <trkpt lat="43.01611" lon="0.63404">
        <ele>850.66</ele>
        <time>2014-01-28T12:45:47Z</time>
      </trkpt>
      <trkpt lat="43.01612" lon="0.6341">
        <ele>850.98</ele>
        <time>2014-01-28T12:45:52Z</time>
      </trkpt>
      <trkpt lat="43.01614" lon="0.63417">
        <ele>849.07</ele>
        <time>2014-01-28T12:45:59Z</time>
      </trkpt>
      <trkpt lat="43.01617" lon="0.63422">
        <ele>847.13</ele>
        <time>2014-01-28T12:46:06Z</time>
      </trkpt>
      <trkpt lat="43.0162" lon="0.63428">
        <ele>846.75</ele>
        <time>2014-01-28T12:46:11Z</time>
      </trkpt>
      <trkpt lat="43.01623" lon="0.63434">
        <ele>846.74</ele>
        <time>2014-01-28T12:46:16Z</time>
      </trkpt>
      <trkpt lat="43.01626" lon="0.6344">
        <ele>846.81</ele>
        <time>2014-01-28T12:46:21Z</time>
      </trkpt>
      <trkpt lat="43.01629" lon="0.63445">
        <ele>846.18</ele>
        <time>2014-01-28T12:46:26Z</time>
      </trkpt>
      <trkpt lat="43.01632" lon="0.63452">
        <ele>845.88</ele>
        <time>2014-01-28T12:46:32Z</time>
      </trkpt>
      <trkpt lat="43.01634" lon="0.63459">
        <ele>846.25</ele>
        <time>2014-01-28T12:46:37Z</time>
      </trkpt>
      <trkpt lat="43.01636" lon="0.63466">
        <ele>846.88</ele>
        <time>2014-01-28T12:46:42Z</time>
      </trkpt>
      <trkpt lat="43.01637" lon="0.63472">
        <ele>846.74</ele>
        <time>2014-01-28T12:46:47Z</time>
      </trkpt>
      <trkpt lat="43.01639" lon="0.63477">
        <ele>844.2</ele>
        <time>2014-01-28T12:46:52Z</time>
      </trkpt>
      <trkpt lat="43.0164" lon="0.63484">
        <ele>843.47</ele>
        <time>2014-01-28T12:46:57Z</time>
      </trkpt>
      <trkpt lat="43.01643" lon="0.6349">
        <ele>842.85</ele>
        <time>2014-01-28T12:47:02Z</time>
      </trkpt>
      <trkpt lat="43.01643" lon="0.63497">
        <ele>843.24</ele>
        <time>2014-01-28T12:47:07Z</time>
      </trkpt>
      <trkpt lat="43.01646" lon="0.63503">
        <ele>840.67</ele>
        <time>2014-01-28T12:47:11Z</time>
      </trkpt>
      <trkpt lat="43.01649" lon="0.63509">
        <ele>842.34</ele>
        <time>2014-01-28T12:47:16Z</time>
      </trkpt>
      <trkpt lat="43.01652" lon="0.63514">
        <ele>839.46</ele>
        <time>2014-01-28T12:47:22Z</time>
      </trkpt>
      <trkpt lat="43.01654" lon="0.6352">
        <ele>838.49</ele>
        <time>2014-01-28T12:47:27Z</time>
      </trkpt>
      <trkpt lat="43.01656" lon="0.63526">
        <ele>836.7</ele>
        <time>2014-01-28T12:47:32Z</time>
      </trkpt>
      <trkpt lat="43.0166" lon="0.63532">
        <ele>835.21</ele>
        <time>2014-01-28T12:47:37Z</time>
      </trkpt>
      <trkpt lat="43.01663" lon="0.63537">
        <ele>835.17</ele>
        <time>2014-01-28T12:47:42Z</time>
      </trkpt>
      <trkpt lat="43.01668" lon="0.63539">
        <ele>835.08</ele>
        <time>2014-01-28T12:47:49Z</time>
      </trkpt>
      <trkpt lat="43.01671" lon="0.63543">
        <ele>836.49</ele>
        <time>2014-01-28T12:47:54Z</time>
      </trkpt>
      <trkpt lat="43.01675" lon="0.63547">
        <ele>835.76</ele>
        <time>2014-01-28T12:47:59Z</time>
      </trkpt>
      <trkpt lat="43.01679" lon="0.63551">
        <ele>835.06</ele>
        <time>2014-01-28T12:48:05Z</time>
      </trkpt>
      <trkpt lat="43.01683" lon="0.63556">
        <ele>834.39</ele>
        <time>2014-01-28T12:48:10Z</time>
      </trkpt>
      <trkpt lat="43.01686" lon="0.6356">
        <ele>832.22</ele>
        <time>2014-01-28T12:48:18Z</time>
      </trkpt>
      <trkpt lat="43.0169" lon="0.63564">
        <ele>829.97</ele>
        <time>2014-01-28T12:48:22Z</time>
      </trkpt>
      <trkpt lat="43.01694" lon="0.63567">
        <ele>828.52</ele>
        <time>2014-01-28T12:48:27Z</time>
      </trkpt>
      <trkpt lat="43.01698" lon="0.63572">
        <ele>828.75</ele>
        <time>2014-01-28T12:48:33Z</time>
      </trkpt>
      <trkpt lat="43.01703" lon="0.63574">
        <ele>826.19</ele>
        <time>2014-01-28T12:48:39Z</time>
      </trkpt>
      <trkpt lat="43.01707" lon="0.63578">
        <ele>825.4</ele>
        <time>2014-01-28T12:48:45Z</time>
      </trkpt>
      <trkpt lat="43.01711" lon="0.63581">
        <ele>825.19</ele>
        <time>2014-01-28T12:48:53Z</time>
      </trkpt>
      <trkpt lat="43.01716" lon="0.63583">
        <ele>824.4</ele>
        <time>2014-01-28T12:49:02Z</time>
      </trkpt>
      <trkpt lat="43.0172" lon="0.63584">
        <ele>823.87</ele>
        <time>2014-01-28T12:49:09Z</time>
      </trkpt>
      <trkpt lat="43.01725" lon="0.63586">
        <ele>823.85</ele>
        <time>2014-01-28T12:49:15Z</time>
      </trkpt>
      <trkpt lat="43.01729" lon="0.6359">
        <ele>824.16</ele>
        <time>2014-01-28T12:49:21Z</time>
      </trkpt>
      <trkpt lat="43.01732" lon="0.63594">
        <ele>824.01</ele>
        <time>2014-01-28T12:49:27Z</time>
      </trkpt>
      <trkpt lat="43.01737" lon="0.63598">
        <ele>824.11</ele>
        <time>2014-01-28T12:49:34Z</time>
      </trkpt>
      <trkpt lat="43.0174" lon="0.63603">
        <ele>822.43</ele>
        <time>2014-01-28T12:49:39Z</time>
      </trkpt>
      <trkpt lat="43.01742" lon="0.63609">
        <ele>821.93</ele>
        <time>2014-01-28T12:49:43Z</time>
      </trkpt>
      <trkpt lat="43.01746" lon="0.63612">
        <ele>821.46</ele>
        <time>2014-01-28T12:49:47Z</time>
      </trkpt>
      <trkpt lat="43.01751" lon="0.63617">
        <ele>821</ele>
        <time>2014-01-28T12:49:52Z</time>
      </trkpt>
      <trkpt lat="43.01756" lon="0.63617">
        <ele>817.51</ele>
        <time>2014-01-28T12:49:56Z</time>
      </trkpt>
      <trkpt lat="43.01759" lon="0.63623">
        <ele>816.67</ele>
        <time>2014-01-28T12:50:00Z</time>
      </trkpt>
      <trkpt lat="43.01763" lon="0.63626">
        <ele>816.02</ele>
        <time>2014-01-28T12:50:04Z</time>
      </trkpt>
      <trkpt lat="43.01767" lon="0.6363">
        <ele>814.52</ele>
        <time>2014-01-28T12:50:09Z</time>
      </trkpt>
      <trkpt lat="43.01771" lon="0.63633">
        <ele>814.81</ele>
        <time>2014-01-28T12:50:14Z</time>
      </trkpt>
      <trkpt lat="43.01776" lon="0.63633">
        <ele>814.37</ele>
        <time>2014-01-28T12:50:20Z</time>
      </trkpt>
      <trkpt lat="43.01781" lon="0.63633">
        <ele>811.71</ele>
        <time>2014-01-28T12:50:26Z</time>
      </trkpt>
      <trkpt lat="43.01782" lon="0.63626">
        <ele>809.36</ele>
        <time>2014-01-28T12:50:32Z</time>
      </trkpt>
      <trkpt lat="43.01782" lon="0.63619">
        <ele>805.57</ele>
        <time>2014-01-28T12:50:38Z</time>
      </trkpt>
      <trkpt lat="43.01783" lon="0.63613">
        <ele>804.27</ele>
        <time>2014-01-28T12:50:50Z</time>
      </trkpt>
      <trkpt lat="43.01784" lon="0.63606">
        <ele>803.46</ele>
        <time>2014-01-28T12:50:59Z</time>
      </trkpt>
      <trkpt lat="43.01785" lon="0.636">
        <ele>802.28</ele>
        <time>2014-01-28T12:51:05Z</time>
      </trkpt>
      <trkpt lat="43.01785" lon="0.63594">
        <ele>798.43</ele>
        <time>2014-01-28T12:51:10Z</time>
      </trkpt>
      <trkpt lat="43.01785" lon="0.63587">
        <ele>797.47</ele>
        <time>2014-01-28T12:51:15Z</time>
      </trkpt>
      <trkpt lat="43.01784" lon="0.6358">
        <ele>796.79</ele>
        <time>2014-01-28T12:51:26Z</time>
      </trkpt>
      <trkpt lat="43.01785" lon="0.63574">
        <ele>797.92</ele>
        <time>2014-01-28T12:51:44Z</time>
      </trkpt>
      <trkpt lat="43.01786" lon="0.63567">
        <ele>794.84</ele>
        <time>2014-01-28T12:51:50Z</time>
      </trkpt>
      <trkpt lat="43.01784" lon="0.63561">
        <ele>793.76</ele>
        <time>2014-01-28T12:51:55Z</time>
      </trkpt>
      <trkpt lat="43.01783" lon="0.63553">
        <ele>794.53</ele>
        <time>2014-01-28T12:51:59Z</time>
      </trkpt>
      <trkpt lat="43.01784" lon="0.63547">
        <ele>794.53</ele>
        <time>2014-01-28T12:52:04Z</time>
      </trkpt>
      <trkpt lat="43.01785" lon="0.63539">
        <ele>793.8</ele>
        <time>2014-01-28T12:52:10Z</time>
      </trkpt>
      <trkpt lat="43.01787" lon="0.63533">
        <ele>792.15</ele>
        <time>2014-01-28T12:52:15Z</time>
      </trkpt>
      <trkpt lat="43.01791" lon="0.63528">
        <ele>792.69</ele>
        <time>2014-01-28T12:52:20Z</time>
      </trkpt>
      <trkpt lat="43.01794" lon="0.63523">
        <ele>791.78</ele>
        <time>2014-01-28T12:52:26Z</time>
      </trkpt>
      <trkpt lat="43.01798" lon="0.63519">
        <ele>792.43</ele>
        <time>2014-01-28T12:52:31Z</time>
      </trkpt>
      <trkpt lat="43.01799" lon="0.63513">
        <ele>791.93</ele>
        <time>2014-01-28T12:52:36Z</time>
      </trkpt>
      <trkpt lat="43.018" lon="0.63506">
        <ele>789.42</ele>
        <time>2014-01-28T12:52:42Z</time>
      </trkpt>
      <trkpt lat="43.018" lon="0.635">
        <ele>788.56</ele>
        <time>2014-01-28T12:52:48Z</time>
      </trkpt>
      <trkpt lat="43.01801" lon="0.63493">
        <ele>787.74</ele>
        <time>2014-01-28T12:52:54Z</time>
      </trkpt>
      <trkpt lat="43.01802" lon="0.63486">
        <ele>787.17</ele>
        <time>2014-01-28T12:53:01Z</time>
      </trkpt>
      <trkpt lat="43.01803" lon="0.63479">
        <ele>783.96</ele>
        <time>2014-01-28T12:53:08Z</time>
      </trkpt>
      <trkpt lat="43.01805" lon="0.63473">
        <ele>783.78</ele>
        <time>2014-01-28T12:53:13Z</time>
      </trkpt>
      <trkpt lat="43.01806" lon="0.63467">
        <ele>785.18</ele>
        <time>2014-01-28T12:53:18Z</time>
      </trkpt>
      <trkpt lat="43.01806" lon="0.6346">
        <ele>783.44</ele>
        <time>2014-01-28T12:53:24Z</time>
      </trkpt>
      <trkpt lat="43.01808" lon="0.63455">
        <ele>784.01</ele>
        <time>2014-01-28T12:53:30Z</time>
      </trkpt>
      <trkpt lat="43.0181" lon="0.63448">
        <ele>784.7</ele>
        <time>2014-01-28T12:53:36Z</time>
      </trkpt>
      <trkpt lat="43.0181" lon="0.63442">
        <ele>785.18</ele>
        <time>2014-01-28T12:53:42Z</time>
      </trkpt>
      <trkpt lat="43.01808" lon="0.63435">
        <ele>784.15</ele>
        <time>2014-01-28T12:53:49Z</time>
      </trkpt>
      <trkpt lat="43.01809" lon="0.63429">
        <ele>783.92</ele>
        <time>2014-01-28T12:53:55Z</time>
      </trkpt>
      <trkpt lat="43.01811" lon="0.63423">
        <ele>784.2</ele>
        <time>2014-01-28T12:54:01Z</time>
      </trkpt>
      <trkpt lat="43.01812" lon="0.63417">
        <ele>785.12</ele>
        <time>2014-01-28T12:54:11Z</time>
      </trkpt>
      <trkpt lat="43.01814" lon="0.63412">
        <ele>783.59</ele>
        <time>2014-01-28T12:54:18Z</time>
      </trkpt>
      <trkpt lat="43.01815" lon="0.63405">
        <ele>784.02</ele>
        <time>2014-01-28T12:54:23Z</time>
      </trkpt>
      <trkpt lat="43.01815" lon="0.63398">
        <ele>784.6</ele>
        <time>2014-01-28T12:54:28Z</time>
      </trkpt>
      <trkpt lat="43.01816" lon="0.63391">
        <ele>785.3</ele>
        <time>2014-01-28T12:54:32Z</time>
      </trkpt>
      <trkpt lat="43.01816" lon="0.63385">
        <ele>783.91</ele>
        <time>2014-01-28T12:54:37Z</time>
      </trkpt>
      <trkpt lat="43.01818" lon="0.63378">
        <ele>782.98</ele>
        <time>2014-01-28T12:54:43Z</time>
      </trkpt>
      <trkpt lat="43.01818" lon="0.63371">
        <ele>781.7</ele>
        <time>2014-01-28T12:54:49Z</time>
      </trkpt>
      <trkpt lat="43.01818" lon="0.63365">
        <ele>781.53</ele>
        <time>2014-01-28T12:54:57Z</time>
      </trkpt>
      <trkpt lat="43.01819" lon="0.63358">
        <ele>780.86</ele>
        <time>2014-01-28T12:55:04Z</time>
      </trkpt>
      <trkpt lat="43.0182" lon="0.63351">
        <ele>776.74</ele>
        <time>2014-01-28T12:55:09Z</time>
      </trkpt>
      <trkpt lat="43.01822" lon="0.63346">
        <ele>775</ele>
        <time>2014-01-28T12:55:14Z</time>
      </trkpt>
      <trkpt lat="43.01824" lon="0.6334">
        <ele>773.93</ele>
        <time>2014-01-28T12:55:19Z</time>
      </trkpt>
      <trkpt lat="43.01824" lon="0.63333">
        <ele>773.59</ele>
        <time>2014-01-28T12:55:24Z</time>
      </trkpt>
      <trkpt lat="43.01826" lon="0.63327">
        <ele>769.3</ele>
        <time>2014-01-28T12:55:30Z</time>
      </trkpt>
      <trkpt lat="43.01827" lon="0.6332">
        <ele>767.16</ele>
        <time>2014-01-28T12:55:35Z</time>
      </trkpt>
      <trkpt lat="43.01827" lon="0.63313">
        <ele>766.97</ele>
        <time>2014-01-28T12:55:41Z</time>
      </trkpt>
      <trkpt lat="43.01826" lon="0.63306">
        <ele>765.93</ele>
        <time>2014-01-28T12:55:47Z</time>
      </trkpt>
      <trkpt lat="43.01824" lon="0.633">
        <ele>764.66</ele>
        <time>2014-01-28T12:55:52Z</time>
      </trkpt>
      <trkpt lat="43.01823" lon="0.63293">
        <ele>764.85</ele>
        <time>2014-01-28T12:55:57Z</time>
      </trkpt>
      <trkpt lat="43.01823" lon="0.63287">
        <ele>763.35</ele>
        <time>2014-01-28T12:56:01Z</time>
      </trkpt>
      <trkpt lat="43.01824" lon="0.63281">
        <ele>762.24</ele>
        <time>2014-01-28T12:56:06Z</time>
      </trkpt>
      <trkpt lat="43.01827" lon="0.63271">
        <ele>760.4</ele>
        <time>2014-01-28T12:56:13Z</time>
      </trkpt>
      <trkpt lat="43.01825" lon="0.63265">
        <ele>759.17</ele>
        <time>2014-01-28T12:56:17Z</time>
      </trkpt>
      <trkpt lat="43.01825" lon="0.63258">
        <ele>759.53</ele>
        <time>2014-01-28T12:56:22Z</time>
      </trkpt>
      <trkpt lat="43.01828" lon="0.63252">
        <ele>763.05</ele>
        <time>2014-01-28T12:56:28Z</time>
      </trkpt>
      <trkpt lat="43.01826" lon="0.63245">
        <ele>760.69</ele>
        <time>2014-01-28T12:56:34Z</time>
      </trkpt>
      <trkpt lat="43.01826" lon="0.63239">
        <ele>761.06</ele>
        <time>2014-01-28T12:56:42Z</time>
      </trkpt>
      <trkpt lat="43.01827" lon="0.63232">
        <ele>760.16</ele>
        <time>2014-01-28T12:56:51Z</time>
      </trkpt>
      <trkpt lat="43.01828" lon="0.63225">
        <ele>759.37</ele>
        <time>2014-01-28T12:56:56Z</time>
      </trkpt>
      <trkpt lat="43.01829" lon="0.63218">
        <ele>757.92</ele>
        <time>2014-01-28T12:57:01Z</time>
      </trkpt>
      <trkpt lat="43.0183" lon="0.6321">
        <ele>756.43</ele>
        <time>2014-01-28T12:57:06Z</time>
      </trkpt>
      <trkpt lat="43.01831" lon="0.63204">
        <ele>756.48</ele>
        <time>2014-01-28T12:57:13Z</time>
      </trkpt>
      <trkpt lat="43.01834" lon="0.63198">
        <ele>756.26</ele>
        <time>2014-01-28T12:57:17Z</time>
      </trkpt>
      <trkpt lat="43.01836" lon="0.63192">
        <ele>753.71</ele>
        <time>2014-01-28T12:57:21Z</time>
      </trkpt>
      <trkpt lat="43.01837" lon="0.63186">
        <ele>751.21</ele>
        <time>2014-01-28T12:57:25Z</time>
      </trkpt>
      <trkpt lat="43.01838" lon="0.63179">
        <ele>748</ele>
        <time>2014-01-28T12:57:30Z</time>
      </trkpt>
      <trkpt lat="43.01841" lon="0.63173">
        <ele>745.99</ele>
        <time>2014-01-28T12:57:36Z</time>
      </trkpt>
      <trkpt lat="43.01843" lon="0.63168">
        <ele>749.68</ele>
        <time>2014-01-28T12:57:41Z</time>
      </trkpt>
      <trkpt lat="43.01846" lon="0.63162">
        <ele>750.07</ele>
        <time>2014-01-28T12:57:46Z</time>
      </trkpt>
      <trkpt lat="43.01847" lon="0.63156">
        <ele>751.13</ele>
        <time>2014-01-28T12:57:51Z</time>
      </trkpt>
      <trkpt lat="43.01847" lon="0.6315">
        <ele>752.97</ele>
        <time>2014-01-28T12:57:56Z</time>
      </trkpt>
      <trkpt lat="43.01848" lon="0.63143">
        <ele>752.12</ele>
        <time>2014-01-28T12:58:04Z</time>
      </trkpt>
      <trkpt lat="43.01849" lon="0.63136">
        <ele>752.3</ele>
        <time>2014-01-28T12:58:07Z</time>
      </trkpt>
      <trkpt lat="43.01851" lon="0.63129">
        <ele>750.06</ele>
        <time>2014-01-28T12:58:11Z</time>
      </trkpt>
      <trkpt lat="43.01852" lon="0.63122">
        <ele>748.12</ele>
        <time>2014-01-28T12:58:15Z</time>
      </trkpt>
      <trkpt lat="43.01852" lon="0.63116">
        <ele>748.35</ele>
        <time>2014-01-28T12:58:19Z</time>
      </trkpt>
      <trkpt lat="43.01853" lon="0.63108">
        <ele>746.55</ele>
        <time>2014-01-28T12:58:23Z</time>
      </trkpt>
      <trkpt lat="43.01854" lon="0.63102">
        <ele>746.98</ele>
        <time>2014-01-28T12:58:26Z</time>
      </trkpt>
      <trkpt lat="43.01857" lon="0.63096">
        <ele>748.17</ele>
        <time>2014-01-28T12:58:30Z</time>
      </trkpt>
      <trkpt lat="43.01858" lon="0.63089">
        <ele>747.32</ele>
        <time>2014-01-28T12:58:34Z</time>
      </trkpt>
      <trkpt lat="43.0186" lon="0.63083">
        <ele>749.76</ele>
        <time>2014-01-28T12:58:38Z</time>
      </trkpt>
      <trkpt lat="43.01862" lon="0.63078">
        <ele>752.41</ele>
        <time>2014-01-28T12:58:42Z</time>
      </trkpt>
      <trkpt lat="43.01865" lon="0.63071">
        <ele>751.9</ele>
        <time>2014-01-28T12:58:47Z</time>
      </trkpt>
      <trkpt lat="43.01867" lon="0.63065">
        <ele>749.05</ele>
        <time>2014-01-28T12:58:51Z</time>
      </trkpt>
      <trkpt lat="43.01868" lon="0.63058">
        <ele>750.19</ele>
        <time>2014-01-28T12:58:57Z</time>
      </trkpt>
      <trkpt lat="43.01867" lon="0.63052">
        <ele>745.8</ele>
        <time>2014-01-28T12:59:02Z</time>
      </trkpt>
      <trkpt lat="43.01869" lon="0.63045">
        <ele>745.66</ele>
        <time>2014-01-28T12:59:08Z</time>
      </trkpt>
      <trkpt lat="43.0187" lon="0.63038">
        <ele>747.99</ele>
        <time>2014-01-28T12:59:12Z</time>
      </trkpt>
      <trkpt lat="43.01872" lon="0.63032">
        <ele>747.19</ele>
        <time>2014-01-28T12:59:16Z</time>
      </trkpt>
      <trkpt lat="43.01872" lon="0.63026">
        <ele>746.01</ele>
        <time>2014-01-28T12:59:20Z</time>
      </trkpt>
      <trkpt lat="43.01874" lon="0.63018">
        <ele>744.38</ele>
        <time>2014-01-28T12:59:24Z</time>
      </trkpt>
      <trkpt lat="43.01874" lon="0.63011">
        <ele>743.39</ele>
        <time>2014-01-28T12:59:28Z</time>
      </trkpt>
      <trkpt lat="43.01876" lon="0.63005">
        <ele>744.49</ele>
        <time>2014-01-28T12:59:32Z</time>
      </trkpt>
      <trkpt lat="43.01878" lon="0.62998">
        <ele>744.7</ele>
        <time>2014-01-28T12:59:36Z</time>
      </trkpt>
      <trkpt lat="43.01878" lon="0.62992">
        <ele>746.72</ele>
        <time>2014-01-28T12:59:41Z</time>
      </trkpt>
      <trkpt lat="43.01879" lon="0.62984">
        <ele>745.46</ele>
        <time>2014-01-28T12:59:47Z</time>
      </trkpt>
      <trkpt lat="43.01879" lon="0.62978">
        <ele>744</ele>
        <time>2014-01-28T12:59:51Z</time>
      </trkpt>
      <trkpt lat="43.01881" lon="0.6297">
        <ele>743.18</ele>
        <time>2014-01-28T12:59:55Z</time>
      </trkpt>
      <trkpt lat="43.01883" lon="0.62964">
        <ele>743.44</ele>
        <time>2014-01-28T12:59:58Z</time>
      </trkpt>
      <trkpt lat="43.01886" lon="0.62958">
        <ele>743.21</ele>
        <time>2014-01-28T13:00:02Z</time>
      </trkpt>
      <trkpt lat="43.01887" lon="0.62951">
        <ele>740.09</ele>
        <time>2014-01-28T13:00:06Z</time>
      </trkpt>
      <trkpt lat="43.01889" lon="0.62944">
        <ele>739.5</ele>
        <time>2014-01-28T13:00:10Z</time>
      </trkpt>
      <trkpt lat="43.01892" lon="0.62938">
        <ele>739.42</ele>
        <time>2014-01-28T13:00:14Z</time>
      </trkpt>
      <trkpt lat="43.01895" lon="0.62932">
        <ele>738.96</ele>
        <time>2014-01-28T13:00:18Z</time>
      </trkpt>
      <trkpt lat="43.01899" lon="0.62928">
        <ele>739.75</ele>
        <time>2014-01-28T13:00:22Z</time>
      </trkpt>
      <trkpt lat="43.01902" lon="0.62923">
        <ele>739.27</ele>
        <time>2014-01-28T13:00:26Z</time>
      </trkpt>
      <trkpt lat="43.01905" lon="0.62918">
        <ele>738.28</ele>
        <time>2014-01-28T13:00:31Z</time>
      </trkpt>
      <trkpt lat="43.01905" lon="0.62912">
        <ele>738.29</ele>
        <time>2014-01-28T13:00:35Z</time>
      </trkpt>
      <trkpt lat="43.01908" lon="0.62906">
        <ele>739.59</ele>
        <time>2014-01-28T13:00:39Z</time>
      </trkpt>
      <trkpt lat="43.01911" lon="0.62901">
        <ele>739.69</ele>
        <time>2014-01-28T13:00:43Z</time>
      </trkpt>
      <trkpt lat="43.01913" lon="0.62896">
        <ele>738.63</ele>
        <time>2014-01-28T13:00:51Z</time>
      </trkpt>
      <trkpt lat="43.01917" lon="0.62892">
        <ele>738.51</ele>
        <time>2014-01-28T13:00:58Z</time>
      </trkpt>
      <trkpt lat="43.01921" lon="0.62887">
        <ele>738.04</ele>
        <time>2014-01-28T13:01:02Z</time>
      </trkpt>
      <trkpt lat="43.01926" lon="0.62883">
        <ele>736.51</ele>
        <time>2014-01-28T13:01:06Z</time>
      </trkpt>
      <trkpt lat="43.0193" lon="0.62879">
        <ele>736.16</ele>
        <time>2014-01-28T13:01:10Z</time>
      </trkpt>
      <trkpt lat="43.01934" lon="0.62875">
        <ele>733.86</ele>
        <time>2014-01-28T13:01:14Z</time>
      </trkpt>
      <trkpt lat="43.01937" lon="0.62871">
        <ele>732.32</ele>
        <time>2014-01-28T13:01:19Z</time>
      </trkpt>
      <trkpt lat="43.01941" lon="0.62868">
        <ele>730.35</ele>
        <time>2014-01-28T13:01:29Z</time>
      </trkpt>
      <trkpt lat="43.01946" lon="0.62866">
        <ele>733.48</ele>
        <time>2014-01-28T13:01:34Z</time>
      </trkpt>
      <trkpt lat="43.01951" lon="0.62866">
        <ele>735.16</ele>
        <time>2014-01-28T13:01:38Z</time>
      </trkpt>
      <trkpt lat="43.01955" lon="0.62866">
        <ele>734.83</ele>
        <time>2014-01-28T13:01:43Z</time>
      </trkpt>
      <trkpt lat="43.0196" lon="0.62864">
        <ele>733.47</ele>
        <time>2014-01-28T13:01:49Z</time>
      </trkpt>
      <trkpt lat="43.01965" lon="0.62864">
        <ele>733.85</ele>
        <time>2014-01-28T13:01:54Z</time>
      </trkpt>
      <trkpt lat="43.01969" lon="0.62863">
        <ele>735.19</ele>
        <time>2014-01-28T13:01:59Z</time>
      </trkpt>
      <trkpt lat="43.01974" lon="0.62861">
        <ele>737.25</ele>
        <time>2014-01-28T13:02:04Z</time>
      </trkpt>
      <trkpt lat="43.01979" lon="0.62859">
        <ele>737.1</ele>
        <time>2014-01-28T13:02:08Z</time>
      </trkpt>
      <trkpt lat="43.01983" lon="0.62858">
        <ele>736.73</ele>
        <time>2014-01-28T13:02:15Z</time>
      </trkpt>
      <trkpt lat="43.01988" lon="0.62857">
        <ele>736.23</ele>
        <time>2014-01-28T13:02:21Z</time>
      </trkpt>
      <trkpt lat="43.01993" lon="0.62854">
        <ele>735.73</ele>
        <time>2014-01-28T13:02:27Z</time>
      </trkpt>
      <trkpt lat="43.01998" lon="0.62853">
        <ele>735.33</ele>
        <time>2014-01-28T13:02:35Z</time>
      </trkpt>
      <trkpt lat="43.02002" lon="0.62852">
        <ele>734.24</ele>
        <time>2014-01-28T13:02:45Z</time>
      </trkpt>
      <trkpt lat="43.02006" lon="0.62846">
        <ele>728.69</ele>
        <time>2014-01-28T13:02:54Z</time>
      </trkpt>
      <trkpt lat="43.0201" lon="0.62844">
        <ele>724.83</ele>
        <time>2014-01-28T13:02:57Z</time>
      </trkpt>
      <trkpt lat="43.02014" lon="0.62841">
        <ele>724.54</ele>
        <time>2014-01-28T13:03:02Z</time>
      </trkpt>
      <trkpt lat="43.02017" lon="0.62835">
        <ele>716.03</ele>
        <time>2014-01-28T13:03:17Z</time>
      </trkpt>
      <trkpt lat="43.0202" lon="0.6283">
        <ele>715.74</ele>
        <time>2014-01-28T13:03:27Z</time>
      </trkpt>
      <trkpt lat="43.02025" lon="0.62828">
        <ele>715.46</ele>
        <time>2014-01-28T13:03:33Z</time>
      </trkpt>
      <trkpt lat="43.02029" lon="0.62825">
        <ele>713.12</ele>
        <time>2014-01-28T13:03:37Z</time>
      </trkpt>
      <trkpt lat="43.02032" lon="0.6282">
        <ele>713.86</ele>
        <time>2014-01-28T13:03:41Z</time>
      </trkpt>
      <trkpt lat="43.02036" lon="0.62816">
        <ele>713.3</ele>
        <time>2014-01-28T13:03:47Z</time>
      </trkpt>
      <trkpt lat="43.0204" lon="0.62812">
        <ele>713.06</ele>
        <time>2014-01-28T13:03:53Z</time>
      </trkpt>
      <trkpt lat="43.02043" lon="0.62809">
        <ele>712.81</ele>
        <time>2014-01-28T13:03:58Z</time>
      </trkpt>
      <trkpt lat="43.02049" lon="0.62807">
        <ele>711.99</ele>
        <time>2014-01-28T13:04:04Z</time>
      </trkpt>
      <trkpt lat="43.02053" lon="0.62804">
        <ele>710.72</ele>
        <time>2014-01-28T13:04:12Z</time>
      </trkpt>
      <trkpt lat="43.02055" lon="0.62798">
        <ele>707.19</ele>
        <time>2014-01-28T13:04:16Z</time>
      </trkpt>
      <trkpt lat="43.02056" lon="0.62792">
        <ele>705.7</ele>
        <time>2014-01-28T13:04:21Z</time>
      </trkpt>
      <trkpt lat="43.0206" lon="0.62788">
        <ele>707.15</ele>
        <time>2014-01-28T13:04:27Z</time>
      </trkpt>
      <trkpt lat="43.02065" lon="0.62786">
        <ele>707.48</ele>
        <time>2014-01-28T13:04:30Z</time>
      </trkpt>
      <trkpt lat="43.0207" lon="0.62784">
        <ele>707.72</ele>
        <time>2014-01-28T13:04:33Z</time>
      </trkpt>
      <trkpt lat="43.02075" lon="0.62781">
        <ele>706.98</ele>
        <time>2014-01-28T13:04:37Z</time>
      </trkpt>
      <trkpt lat="43.02079" lon="0.62777">
        <ele>706.97</ele>
        <time>2014-01-28T13:04:41Z</time>
      </trkpt>
      <trkpt lat="43.02083" lon="0.62774">
        <ele>705.58</ele>
        <time>2014-01-28T13:04:45Z</time>
      </trkpt>
      <trkpt lat="43.02087" lon="0.6277">
        <ele>706.54</ele>
        <time>2014-01-28T13:04:49Z</time>
      </trkpt>
      <trkpt lat="43.02091" lon="0.62767">
        <ele>707.1</ele>
        <time>2014-01-28T13:04:53Z</time>
      </trkpt>
      <trkpt lat="43.02095" lon="0.62763">
        <ele>706.43</ele>
        <time>2014-01-28T13:04:57Z</time>
      </trkpt>
      <trkpt lat="43.02099" lon="0.62757">
        <ele>704.13</ele>
        <time>2014-01-28T13:05:02Z</time>
      </trkpt>
      <trkpt lat="43.02102" lon="0.62752">
        <ele>701.48</ele>
        <time>2014-01-28T13:05:06Z</time>
      </trkpt>
      <trkpt lat="43.02106" lon="0.62747">
        <ele>698.89</ele>
        <time>2014-01-28T13:05:10Z</time>
      </trkpt>
      <trkpt lat="43.02109" lon="0.62742">
        <ele>697.13</ele>
        <time>2014-01-28T13:05:14Z</time>
      </trkpt>
      <trkpt lat="43.02112" lon="0.62737">
        <ele>697.16</ele>
        <time>2014-01-28T13:05:18Z</time>
      </trkpt>
      <trkpt lat="43.02116" lon="0.62731">
        <ele>698.04</ele>
        <time>2014-01-28T13:05:23Z</time>
      </trkpt>
      <trkpt lat="43.02119" lon="0.62725">
        <ele>699.44</ele>
        <time>2014-01-28T13:05:28Z</time>
      </trkpt>
      <trkpt lat="43.02121" lon="0.62719">
        <ele>701.78</ele>
        <time>2014-01-28T13:05:33Z</time>
      </trkpt>
      <trkpt lat="43.02124" lon="0.62714">
        <ele>701.78</ele>
        <time>2014-01-28T13:05:38Z</time>
      </trkpt>
      <trkpt lat="43.02127" lon="0.62709">
        <ele>702.55</ele>
        <time>2014-01-28T13:05:43Z</time>
      </trkpt>
      <trkpt lat="43.02131" lon="0.62704">
        <ele>703.23</ele>
        <time>2014-01-28T13:05:48Z</time>
      </trkpt>
      <trkpt lat="43.02135" lon="0.62699">
        <ele>703.38</ele>
        <time>2014-01-28T13:05:53Z</time>
      </trkpt>
      <trkpt lat="43.02139" lon="0.62694">
        <ele>703.9</ele>
        <time>2014-01-28T13:05:58Z</time>
      </trkpt>
      <trkpt lat="43.02142" lon="0.62689">
        <ele>702.76</ele>
        <time>2014-01-28T13:06:03Z</time>
      </trkpt>
      <trkpt lat="43.02146" lon="0.62686">
        <ele>701.79</ele>
        <time>2014-01-28T13:06:07Z</time>
      </trkpt>
      <trkpt lat="43.02151" lon="0.62683">
        <ele>702.71</ele>
        <time>2014-01-28T13:06:12Z</time>
      </trkpt>
      <trkpt lat="43.02155" lon="0.62678">
        <ele>702.57</ele>
        <time>2014-01-28T13:06:17Z</time>
      </trkpt>
      <trkpt lat="43.02154" lon="0.62671">
        <ele>703.69</ele>
        <time>2014-01-28T13:06:22Z</time>
      </trkpt>
      <trkpt lat="43.02159" lon="0.6267">
        <ele>704.69</ele>
        <time>2014-01-28T13:06:28Z</time>
      </trkpt>
      <trkpt lat="43.02163" lon="0.62673">
        <ele>702.64</ele>
        <time>2014-01-28T13:06:33Z</time>
      </trkpt>
      <trkpt lat="43.02168" lon="0.62671">
        <ele>702.51</ele>
        <time>2014-01-28T13:06:40Z</time>
      </trkpt>
      <trkpt lat="43.02171" lon="0.62667">
        <ele>702</ele>
        <time>2014-01-28T13:06:47Z</time>
      </trkpt>
      <trkpt lat="43.02172" lon="0.6266">
        <ele>703.59</ele>
        <time>2014-01-28T13:15:46Z</time>
      </trkpt>
      <trkpt lat="43.02173" lon="0.62654">
        <ele>701.51</ele>
        <time>2014-01-28T13:15:52Z</time>
      </trkpt>
      <trkpt lat="43.02176" lon="0.62649">
        <ele>701.2</ele>
        <time>2014-01-28T13:15:58Z</time>
      </trkpt>
      <trkpt lat="43.02177" lon="0.62642">
        <ele>700.9</ele>
        <time>2014-01-28T13:16:05Z</time>
      </trkpt>
      <trkpt lat="43.02178" lon="0.62636">
        <ele>702.89</ele>
        <time>2014-01-28T13:16:14Z</time>
      </trkpt>
      <trkpt lat="43.0218" lon="0.62629">
        <ele>700.57</ele>
        <time>2014-01-28T13:16:20Z</time>
      </trkpt>
      <trkpt lat="43.02181" lon="0.62622">
        <ele>699.73</ele>
        <time>2014-01-28T13:16:24Z</time>
      </trkpt>
      <trkpt lat="43.02181" lon="0.62614">
        <ele>699.19</ele>
        <time>2014-01-28T13:16:29Z</time>
      </trkpt>
      <trkpt lat="43.02181" lon="0.62608">
        <ele>699.75</ele>
        <time>2014-01-28T13:16:34Z</time>
      </trkpt>
      <trkpt lat="43.02182" lon="0.62602">
        <ele>701.31</ele>
        <time>2014-01-28T13:16:39Z</time>
      </trkpt>
      <trkpt lat="43.02183" lon="0.62595">
        <ele>701.03</ele>
        <time>2014-01-28T13:16:44Z</time>
      </trkpt>
      <trkpt lat="43.02186" lon="0.62589">
        <ele>701.05</ele>
        <time>2014-01-28T13:16:49Z</time>
      </trkpt>
      <trkpt lat="43.02187" lon="0.62582">
        <ele>701.53</ele>
        <time>2014-01-28T13:16:55Z</time>
      </trkpt>
      <trkpt lat="43.0219" lon="0.62576">
        <ele>702.48</ele>
        <time>2014-01-28T13:17:01Z</time>
      </trkpt>
      <trkpt lat="43.0219" lon="0.6257">
        <ele>702.28</ele>
        <time>2014-01-28T13:17:07Z</time>
      </trkpt>
      <trkpt lat="43.02192" lon="0.62564">
        <ele>705.09</ele>
        <time>2014-01-28T13:17:12Z</time>
      </trkpt>
      <trkpt lat="43.02192" lon="0.62557">
        <ele>707.05</ele>
        <time>2014-01-28T13:17:17Z</time>
      </trkpt>
      <trkpt lat="43.02193" lon="0.62551">
        <ele>706.6</ele>
        <time>2014-01-28T13:17:23Z</time>
      </trkpt>
      <trkpt lat="43.02195" lon="0.62545">
        <ele>706.31</ele>
        <time>2014-01-28T13:17:29Z</time>
      </trkpt>
      <trkpt lat="43.02197" lon="0.62538">
        <ele>705.84</ele>
        <time>2014-01-28T13:17:36Z</time>
      </trkpt>
      <trkpt lat="43.02196" lon="0.62532">
        <ele>706.35</ele>
        <time>2014-01-28T13:17:43Z</time>
      </trkpt>
      <trkpt lat="43.02198" lon="0.62526">
        <ele>706.2</ele>
        <time>2014-01-28T13:17:49Z</time>
      </trkpt>
      <trkpt lat="43.02197" lon="0.62519">
        <ele>706.4</ele>
        <time>2014-01-28T13:17:55Z</time>
      </trkpt>
      <trkpt lat="43.02197" lon="0.62513">
        <ele>705.77</ele>
        <time>2014-01-28T13:18:01Z</time>
      </trkpt>
      <trkpt lat="43.02198" lon="0.62507">
        <ele>706.17</ele>
        <time>2014-01-28T13:18:08Z</time>
      </trkpt>
      <trkpt lat="43.022" lon="0.625">
        <ele>706.8</ele>
        <time>2014-01-28T13:18:15Z</time>
      </trkpt>
      <trkpt lat="43.02201" lon="0.62494">
        <ele>707.06</ele>
        <time>2014-01-28T13:18:20Z</time>
      </trkpt>
      <trkpt lat="43.02203" lon="0.62488">
        <ele>707.04</ele>
        <time>2014-01-28T13:18:26Z</time>
      </trkpt>
      <trkpt lat="43.02203" lon="0.62482">
        <ele>706.11</ele>
        <time>2014-01-28T13:18:32Z</time>
      </trkpt>
      <trkpt lat="43.02204" lon="0.62475">
        <ele>707.57</ele>
        <time>2014-01-28T13:18:39Z</time>
      </trkpt>
      <trkpt lat="43.02204" lon="0.62468">
        <ele>707.75</ele>
        <time>2014-01-28T13:18:45Z</time>
      </trkpt>
      <trkpt lat="43.02205" lon="0.62461">
        <ele>707.81</ele>
        <time>2014-01-28T13:18:50Z</time>
      </trkpt>
      <trkpt lat="43.02205" lon="0.62454">
        <ele>706.61</ele>
        <time>2014-01-28T13:18:55Z</time>
      </trkpt>
      <trkpt lat="43.02205" lon="0.62448">
        <ele>706.1</ele>
        <time>2014-01-28T13:19:01Z</time>
      </trkpt>
      <trkpt lat="43.02206" lon="0.62441">
        <ele>706.71</ele>
        <time>2014-01-28T13:19:07Z</time>
      </trkpt>
      <trkpt lat="43.02207" lon="0.62435">
        <ele>707.26</ele>
        <time>2014-01-28T13:19:12Z</time>
      </trkpt>
      <trkpt lat="43.02207" lon="0.62428">
        <ele>708.02</ele>
        <time>2014-01-28T13:19:17Z</time>
      </trkpt>
      <trkpt lat="43.02207" lon="0.62421">
        <ele>707.32</ele>
        <time>2014-01-28T13:19:22Z</time>
      </trkpt>
      <trkpt lat="43.02207" lon="0.62413">
        <ele>706.49</ele>
        <time>2014-01-28T13:19:27Z</time>
      </trkpt>
      <trkpt lat="43.02207" lon="0.62406">
        <ele>705.27</ele>
        <time>2014-01-28T13:19:32Z</time>
      </trkpt>
      <trkpt lat="43.02208" lon="0.624">
        <ele>705.98</ele>
        <time>2014-01-28T13:19:40Z</time>
      </trkpt>
      <trkpt lat="43.02207" lon="0.62394">
        <ele>707.02</ele>
        <time>2014-01-28T13:19:45Z</time>
      </trkpt>
      <trkpt lat="43.02207" lon="0.62387">
        <ele>706.4</ele>
        <time>2014-01-28T13:19:53Z</time>
      </trkpt>
      <trkpt lat="43.02208" lon="0.62381">
        <ele>706.52</ele>
        <time>2014-01-28T13:20:03Z</time>
      </trkpt>
      <trkpt lat="43.02205" lon="0.62376">
        <ele>706.45</ele>
        <time>2014-01-28T13:20:09Z</time>
      </trkpt>
      <trkpt lat="43.02203" lon="0.6237">
        <ele>706.27</ele>
        <time>2014-01-28T13:20:14Z</time>
      </trkpt>
      <trkpt lat="43.02203" lon="0.62362">
        <ele>704.73</ele>
        <time>2014-01-28T13:20:19Z</time>
      </trkpt>
      <trkpt lat="43.02204" lon="0.62356">
        <ele>702.71</ele>
        <time>2014-01-28T13:20:23Z</time>
      </trkpt>
      <trkpt lat="43.02207" lon="0.62352">
        <ele>701.1</ele>
        <time>2014-01-28T13:20:28Z</time>
      </trkpt>
      <trkpt lat="43.02211" lon="0.62347">
        <ele>701.73</ele>
        <time>2014-01-28T13:20:32Z</time>
      </trkpt>
      <trkpt lat="43.02214" lon="0.62341">
        <ele>701</ele>
        <time>2014-01-28T13:20:37Z</time>
      </trkpt>
      <trkpt lat="43.02217" lon="0.62335">
        <ele>700.61</ele>
        <time>2014-01-28T13:20:42Z</time>
      </trkpt>
      <trkpt lat="43.0222" lon="0.6233">
        <ele>700.45</ele>
        <time>2014-01-28T13:20:47Z</time>
      </trkpt>
      <trkpt lat="43.02224" lon="0.62326">
        <ele>701.06</ele>
        <time>2014-01-28T13:20:52Z</time>
      </trkpt>
      <trkpt lat="43.02228" lon="0.62322">
        <ele>702.47</ele>
        <time>2014-01-28T13:20:57Z</time>
      </trkpt>
      <trkpt lat="43.02232" lon="0.62318">
        <ele>702.84</ele>
        <time>2014-01-28T13:21:02Z</time>
      </trkpt>
      <trkpt lat="43.02236" lon="0.62314">
        <ele>703.3</ele>
        <time>2014-01-28T13:21:08Z</time>
      </trkpt>
      <trkpt lat="43.0224" lon="0.62311">
        <ele>703.01</ele>
        <time>2014-01-28T13:21:14Z</time>
      </trkpt>
      <trkpt lat="43.02245" lon="0.62308">
        <ele>703.36</ele>
        <time>2014-01-28T13:21:20Z</time>
      </trkpt>
      <trkpt lat="43.0225" lon="0.62304">
        <ele>704.9</ele>
        <time>2014-01-28T13:21:26Z</time>
      </trkpt>
      <trkpt lat="43.02255" lon="0.62304">
        <ele>703.69</ele>
        <time>2014-01-28T13:21:32Z</time>
      </trkpt>
      <trkpt lat="43.0226" lon="0.62305">
        <ele>702.67</ele>
        <time>2014-01-28T13:21:39Z</time>
      </trkpt>
      <trkpt lat="43.02265" lon="0.62303">
        <ele>700.97</ele>
        <time>2014-01-28T13:21:46Z</time>
      </trkpt>
      <trkpt lat="43.02269" lon="0.623">
        <ele>701.03</ele>
        <time>2014-01-28T13:21:52Z</time>
      </trkpt>
      <trkpt lat="43.02274" lon="0.62299">
        <ele>700.81</ele>
        <time>2014-01-28T13:21:57Z</time>
      </trkpt>
      <trkpt lat="43.02279" lon="0.62297">
        <ele>699.11</ele>
        <time>2014-01-28T13:22:03Z</time>
      </trkpt>
      <trkpt lat="43.02284" lon="0.62297">
        <ele>697.56</ele>
        <time>2014-01-28T13:22:09Z</time>
      </trkpt>
      <trkpt lat="43.02289" lon="0.62297">
        <ele>698.12</ele>
        <time>2014-01-28T13:22:14Z</time>
      </trkpt>
      <trkpt lat="43.02295" lon="0.62297">
        <ele>697.71</ele>
        <time>2014-01-28T13:22:19Z</time>
      </trkpt>
      <trkpt lat="43.02299" lon="0.62299">
        <ele>698.6</ele>
        <time>2014-01-28T13:22:24Z</time>
      </trkpt>
      <trkpt lat="43.02304" lon="0.62301">
        <ele>698.73</ele>
        <time>2014-01-28T13:22:30Z</time>
      </trkpt>
      <trkpt lat="43.02308" lon="0.62305">
        <ele>697.38</ele>
        <time>2014-01-28T13:22:36Z</time>
      </trkpt>
      <trkpt lat="43.02312" lon="0.62309">
        <ele>697.75</ele>
        <time>2014-01-28T13:22:41Z</time>
      </trkpt>
      <trkpt lat="43.02316" lon="0.62313">
        <ele>698.81</ele>
        <time>2014-01-28T13:22:46Z</time>
      </trkpt>
      <trkpt lat="43.0232" lon="0.62316">
        <ele>697.77</ele>
        <time>2014-01-28T13:22:50Z</time>
      </trkpt>
      <trkpt lat="43.02324" lon="0.62319">
        <ele>698.02</ele>
        <time>2014-01-28T13:22:54Z</time>
      </trkpt>
      <trkpt lat="43.02327" lon="0.62323">
        <ele>699.27</ele>
        <time>2014-01-28T13:22:59Z</time>
      </trkpt>
      <trkpt lat="43.02332" lon="0.62326">
        <ele>699.37</ele>
        <time>2014-01-28T13:23:04Z</time>
      </trkpt>
      <trkpt lat="43.02336" lon="0.6233">
        <ele>700.5</ele>
        <time>2014-01-28T13:23:09Z</time>
      </trkpt>
      <trkpt lat="43.0234" lon="0.62332">
        <ele>698.68</ele>
        <time>2014-01-28T13:23:14Z</time>
      </trkpt>
      <trkpt lat="43.02345" lon="0.62332">
        <ele>698.68</ele>
        <time>2014-01-28T13:23:20Z</time>
      </trkpt>
      <trkpt lat="43.0235" lon="0.62333">
        <ele>698.08</ele>
        <time>2014-01-28T13:23:25Z</time>
      </trkpt>
      <trkpt lat="43.02355" lon="0.62333">
        <ele>697.64</ele>
        <time>2014-01-28T13:23:31Z</time>
      </trkpt>
      <trkpt lat="43.0236" lon="0.62333">
        <ele>696.39</ele>
        <time>2014-01-28T13:23:38Z</time>
      </trkpt>
      <trkpt lat="43.02365" lon="0.62334">
        <ele>696.78</ele>
        <time>2014-01-28T13:23:46Z</time>
      </trkpt>
      <trkpt lat="43.0237" lon="0.62335">
        <ele>693.25</ele>
        <time>2014-01-28T13:23:52Z</time>
      </trkpt>
      <trkpt lat="43.02375" lon="0.62336">
        <ele>690.34</ele>
        <time>2014-01-28T13:23:58Z</time>
      </trkpt>
      <trkpt lat="43.0238" lon="0.62336">
        <ele>686.75</ele>
        <time>2014-01-28T13:24:05Z</time>
      </trkpt>
      <trkpt lat="43.02385" lon="0.62338">
        <ele>684.6</ele>
        <time>2014-01-28T13:24:10Z</time>
      </trkpt>
      <trkpt lat="43.0239" lon="0.62337">
        <ele>683.61</ele>
        <time>2014-01-28T13:24:15Z</time>
      </trkpt>
      <trkpt lat="43.02395" lon="0.62337">
        <ele>681.54</ele>
        <time>2014-01-28T13:24:20Z</time>
      </trkpt>
      <trkpt lat="43.024" lon="0.62337">
        <ele>680.68</ele>
        <time>2014-01-28T13:24:25Z</time>
      </trkpt>
      <trkpt lat="43.02405" lon="0.62338">
        <ele>680.22</ele>
        <time>2014-01-28T13:24:32Z</time>
      </trkpt>
      <trkpt lat="43.0241" lon="0.6234">
        <ele>680.51</ele>
        <time>2014-01-28T13:24:39Z</time>
      </trkpt>
      <trkpt lat="43.02415" lon="0.62342">
        <ele>678.33</ele>
        <time>2014-01-28T13:24:44Z</time>
      </trkpt>
      <trkpt lat="43.0242" lon="0.62344">
        <ele>679.16</ele>
        <time>2014-01-28T13:24:48Z</time>
      </trkpt>
      <trkpt lat="43.02425" lon="0.62344">
        <ele>678.39</ele>
        <time>2014-01-28T13:24:53Z</time>
      </trkpt>
      <trkpt lat="43.0243" lon="0.62345">
        <ele>679.08</ele>
        <time>2014-01-28T13:25:02Z</time>
      </trkpt>
      <trkpt lat="43.02435" lon="0.62346">
        <ele>683.33</ele>
        <time>2014-01-28T13:25:08Z</time>
      </trkpt>
      <trkpt lat="43.02438" lon="0.62351">
        <ele>682.35</ele>
        <time>2014-01-28T13:25:26Z</time>
      </trkpt>
      <trkpt lat="43.02442" lon="0.62355">
        <ele>682.74</ele>
        <time>2014-01-28T13:25:33Z</time>
      </trkpt>
      <trkpt lat="43.02445" lon="0.6236">
        <ele>682.41</ele>
        <time>2014-01-28T13:25:37Z</time>
      </trkpt>
      <trkpt lat="43.02449" lon="0.62364">
        <ele>681.85</ele>
        <time>2014-01-28T13:25:41Z</time>
      </trkpt>
      <trkpt lat="43.02454" lon="0.62366">
        <ele>680.56</ele>
        <time>2014-01-28T13:25:46Z</time>
      </trkpt>
      <trkpt lat="43.02458" lon="0.62369">
        <ele>678.94</ele>
        <time>2014-01-28T13:25:50Z</time>
      </trkpt>
      <trkpt lat="43.02463" lon="0.62372">
        <ele>678.55</ele>
        <time>2014-01-28T13:25:55Z</time>
      </trkpt>
      <trkpt lat="43.02468" lon="0.62373">
        <ele>678.72</ele>
        <time>2014-01-28T13:26:00Z</time>
      </trkpt>
      <trkpt lat="43.02472" lon="0.62377">
        <ele>679.54</ele>
        <time>2014-01-28T13:26:05Z</time>
      </trkpt>
      <trkpt lat="43.02476" lon="0.62382">
        <ele>678</ele>
        <time>2014-01-28T13:26:10Z</time>
      </trkpt>
      <trkpt lat="43.02479" lon="0.62387">
        <ele>678.39</ele>
        <time>2014-01-28T13:26:16Z</time>
      </trkpt>
      <trkpt lat="43.02483" lon="0.62391">
        <ele>677.98</ele>
        <time>2014-01-28T13:26:20Z</time>
      </trkpt>
      <trkpt lat="43.02487" lon="0.62394">
        <ele>679.95</ele>
        <time>2014-01-28T13:26:24Z</time>
      </trkpt>
      <trkpt lat="43.02492" lon="0.62395">
        <ele>680.98</ele>
        <time>2014-01-28T13:26:28Z</time>
      </trkpt>
      <trkpt lat="43.02496" lon="0.62399">
        <ele>677.16</ele>
        <time>2014-01-28T13:26:48Z</time>
      </trkpt>
      <trkpt lat="43.025" lon="0.624">
        <ele>678.22</ele>
        <time>2014-01-28T13:26:53Z</time>
      </trkpt>
      <trkpt lat="43.02504" lon="0.62405">
        <ele>674.91</ele>
        <time>2014-01-28T13:26:57Z</time>
      </trkpt>
      <trkpt lat="43.02508" lon="0.62408">
        <ele>674.61</ele>
        <time>2014-01-28T13:27:02Z</time>
      </trkpt>
      <trkpt lat="43.02512" lon="0.62411">
        <ele>674.22</ele>
        <time>2014-01-28T13:27:06Z</time>
      </trkpt>
      <trkpt lat="43.02515" lon="0.62417">
        <ele>672.46</ele>
        <time>2014-01-28T13:27:12Z</time>
      </trkpt>
      <trkpt lat="43.02519" lon="0.62419">
        <ele>673.31</ele>
        <time>2014-01-28T13:27:19Z</time>
      </trkpt>
      <trkpt lat="43.02524" lon="0.6242">
        <ele>677.31</ele>
        <time>2014-01-28T13:27:25Z</time>
      </trkpt>
      <trkpt lat="43.0253" lon="0.62421">
        <ele>676.34</ele>
        <time>2014-01-28T13:27:31Z</time>
      </trkpt>
      <trkpt lat="43.02534" lon="0.62423">
        <ele>676.82</ele>
        <time>2014-01-28T13:27:37Z</time>
      </trkpt>
      <trkpt lat="43.02538" lon="0.62426">
        <ele>674.41</ele>
        <time>2014-01-28T13:27:45Z</time>
      </trkpt>
      <trkpt lat="43.02543" lon="0.62429">
        <ele>670.84</ele>
        <time>2014-01-28T13:27:50Z</time>
      </trkpt>
      <trkpt lat="43.02547" lon="0.6243">
        <ele>667.18</ele>
        <time>2014-01-28T13:27:57Z</time>
      </trkpt>
      <trkpt lat="43.02552" lon="0.62432">
        <ele>666.55</ele>
        <time>2014-01-28T13:28:03Z</time>
      </trkpt>
      <trkpt lat="43.02557" lon="0.62434">
        <ele>667.2</ele>
        <time>2014-01-28T13:28:08Z</time>
      </trkpt>
      <trkpt lat="43.02561" lon="0.62435">
        <ele>666.74</ele>
        <time>2014-01-28T13:28:12Z</time>
      </trkpt>
      <trkpt lat="43.02566" lon="0.62438">
        <ele>665.52</ele>
        <time>2014-01-28T13:28:17Z</time>
      </trkpt>
      <trkpt lat="43.02571" lon="0.62442">
        <ele>665.7</ele>
        <time>2014-01-28T13:28:22Z</time>
      </trkpt>
      <trkpt lat="43.02576" lon="0.62443">
        <ele>665.88</ele>
        <time>2014-01-28T13:28:27Z</time>
      </trkpt>
      <trkpt lat="43.02581" lon="0.62445">
        <ele>666.83</ele>
        <time>2014-01-28T13:28:32Z</time>
      </trkpt>
      <trkpt lat="43.02585" lon="0.62448">
        <ele>666.65</ele>
        <time>2014-01-28T13:28:37Z</time>
      </trkpt>
      <trkpt lat="43.0259" lon="0.62451">
        <ele>664.04</ele>
        <time>2014-01-28T13:28:44Z</time>
      </trkpt>
      <trkpt lat="43.02594" lon="0.62454">
        <ele>663.6</ele>
        <time>2014-01-28T13:28:49Z</time>
      </trkpt>
      <trkpt lat="43.02599" lon="0.62457">
        <ele>662.76</ele>
        <time>2014-01-28T13:28:54Z</time>
      </trkpt>
      <trkpt lat="43.02604" lon="0.62458">
        <ele>660.93</ele>
        <time>2014-01-28T13:28:59Z</time>
      </trkpt>
      <trkpt lat="43.02609" lon="0.6246">
        <ele>660.42</ele>
        <time>2014-01-28T13:29:04Z</time>
      </trkpt>
      <trkpt lat="43.02613" lon="0.62463">
        <ele>660.37</ele>
        <time>2014-01-28T13:29:09Z</time>
      </trkpt>
      <trkpt lat="43.02618" lon="0.62467">
        <ele>659.69</ele>
        <time>2014-01-28T13:29:14Z</time>
      </trkpt>
      <trkpt lat="43.02622" lon="0.6247">
        <ele>659.86</ele>
        <time>2014-01-28T13:29:18Z</time>
      </trkpt>
      <trkpt lat="43.02627" lon="0.62474">
        <ele>658.7</ele>
        <time>2014-01-28T13:29:23Z</time>
      </trkpt>
      <trkpt lat="43.0263" lon="0.62478">
        <ele>659.64</ele>
        <time>2014-01-28T13:29:29Z</time>
      </trkpt>
      <trkpt lat="43.02634" lon="0.62484">
        <ele>656.84</ele>
        <time>2014-01-28T13:29:36Z</time>
      </trkpt>
      <trkpt lat="43.02637" lon="0.62488">
        <ele>657.22</ele>
        <time>2014-01-28T13:29:40Z</time>
      </trkpt>
      <trkpt lat="43.02642" lon="0.62491">
        <ele>656.04</ele>
        <time>2014-01-28T13:29:45Z</time>
      </trkpt>
      <trkpt lat="43.02646" lon="0.62496">
        <ele>652.79</ele>
        <time>2014-01-28T13:29:50Z</time>
      </trkpt>
      <trkpt lat="43.02648" lon="0.62501">
        <ele>650.25</ele>
        <time>2014-01-28T13:29:54Z</time>
      </trkpt>
      <trkpt lat="43.02652" lon="0.62506">
        <ele>647.35</ele>
        <time>2014-01-28T13:29:59Z</time>
      </trkpt>
      <trkpt lat="43.02656" lon="0.6251">
        <ele>645.99</ele>
        <time>2014-01-28T13:30:04Z</time>
      </trkpt>
      <trkpt lat="43.02661" lon="0.62514">
        <ele>645.56</ele>
        <time>2014-01-28T13:30:09Z</time>
      </trkpt>
      <trkpt lat="43.02665" lon="0.62517">
        <ele>645.35</ele>
        <time>2014-01-28T13:30:13Z</time>
      </trkpt>
      <trkpt lat="43.02669" lon="0.6252">
        <ele>647.63</ele>
        <time>2014-01-28T13:30:18Z</time>
      </trkpt>
      <trkpt lat="43.02673" lon="0.62525">
        <ele>647.35</ele>
        <time>2014-01-28T13:30:23Z</time>
      </trkpt>
      <trkpt lat="43.02677" lon="0.6253">
        <ele>647.5</ele>
        <time>2014-01-28T13:30:29Z</time>
      </trkpt>
      <trkpt lat="43.02681" lon="0.62534">
        <ele>648.79</ele>
        <time>2014-01-28T13:30:34Z</time>
      </trkpt>
      <trkpt lat="43.02686" lon="0.62538">
        <ele>646.83</ele>
        <time>2014-01-28T13:30:39Z</time>
      </trkpt>
      <trkpt lat="43.0269" lon="0.62543">
        <ele>647.11</ele>
        <time>2014-01-28T13:30:43Z</time>
      </trkpt>
      <trkpt lat="43.02695" lon="0.62546">
        <ele>644.74</ele>
        <time>2014-01-28T13:30:48Z</time>
      </trkpt>
      <trkpt lat="43.02699" lon="0.62551">
        <ele>644.51</ele>
        <time>2014-01-28T13:30:53Z</time>
      </trkpt>
      <trkpt lat="43.02703" lon="0.62554">
        <ele>642.66</ele>
        <time>2014-01-28T13:30:57Z</time>
      </trkpt>
      <trkpt lat="43.02707" lon="0.62558">
        <ele>640.63</ele>
        <time>2014-01-28T13:31:02Z</time>
      </trkpt>
      <trkpt lat="43.0271" lon="0.62563">
        <ele>641.14</ele>
        <time>2014-01-28T13:31:07Z</time>
      </trkpt>
      <trkpt lat="43.02712" lon="0.62569">
        <ele>641.22</ele>
        <time>2014-01-28T13:31:13Z</time>
      </trkpt>
      <trkpt lat="43.02715" lon="0.62574">
        <ele>640.12</ele>
        <time>2014-01-28T13:31:18Z</time>
      </trkpt>
      <trkpt lat="43.02718" lon="0.62578">
        <ele>637.05</ele>
        <time>2014-01-28T13:31:23Z</time>
      </trkpt>
      <trkpt lat="43.02721" lon="0.62583">
        <ele>634.24</ele>
        <time>2014-01-28T13:31:28Z</time>
      </trkpt>
      <trkpt lat="43.02725" lon="0.62587">
        <ele>632.87</ele>
        <time>2014-01-28T13:31:33Z</time>
      </trkpt>
      <trkpt lat="43.02729" lon="0.62592">
        <ele>631.05</ele>
        <time>2014-01-28T13:31:38Z</time>
      </trkpt>
      <trkpt lat="43.02733" lon="0.62597">
        <ele>629.47</ele>
        <time>2014-01-28T13:31:43Z</time>
      </trkpt>
      <trkpt lat="43.02736" lon="0.62603">
        <ele>628.99</ele>
        <time>2014-01-28T13:31:48Z</time>
      </trkpt>
      <trkpt lat="43.02739" lon="0.62608">
        <ele>627.4</ele>
        <time>2014-01-28T13:31:53Z</time>
      </trkpt>
      <trkpt lat="43.02743" lon="0.62614">
        <ele>625.91</ele>
        <time>2014-01-28T13:31:58Z</time>
      </trkpt>
      <trkpt lat="43.02746" lon="0.62617">
        <ele>624.79</ele>
        <time>2014-01-28T13:32:03Z</time>
      </trkpt>
      <trkpt lat="43.02751" lon="0.62621">
        <ele>624.28</ele>
        <time>2014-01-28T13:32:08Z</time>
      </trkpt>
      <trkpt lat="43.02754" lon="0.62625">
        <ele>623.28</ele>
        <time>2014-01-28T13:32:13Z</time>
      </trkpt>
      <trkpt lat="43.02757" lon="0.62631">
        <ele>623.2</ele>
        <time>2014-01-28T13:32:18Z</time>
      </trkpt>
      <trkpt lat="43.0276" lon="0.62636">
        <ele>622.57</ele>
        <time>2014-01-28T13:32:22Z</time>
      </trkpt>
      <trkpt lat="43.02763" lon="0.62641">
        <ele>622.21</ele>
        <time>2014-01-28T13:32:27Z</time>
      </trkpt>
      <trkpt lat="43.02766" lon="0.62647">
        <ele>620.12</ele>
        <time>2014-01-28T13:32:33Z</time>
      </trkpt>
      <trkpt lat="43.0277" lon="0.62651">
        <ele>620.52</ele>
        <time>2014-01-28T13:32:39Z</time>
      </trkpt>
      <trkpt lat="43.02774" lon="0.62657">
        <ele>620.1</ele>
        <time>2014-01-28T13:32:45Z</time>
      </trkpt>
      <trkpt lat="43.02777" lon="0.62662">
        <ele>619.47</ele>
        <time>2014-01-28T13:32:50Z</time>
      </trkpt>
      <trkpt lat="43.02779" lon="0.62667">
        <ele>618.77</ele>
        <time>2014-01-28T13:32:55Z</time>
      </trkpt>
      <trkpt lat="43.02783" lon="0.62671">
        <ele>618</ele>
        <time>2014-01-28T13:33:00Z</time>
      </trkpt>
      <trkpt lat="43.02787" lon="0.62676">
        <ele>618.55</ele>
        <time>2014-01-28T13:33:06Z</time>
      </trkpt>
      <trkpt lat="43.0279" lon="0.62681">
        <ele>618.43</ele>
        <time>2014-01-28T13:33:11Z</time>
      </trkpt>
      <trkpt lat="43.02794" lon="0.62685">
        <ele>618.94</ele>
        <time>2014-01-28T13:33:16Z</time>
      </trkpt>
      <trkpt lat="43.02798" lon="0.6269">
        <ele>617.81</ele>
        <time>2014-01-28T13:33:21Z</time>
      </trkpt>
      <trkpt lat="43.02802" lon="0.62694">
        <ele>615.84</ele>
        <time>2014-01-28T13:33:25Z</time>
      </trkpt>
      <trkpt lat="43.02804" lon="0.627">
        <ele>615.77</ele>
        <time>2014-01-28T13:33:29Z</time>
      </trkpt>
      <trkpt lat="43.02807" lon="0.62705">
        <ele>615.91</ele>
        <time>2014-01-28T13:33:33Z</time>
      </trkpt>
      <trkpt lat="43.02811" lon="0.6271">
        <ele>615.26</ele>
        <time>2014-01-28T13:33:36Z</time>
      </trkpt>
      <trkpt lat="43.02813" lon="0.62715">
        <ele>615.15</ele>
        <time>2014-01-28T13:33:39Z</time>
      </trkpt>
      <trkpt lat="43.02815" lon="0.62722">
        <ele>614.22</ele>
        <time>2014-01-28T13:33:43Z</time>
      </trkpt>
      <trkpt lat="43.02818" lon="0.62728">
        <ele>613.3</ele>
        <time>2014-01-28T13:33:47Z</time>
      </trkpt>
      <trkpt lat="43.02821" lon="0.62734">
        <ele>612.97</ele>
        <time>2014-01-28T13:33:51Z</time>
      </trkpt>
      <trkpt lat="43.02825" lon="0.62738">
        <ele>613.48</ele>
        <time>2014-01-28T13:33:55Z</time>
      </trkpt>
      <trkpt lat="43.02828" lon="0.62743">
        <ele>612.37</ele>
        <time>2014-01-28T13:33:59Z</time>
      </trkpt>
      <trkpt lat="43.02833" lon="0.62744">
        <ele>611.39</ele>
        <time>2014-01-28T13:34:03Z</time>
      </trkpt>
      <trkpt lat="43.02837" lon="0.62749">
        <ele>610.42</ele>
        <time>2014-01-28T13:34:10Z</time>
      </trkpt>
      <trkpt lat="43.02838" lon="0.62755">
        <ele>607.87</ele>
        <time>2014-01-28T13:34:14Z</time>
      </trkpt>
      <trkpt lat="43.0284" lon="0.62761">
        <ele>606.14</ele>
        <time>2014-01-28T13:34:18Z</time>
      </trkpt>
      <trkpt lat="43.02843" lon="0.62767">
        <ele>606.16</ele>
        <time>2014-01-28T13:34:23Z</time>
      </trkpt>
      <trkpt lat="43.02846" lon="0.62772">
        <ele>606.23</ele>
        <time>2014-01-28T13:34:28Z</time>
      </trkpt>
      <trkpt lat="43.02847" lon="0.62778">
        <ele>606.33</ele>
        <time>2014-01-28T13:34:32Z</time>
      </trkpt>
      <trkpt lat="43.0285" lon="0.62784">
        <ele>604.61</ele>
        <time>2014-01-28T13:34:37Z</time>
      </trkpt>
      <trkpt lat="43.02854" lon="0.62788">
        <ele>605.49</ele>
        <time>2014-01-28T13:34:41Z</time>
      </trkpt>
      <trkpt lat="43.02857" lon="0.62795">
        <ele>605.71</ele>
        <time>2014-01-28T13:34:46Z</time>
      </trkpt>
      <trkpt lat="43.0286" lon="0.628">
        <ele>606.86</ele>
        <time>2014-01-28T13:34:50Z</time>
      </trkpt>
      <trkpt lat="43.02864" lon="0.62804">
        <ele>606.53</ele>
        <time>2014-01-28T13:34:54Z</time>
      </trkpt>
      <trkpt lat="43.02867" lon="0.62809">
        <ele>605.06</ele>
        <time>2014-01-28T13:34:58Z</time>
      </trkpt>
      <trkpt lat="43.0287" lon="0.62814">
        <ele>604.1</ele>
        <time>2014-01-28T13:35:02Z</time>
      </trkpt>
      <trkpt lat="43.02875" lon="0.62816">
        <ele>601.15</ele>
        <time>2014-01-28T13:35:07Z</time>
      </trkpt>
      <trkpt lat="43.02877" lon="0.62822">
        <ele>601.45</ele>
        <time>2014-01-28T13:35:12Z</time>
      </trkpt>
      <trkpt lat="43.02879" lon="0.62828">
        <ele>602.54</ele>
        <time>2014-01-28T13:35:17Z</time>
      </trkpt>
      <trkpt lat="43.02882" lon="0.62833">
        <ele>603.89</ele>
        <time>2014-01-28T13:35:21Z</time>
      </trkpt>
      <trkpt lat="43.02885" lon="0.62839">
        <ele>605.8</ele>
        <time>2014-01-28T13:35:26Z</time>
      </trkpt>
      <trkpt lat="43.02887" lon="0.62846">
        <ele>603.77</ele>
        <time>2014-01-28T13:35:32Z</time>
      </trkpt>
      <trkpt lat="43.0289" lon="0.62852">
        <ele>604.36</ele>
        <time>2014-01-28T13:35:37Z</time>
      </trkpt>
      <trkpt lat="43.02894" lon="0.62855">
        <ele>606.35</ele>
        <time>2014-01-28T13:35:41Z</time>
      </trkpt>
      <trkpt lat="43.02897" lon="0.6286">
        <ele>605.83</ele>
        <time>2014-01-28T13:35:46Z</time>
      </trkpt>
      <trkpt lat="43.02902" lon="0.62864">
        <ele>603.62</ele>
        <time>2014-01-28T13:35:51Z</time>
      </trkpt>
      <trkpt lat="43.02905" lon="0.62871">
        <ele>603.11</ele>
        <time>2014-01-28T13:35:56Z</time>
      </trkpt>
      <trkpt lat="43.02909" lon="0.62876">
        <ele>603.46</ele>
        <time>2014-01-28T13:36:01Z</time>
      </trkpt>
      <trkpt lat="43.02911" lon="0.62881">
        <ele>600.49</ele>
        <time>2014-01-28T13:36:07Z</time>
      </trkpt>
      <trkpt lat="43.02914" lon="0.62887">
        <ele>599.11</ele>
        <time>2014-01-28T13:36:12Z</time>
      </trkpt>
      <trkpt lat="43.02916" lon="0.62893">
        <ele>599.68</ele>
        <time>2014-01-28T13:36:16Z</time>
      </trkpt>
      <trkpt lat="43.02919" lon="0.62899">
        <ele>599.49</ele>
        <time>2014-01-28T13:36:20Z</time>
      </trkpt>
      <trkpt lat="43.0292" lon="0.62905">
        <ele>600.32</ele>
        <time>2014-01-28T13:36:24Z</time>
      </trkpt>
      <trkpt lat="43.02925" lon="0.6291">
        <ele>600.67</ele>
        <time>2014-01-28T13:36:28Z</time>
      </trkpt>
      <trkpt lat="43.02929" lon="0.62913">
        <ele>599.1</ele>
        <time>2014-01-28T13:36:32Z</time>
      </trkpt>
      <trkpt lat="43.02933" lon="0.62917">
        <ele>598.37</ele>
        <time>2014-01-28T13:36:36Z</time>
      </trkpt>
      <trkpt lat="43.02936" lon="0.62922">
        <ele>598.2</ele>
        <time>2014-01-28T13:36:40Z</time>
      </trkpt>
      <trkpt lat="43.02939" lon="0.62928">
        <ele>598.15</ele>
        <time>2014-01-28T13:36:45Z</time>
      </trkpt>
      <trkpt lat="43.02942" lon="0.62933">
        <ele>599.41</ele>
        <time>2014-01-28T13:36:50Z</time>
      </trkpt>
      <trkpt lat="43.02946" lon="0.62937">
        <ele>600.46</ele>
        <time>2014-01-28T13:37:02Z</time>
      </trkpt>
      <trkpt lat="43.0295" lon="0.62941">
        <ele>600.73</ele>
        <time>2014-01-28T13:37:05Z</time>
      </trkpt>
      <trkpt lat="43.02955" lon="0.62946">
        <ele>599</ele>
        <time>2014-01-28T13:37:09Z</time>
      </trkpt>
      <trkpt lat="43.02959" lon="0.62949">
        <ele>598.62</ele>
        <time>2014-01-28T13:37:12Z</time>
      </trkpt>
      <trkpt lat="43.02963" lon="0.62954">
        <ele>599.37</ele>
        <time>2014-01-28T13:37:16Z</time>
      </trkpt>
      <trkpt lat="43.02968" lon="0.62957">
        <ele>599.27</ele>
        <time>2014-01-28T13:37:20Z</time>
      </trkpt>
      <trkpt lat="43.02971" lon="0.62962">
        <ele>598.29</ele>
        <time>2014-01-28T13:37:24Z</time>
      </trkpt>
      <trkpt lat="43.02975" lon="0.62968">
        <ele>598.05</ele>
        <time>2014-01-28T13:37:29Z</time>
      </trkpt>
      <trkpt lat="43.02978" lon="0.62972">
        <ele>597.14</ele>
        <time>2014-01-28T13:37:35Z</time>
      </trkpt>
      <trkpt lat="43.02982" lon="0.62977">
        <ele>594.89</ele>
        <time>2014-01-28T13:37:41Z</time>
      </trkpt>
      <trkpt lat="43.02986" lon="0.62981">
        <ele>595.93</ele>
        <time>2014-01-28T13:37:46Z</time>
      </trkpt>
      <trkpt lat="43.02989" lon="0.62987">
        <ele>594.53</ele>
        <time>2014-01-28T13:37:51Z</time>
      </trkpt>
      <trkpt lat="43.02994" lon="0.62991">
        <ele>594.21</ele>
        <time>2014-01-28T13:37:56Z</time>
      </trkpt>
      <trkpt lat="43.02996" lon="0.62997">
        <ele>592.65</ele>
        <time>2014-01-28T13:38:01Z</time>
      </trkpt>
      <trkpt lat="43.02999" lon="0.63003">
        <ele>590.64</ele>
        <time>2014-01-28T13:38:06Z</time>
      </trkpt>
      <trkpt lat="43.03004" lon="0.63006">
        <ele>589.63</ele>
        <time>2014-01-28T13:38:12Z</time>
      </trkpt>
      <trkpt lat="43.03008" lon="0.63012">
        <ele>588.6</ele>
        <time>2014-01-28T13:38:17Z</time>
      </trkpt>
      <trkpt lat="43.03011" lon="0.63018">
        <ele>587.07</ele>
        <time>2014-01-28T13:38:22Z</time>
      </trkpt>
      <trkpt lat="43.03016" lon="0.6302">
        <ele>589.65</ele>
        <time>2014-01-28T13:38:27Z</time>
      </trkpt>
      <trkpt lat="43.0302" lon="0.63023">
        <ele>591.2</ele>
        <time>2014-01-28T13:38:33Z</time>
      </trkpt>
      <trkpt lat="43.03024" lon="0.63028">
        <ele>591.42</ele>
        <time>2014-01-28T13:38:38Z</time>
      </trkpt>
      <trkpt lat="43.03028" lon="0.63031">
        <ele>590.66</ele>
        <time>2014-01-28T13:38:42Z</time>
      </trkpt>
      <trkpt lat="43.03031" lon="0.63037">
        <ele>588.5</ele>
        <time>2014-01-28T13:38:47Z</time>
      </trkpt>
      <trkpt lat="43.03035" lon="0.63041">
        <ele>587.11</ele>
        <time>2014-01-28T13:38:52Z</time>
      </trkpt>
      <trkpt lat="43.03039" lon="0.63045">
        <ele>587.2</ele>
        <time>2014-01-28T13:38:56Z</time>
      </trkpt>
      <trkpt lat="43.03043" lon="0.63049">
        <ele>587.3</ele>
        <time>2014-01-28T13:39:03Z</time>
      </trkpt>
      <trkpt lat="43.03047" lon="0.63052">
        <ele>587.77</ele>
        <time>2014-01-28T13:39:07Z</time>
      </trkpt>
      <trkpt lat="43.03051" lon="0.63057">
        <ele>587.97</ele>
        <time>2014-01-28T13:39:12Z</time>
      </trkpt>
      <trkpt lat="43.03055" lon="0.63061">
        <ele>585.45</ele>
        <time>2014-01-28T13:39:17Z</time>
      </trkpt>
      <trkpt lat="43.03059" lon="0.63064">
        <ele>586.75</ele>
        <time>2014-01-28T13:39:22Z</time>
      </trkpt>
      <trkpt lat="43.03063" lon="0.63069">
        <ele>588.39</ele>
        <time>2014-01-28T13:39:29Z</time>
      </trkpt>
      <trkpt lat="43.03068" lon="0.63072">
        <ele>589.79</ele>
        <time>2014-01-28T13:39:33Z</time>
      </trkpt>
      <trkpt lat="43.03073" lon="0.63074">
        <ele>591.42</ele>
        <time>2014-01-28T13:39:38Z</time>
      </trkpt>
      <trkpt lat="43.03079" lon="0.63075">
        <ele>590.34</ele>
        <time>2014-01-28T13:39:43Z</time>
      </trkpt>
      <trkpt lat="43.03084" lon="0.63075">
        <ele>591.3</ele>
        <time>2014-01-28T13:39:47Z</time>
      </trkpt>
      <trkpt lat="43.03088" lon="0.63074">
        <ele>590.08</ele>
        <time>2014-01-28T13:39:51Z</time>
      </trkpt>
      <trkpt lat="43.03093" lon="0.63076">
        <ele>589</ele>
        <time>2014-01-28T13:39:56Z</time>
      </trkpt>
      <trkpt lat="43.03098" lon="0.63077">
        <ele>587.37</ele>
        <time>2014-01-28T13:40:01Z</time>
      </trkpt>
      <trkpt lat="43.03103" lon="0.63077">
        <ele>587.03</ele>
        <time>2014-01-28T13:40:11Z</time>
      </trkpt>
      <trkpt lat="43.03108" lon="0.63078">
        <ele>584.01</ele>
        <time>2014-01-28T13:40:15Z</time>
      </trkpt>
      <trkpt lat="43.03113" lon="0.63076">
        <ele>585.23</ele>
        <time>2014-01-28T13:40:19Z</time>
      </trkpt>
      <trkpt lat="43.03117" lon="0.63076">
        <ele>584.34</ele>
        <time>2014-01-28T13:40:24Z</time>
      </trkpt>
      <trkpt lat="43.03123" lon="0.63076">
        <ele>581.33</ele>
        <time>2014-01-28T13:40:29Z</time>
      </trkpt>
      <trkpt lat="43.03127" lon="0.63077">
        <ele>577.48</ele>
        <time>2014-01-28T13:40:33Z</time>
      </trkpt>
      <trkpt lat="43.03132" lon="0.63078">
        <ele>576.61</ele>
        <time>2014-01-28T13:40:36Z</time>
      </trkpt>
      <trkpt lat="43.03138" lon="0.63079">
        <ele>573.45</ele>
        <time>2014-01-28T13:40:40Z</time>
      </trkpt>
      <trkpt lat="43.03144" lon="0.63082">
        <ele>571.88</ele>
        <time>2014-01-28T13:40:44Z</time>
      </trkpt>
      <trkpt lat="43.03148" lon="0.63083">
        <ele>572.71</ele>
        <time>2014-01-28T13:40:48Z</time>
      </trkpt>
      <trkpt lat="43.03154" lon="0.63085">
        <ele>572.69</ele>
        <time>2014-01-28T13:40:52Z</time>
      </trkpt>
      <trkpt lat="43.03159" lon="0.63086">
        <ele>571.61</ele>
        <time>2014-01-28T13:40:56Z</time>
      </trkpt>
      <trkpt lat="43.03163" lon="0.63085">
        <ele>571.14</ele>
        <time>2014-01-28T13:41:00Z</time>
      </trkpt>
      <trkpt lat="43.03169" lon="0.63085">
        <ele>570.47</ele>
        <time>2014-01-28T13:41:06Z</time>
      </trkpt>
      <trkpt lat="43.03174" lon="0.63085">
        <ele>569.16</ele>
        <time>2014-01-28T13:41:11Z</time>
      </trkpt>
      <trkpt lat="43.03179" lon="0.63084">
        <ele>567.52</ele>
        <time>2014-01-28T13:41:15Z</time>
      </trkpt>
      <trkpt lat="43.03184" lon="0.63085">
        <ele>566.81</ele>
        <time>2014-01-28T13:41:20Z</time>
      </trkpt>
      <trkpt lat="43.03188" lon="0.63085">
        <ele>564.53</ele>
        <time>2014-01-28T13:41:26Z</time>
      </trkpt>
      <trkpt lat="43.03194" lon="0.63081">
        <ele>564.55</ele>
        <time>2014-01-28T13:41:31Z</time>
      </trkpt>
      <trkpt lat="43.03198" lon="0.63079">
        <ele>561.15</ele>
        <time>2014-01-28T13:41:35Z</time>
      </trkpt>
      <trkpt lat="43.03204" lon="0.63077">
        <ele>560.12</ele>
        <time>2014-01-28T13:41:39Z</time>
      </trkpt>
      <trkpt lat="43.03209" lon="0.63074">
        <ele>558.62</ele>
        <time>2014-01-28T13:41:44Z</time>
      </trkpt>
      <trkpt lat="43.03213" lon="0.63071">
        <ele>557.76</ele>
        <time>2014-01-28T13:41:49Z</time>
      </trkpt>
      <trkpt lat="43.03218" lon="0.63067">
        <ele>555.76</ele>
        <time>2014-01-28T13:41:54Z</time>
      </trkpt>
      <trkpt lat="43.03222" lon="0.63064">
        <ele>554.87</ele>
        <time>2014-01-28T13:41:58Z</time>
      </trkpt>
      <trkpt lat="43.03226" lon="0.6306">
        <ele>551.11</ele>
        <time>2014-01-28T13:42:10Z</time>
      </trkpt>
      <trkpt lat="43.0323" lon="0.63055">
        <ele>550.4</ele>
        <time>2014-01-28T13:42:20Z</time>
      </trkpt>
      <trkpt lat="43.03234" lon="0.63051">
        <ele>549.96</ele>
        <time>2014-01-28T13:42:24Z</time>
      </trkpt>
      <trkpt lat="43.03236" lon="0.63046">
        <ele>551.65</ele>
        <time>2014-01-28T13:42:28Z</time>
      </trkpt>
      <trkpt lat="43.03238" lon="0.63039">
        <ele>553.28</ele>
        <time>2014-01-28T13:42:33Z</time>
      </trkpt>
      <trkpt lat="43.03242" lon="0.63034">
        <ele>553.78</ele>
        <time>2014-01-28T13:42:38Z</time>
      </trkpt>
      <trkpt lat="43.03245" lon="0.63028">
        <ele>553.9</ele>
        <time>2014-01-28T13:42:44Z</time>
      </trkpt>
      <trkpt lat="43.03247" lon="0.63021">
        <ele>553.12</ele>
        <time>2014-01-28T13:42:50Z</time>
      </trkpt>
      <trkpt lat="43.03249" lon="0.63015">
        <ele>551.5</ele>
        <time>2014-01-28T13:42:55Z</time>
      </trkpt>
      <trkpt lat="43.03251" lon="0.63008">
        <ele>552.53</ele>
        <time>2014-01-28T13:43:00Z</time>
      </trkpt>
      <trkpt lat="43.03253" lon="0.63002">
        <ele>551.01</ele>
        <time>2014-01-28T13:43:04Z</time>
      </trkpt>
      <trkpt lat="43.03255" lon="0.62995">
        <ele>551.34</ele>
        <time>2014-01-28T13:43:08Z</time>
      </trkpt>
      <trkpt lat="43.03257" lon="0.62989">
        <ele>549.07</ele>
        <time>2014-01-28T13:43:12Z</time>
      </trkpt>
      <trkpt lat="43.03258" lon="0.62983">
        <ele>548.11</ele>
        <time>2014-01-28T13:43:16Z</time>
      </trkpt>
      <trkpt lat="43.03258" lon="0.62976">
        <ele>547.07</ele>
        <time>2014-01-28T13:43:20Z</time>
      </trkpt>
      <trkpt lat="43.0326" lon="0.62969">
        <ele>547.99</ele>
        <time>2014-01-28T13:43:24Z</time>
      </trkpt>
      <trkpt lat="43.03262" lon="0.62963">
        <ele>549.04</ele>
        <time>2014-01-28T13:43:28Z</time>
      </trkpt>
      <trkpt lat="43.03263" lon="0.62956">
        <ele>549.5</ele>
        <time>2014-01-28T13:43:32Z</time>
      </trkpt>
      <trkpt lat="43.03265" lon="0.62949">
        <ele>548.59</ele>
        <time>2014-01-28T13:43:36Z</time>
      </trkpt>
      <trkpt lat="43.03268" lon="0.62944">
        <ele>546.74</ele>
        <time>2014-01-28T13:43:40Z</time>
      </trkpt>
      <trkpt lat="43.03269" lon="0.62938">
        <ele>545.56</ele>
        <time>2014-01-28T13:43:44Z</time>
      </trkpt>
      <trkpt lat="43.03271" lon="0.62932">
        <ele>545.44</ele>
        <time>2014-01-28T13:43:48Z</time>
      </trkpt>
      <trkpt lat="43.03272" lon="0.62926">
        <ele>546.13</ele>
        <time>2014-01-28T13:43:52Z</time>
      </trkpt>
      <trkpt lat="43.03273" lon="0.6292">
        <ele>545.26</ele>
        <time>2014-01-28T13:43:56Z</time>
      </trkpt>
      <trkpt lat="43.03275" lon="0.62914">
        <ele>544.12</ele>
        <time>2014-01-28T13:44:00Z</time>
      </trkpt>
      <trkpt lat="43.03277" lon="0.62908">
        <ele>543.11</ele>
        <time>2014-01-28T13:44:04Z</time>
      </trkpt>
      <trkpt lat="43.03278" lon="0.629">
        <ele>546.06</ele>
        <time>2014-01-28T13:44:09Z</time>
      </trkpt>
      <trkpt lat="43.0328" lon="0.62894">
        <ele>546.41</ele>
        <time>2014-01-28T13:44:14Z</time>
      </trkpt>
      <trkpt lat="43.03282" lon="0.62888">
        <ele>544.98</ele>
        <time>2014-01-28T13:44:18Z</time>
      </trkpt>
      <trkpt lat="43.03284" lon="0.62882">
        <ele>543.57</ele>
        <time>2014-01-28T13:44:22Z</time>
      </trkpt>
      <trkpt lat="43.03284" lon="0.62875">
        <ele>541.21</ele>
        <time>2014-01-28T13:44:27Z</time>
      </trkpt>
      <trkpt lat="43.03283" lon="0.62869">
        <ele>540.05</ele>
        <time>2014-01-28T13:44:35Z</time>
      </trkpt>
    </trkseg>
  </trk>
</gpx>